<?xml version="1.0" encoding="UTF-8" standalone="no" ?>
<gpx xmlns="http://www.topografix.com/GPX/1/1" xmlns:xsi="http://www.w3.org/2001/XMLSchema-instance" xsi:schemaLocation="http://www.topografix.com/GPX/1/1 http://www.topografix.com/GPX/1/1/gpx.xsd" version="1.1" creator="VisuGPX - https://www.visugpx.com">
  <metadata>
    <name>Berge, Gruben und die längste Theke der Welt</name>
    <desc><![CDATA[Radtour an Erft, Rhein und Rhur]]></desc>
  </metadata>
  <wpt lat="50.79926" lon="6.76418">
    <ele>102</ele>
    <name><![CDATA[Hotel Franziskaner]]></name>
    <desc><![CDATA[Einfach und Preiswert. Gutes Frühstück.]]></desc>
    <link href="https://plus.google.com/102347286560550545371/about?gl=de&amp;hl=de"></link>
    <type><![CDATA[Hostel]]></type>
  </wpt>
  <wpt lat="51.21928" lon="6.78414">
    <ele>45</ele>
    <name><![CDATA[Hotel Rheingold]]></name>
    <type><![CDATA[Hostel]]></type>
  </wpt>
  <wpt lat="51.36129" lon="6.92742">
    <ele>44</ele>
    <name><![CDATA[Hotel "Zur Flora"]]></name>
    <type><![CDATA[Hostel]]></type>
  </wpt>
  <trk>
    <name><![CDATA[Berge, Gruben und die längste Theke der Welt - Erft, Rhein und Ruhr on GPSies.com]]></name>
    <trkseg>
      <trkpt lat="50.49367" lon="6.63042">
        <ele>449</ele>
        <time>2010-01-01T00:00:00Z</time>
      </trkpt>
      <trkpt lat="50.49297" lon="6.63056">
        <ele>450</ele>
        <time>2010-01-01T00:00:27Z</time>
      </trkpt>
      <trkpt lat="50.493" lon="6.63081">
        <ele>451</ele>
        <time>2010-01-01T00:00:34Z</time>
      </trkpt>
      <trkpt lat="50.49288" lon="6.6308">
        <ele>451</ele>
        <time>2010-01-01T00:00:39Z</time>
      </trkpt>
      <trkpt lat="50.49286" lon="6.63098">
        <ele>452</ele>
        <time>2010-01-01T00:00:43Z</time>
      </trkpt>
      <trkpt lat="50.49296" lon="6.63173">
        <ele>455</ele>
        <time>2010-01-01T00:01:03Z</time>
      </trkpt>
      <trkpt lat="50.49287" lon="6.63265">
        <ele>459</ele>
        <time>2010-01-01T00:01:27Z</time>
      </trkpt>
      <trkpt lat="50.49227" lon="6.6333">
        <ele>464</ele>
        <time>2010-01-01T00:01:56Z</time>
      </trkpt>
      <trkpt lat="50.49202" lon="6.6339">
        <ele>462</ele>
        <time>2010-01-01T00:02:14Z</time>
      </trkpt>
      <trkpt lat="50.49161" lon="6.63452">
        <ele>459</ele>
        <time>2010-01-01T00:02:37Z</time>
      </trkpt>
      <trkpt lat="50.49114" lon="6.63462">
        <ele>459</ele>
        <time>2010-01-01T00:02:56Z</time>
      </trkpt>
      <trkpt lat="50.48937" lon="6.63437">
        <ele>466</ele>
        <time>2010-01-01T00:04:07Z</time>
      </trkpt>
      <trkpt lat="50.48873" lon="6.63452">
        <ele>471</ele>
        <time>2010-01-01T00:04:33Z</time>
      </trkpt>
      <trkpt lat="50.48804" lon="6.63496">
        <ele>473</ele>
        <time>2010-01-01T00:05:03Z</time>
      </trkpt>
      <trkpt lat="50.48774" lon="6.63528">
        <ele>476</ele>
        <time>2010-01-01T00:05:17Z</time>
      </trkpt>
      <trkpt lat="50.48752" lon="6.63583">
        <ele>473</ele>
        <time>2010-01-01T00:05:34Z</time>
      </trkpt>
      <trkpt lat="50.48733" lon="6.63669">
        <ele>474</ele>
        <time>2010-01-01T00:05:57Z</time>
      </trkpt>
      <trkpt lat="50.4882" lon="6.63924">
        <ele>467</ele>
        <time>2010-01-01T00:07:11Z</time>
      </trkpt>
      <trkpt lat="50.48829" lon="6.64006">
        <ele>465</ele>
        <time>2010-01-01T00:07:32Z</time>
      </trkpt>
      <trkpt lat="50.4876" lon="6.64468">
        <ele>470</ele>
        <time>2010-01-01T00:09:33Z</time>
      </trkpt>
      <trkpt lat="50.48769" lon="6.64676">
        <ele>469</ele>
        <time>2010-01-01T00:10:26Z</time>
      </trkpt>
      <trkpt lat="50.4874" lon="6.64776">
        <ele>467</ele>
        <time>2010-01-01T00:10:54Z</time>
      </trkpt>
      <trkpt lat="50.48599" lon="6.64966">
        <ele>471</ele>
        <time>2010-01-01T00:12:08Z</time>
      </trkpt>
      <trkpt lat="50.48516" lon="6.651">
        <ele>474</ele>
        <time>2010-01-01T00:12:56Z</time>
      </trkpt>
      <trkpt lat="50.48456" lon="6.6525">
        <ele>474</ele>
        <time>2010-01-01T00:13:41Z</time>
      </trkpt>
      <trkpt lat="50.48463" lon="6.65301">
        <ele>475</ele>
        <time>2010-01-01T00:13:54Z</time>
      </trkpt>
      <trkpt lat="50.48506" lon="6.65389">
        <ele>475</ele>
        <time>2010-01-01T00:14:23Z</time>
      </trkpt>
      <trkpt lat="50.48509" lon="6.65464">
        <ele>476</ele>
        <time>2010-01-01T00:14:42Z</time>
      </trkpt>
      <trkpt lat="50.48496" lon="6.65542">
        <ele>475</ele>
        <time>2010-01-01T00:15:02Z</time>
      </trkpt>
      <trkpt lat="50.48421" lon="6.65725">
        <ele>480</ele>
        <time>2010-01-01T00:15:58Z</time>
      </trkpt>
      <trkpt lat="50.48371" lon="6.65943">
        <ele>480</ele>
        <time>2010-01-01T00:16:57Z</time>
      </trkpt>
      <trkpt lat="50.48377" lon="6.65983">
        <ele>480</ele>
        <time>2010-01-01T00:17:07Z</time>
      </trkpt>
      <trkpt lat="50.48409" lon="6.66021">
        <ele>478</ele>
        <time>2010-01-01T00:17:23Z</time>
      </trkpt>
      <trkpt lat="50.48465" lon="6.66058">
        <ele>480</ele>
        <time>2010-01-01T00:17:48Z</time>
      </trkpt>
      <trkpt lat="50.48528" lon="6.6606">
        <ele>483</ele>
        <time>2010-01-01T00:18:13Z</time>
      </trkpt>
      <trkpt lat="50.48569" lon="6.66085">
        <ele>484</ele>
        <time>2010-01-01T00:18:31Z</time>
      </trkpt>
      <trkpt lat="50.48602" lon="6.66137">
        <ele>489</ele>
        <time>2010-01-01T00:18:49Z</time>
      </trkpt>
      <trkpt lat="50.48688" lon="6.66349">
        <ele>494</ele>
        <time>2010-01-01T00:19:53Z</time>
      </trkpt>
      <trkpt lat="50.48728" lon="6.66422">
        <ele>499</ele>
        <time>2010-01-01T00:20:18Z</time>
      </trkpt>
      <trkpt lat="50.48826" lon="6.66537">
        <ele>498</ele>
        <time>2010-01-01T00:21:07Z</time>
      </trkpt>
      <trkpt lat="50.48991" lon="6.66672">
        <ele>501</ele>
        <time>2010-01-01T00:22:21Z</time>
      </trkpt>
      <trkpt lat="50.49003" lon="6.66746">
        <ele>501</ele>
        <time>2010-01-01T00:22:41Z</time>
      </trkpt>
      <trkpt lat="50.49004" lon="6.66886">
        <ele>501</ele>
        <time>2010-01-01T00:23:17Z</time>
      </trkpt>
      <trkpt lat="50.4902" lon="6.6699">
        <ele>504</ele>
        <time>2010-01-01T00:23:44Z</time>
      </trkpt>
      <trkpt lat="50.49153" lon="6.67183">
        <ele>509</ele>
        <time>2010-01-01T00:24:56Z</time>
      </trkpt>
      <trkpt lat="50.4916" lon="6.67216">
        <ele>509</ele>
        <time>2010-01-01T00:25:05Z</time>
      </trkpt>
      <trkpt lat="50.49231" lon="6.67333">
        <ele>509</ele>
        <time>2010-01-01T00:25:46Z</time>
      </trkpt>
      <trkpt lat="50.49326" lon="6.67602">
        <ele>515</ele>
        <time>2010-01-01T00:27:05Z</time>
      </trkpt>
      <trkpt lat="50.49346" lon="6.67747">
        <ele>521</ele>
        <time>2010-01-01T00:27:43Z</time>
      </trkpt>
      <trkpt lat="50.49341" lon="6.67803">
        <ele>524</ele>
        <time>2010-01-01T00:27:57Z</time>
      </trkpt>
      <trkpt lat="50.49306" lon="6.67836">
        <ele>525</ele>
        <time>2010-01-01T00:28:13Z</time>
      </trkpt>
      <trkpt lat="50.49295" lon="6.68005">
        <ele>527</ele>
        <time>2010-01-01T00:28:57Z</time>
      </trkpt>
      <trkpt lat="50.49245" lon="6.6819">
        <ele>530</ele>
        <time>2010-01-01T00:29:48Z</time>
      </trkpt>
      <trkpt lat="50.49238" lon="6.68248">
        <ele>531</ele>
        <time>2010-01-01T00:30:03Z</time>
      </trkpt>
      <trkpt lat="50.49267" lon="6.68421">
        <ele>532</ele>
        <time>2010-01-01T00:30:49Z</time>
      </trkpt>
      <trkpt lat="50.4924" lon="6.68463">
        <ele>532</ele>
        <time>2010-01-01T00:31:04Z</time>
      </trkpt>
      <trkpt lat="50.4921" lon="6.68541">
        <ele>532</ele>
        <time>2010-01-01T00:31:27Z</time>
      </trkpt>
      <trkpt lat="50.49201" lon="6.68618">
        <ele>532</ele>
        <time>2010-01-01T00:31:47Z</time>
      </trkpt>
      <trkpt lat="50.493" lon="6.69156">
        <ele>536</ele>
        <time>2010-01-01T00:34:10Z</time>
      </trkpt>
      <trkpt lat="50.49306" lon="6.6924">
        <ele>534</ele>
        <time>2010-01-01T00:34:31Z</time>
      </trkpt>
      <trkpt lat="50.49342" lon="6.69353">
        <ele>534</ele>
        <time>2010-01-01T00:35:03Z</time>
      </trkpt>
      <trkpt lat="50.49421" lon="6.69733">
        <ele>535</ele>
        <time>2010-01-01T00:36:45Z</time>
      </trkpt>
      <trkpt lat="50.49457" lon="6.69895">
        <ele>531</ele>
        <time>2010-01-01T00:37:29Z</time>
      </trkpt>
      <trkpt lat="50.49482" lon="6.70063">
        <ele>526</ele>
        <time>2010-01-01T00:38:13Z</time>
      </trkpt>
      <trkpt lat="50.49548" lon="6.70259">
        <ele>529</ele>
        <time>2010-01-01T00:39:09Z</time>
      </trkpt>
      <trkpt lat="50.49578" lon="6.70493">
        <ele>526</ele>
        <time>2010-01-01T00:40:10Z</time>
      </trkpt>
      <trkpt lat="50.496" lon="6.70552">
        <ele>523</ele>
        <time>2010-01-01T00:40:27Z</time>
      </trkpt>
      <trkpt lat="50.49607" lon="6.70606">
        <ele>521</ele>
        <time>2010-01-01T00:40:41Z</time>
      </trkpt>
      <trkpt lat="50.4959" lon="6.70716">
        <ele>517</ele>
        <time>2010-01-01T00:41:10Z</time>
      </trkpt>
      <trkpt lat="50.49623" lon="6.70774">
        <ele>515</ele>
        <time>2010-01-01T00:41:30Z</time>
      </trkpt>
      <trkpt lat="50.49602" lon="6.70794">
        <ele>513</ele>
        <time>2010-01-01T00:41:40Z</time>
      </trkpt>
      <trkpt lat="50.49507" lon="6.70941">
        <ele>502</ele>
        <time>2010-01-01T00:42:33Z</time>
      </trkpt>
      <trkpt lat="50.49512" lon="6.71018">
        <ele>496</ele>
        <time>2010-01-01T00:42:53Z</time>
      </trkpt>
      <trkpt lat="50.49525" lon="6.71064">
        <ele>493</ele>
        <time>2010-01-01T00:43:06Z</time>
      </trkpt>
      <trkpt lat="50.49691" lon="6.71419">
        <ele>474</ele>
        <time>2010-01-01T00:44:58Z</time>
      </trkpt>
      <trkpt lat="50.49791" lon="6.71657">
        <ele>471</ele>
        <time>2010-01-01T00:46:11Z</time>
      </trkpt>
      <trkpt lat="50.49784" lon="6.7171">
        <ele>468</ele>
        <time>2010-01-01T00:46:25Z</time>
      </trkpt>
      <trkpt lat="50.4978" lon="6.71714">
        <ele>467</ele>
        <time>2010-01-01T00:46:27Z</time>
      </trkpt>
      <trkpt lat="50.4978" lon="6.71713">
        <ele>467</ele>
        <time>2010-01-01T00:46:27Z</time>
      </trkpt>
      <trkpt lat="50.49804" lon="6.7182">
        <ele>467</ele>
        <time>2010-01-01T00:46:55Z</time>
      </trkpt>
      <trkpt lat="50.49853" lon="6.72447">
        <ele>440</ele>
        <time>2010-01-01T00:49:36Z</time>
      </trkpt>
      <trkpt lat="50.49923" lon="6.72896">
        <ele>432</ele>
        <time>2010-01-01T00:51:34Z</time>
      </trkpt>
      <trkpt lat="50.49938" lon="6.73067">
        <ele>431</ele>
        <time>2010-01-01T00:52:18Z</time>
      </trkpt>
      <trkpt lat="50.49923" lon="6.73162">
        <ele>426</ele>
        <time>2010-01-01T00:52:43Z</time>
      </trkpt>
      <trkpt lat="50.4994" lon="6.73208">
        <ele>424</ele>
        <time>2010-01-01T00:52:56Z</time>
      </trkpt>
      <trkpt lat="50.49914" lon="6.73635">
        <ele>414</ele>
        <time>2010-01-01T00:54:46Z</time>
      </trkpt>
      <trkpt lat="50.49859" lon="6.73757">
        <ele>418</ele>
        <time>2010-01-01T00:55:24Z</time>
      </trkpt>
      <trkpt lat="50.49841" lon="6.73918">
        <ele>409</ele>
        <time>2010-01-01T00:56:05Z</time>
      </trkpt>
      <trkpt lat="50.49773" lon="6.7417">
        <ele>409</ele>
        <time>2010-01-01T00:57:15Z</time>
      </trkpt>
      <trkpt lat="50.49815" lon="6.7433">
        <ele>406</ele>
        <time>2010-01-01T00:57:59Z</time>
      </trkpt>
      <trkpt lat="50.49867" lon="6.74409">
        <ele>403</ele>
        <time>2010-01-01T00:58:28Z</time>
      </trkpt>
      <trkpt lat="50.49954" lon="6.74487">
        <ele>402</ele>
        <time>2010-01-01T00:59:08Z</time>
      </trkpt>
      <trkpt lat="50.50145" lon="6.7504">
        <ele>399</ele>
        <time>2010-01-01T01:01:49Z</time>
      </trkpt>
      <trkpt lat="50.50226" lon="6.75205">
        <ele>389</ele>
        <time>2010-01-01T01:02:42Z</time>
      </trkpt>
      <trkpt lat="50.50275" lon="6.75361">
        <ele>392</ele>
        <time>2010-01-01T01:03:26Z</time>
      </trkpt>
      <trkpt lat="50.50371" lon="6.75775">
        <ele>389</ele>
        <time>2010-01-01T01:05:18Z</time>
      </trkpt>
      <trkpt lat="50.50459" lon="6.75935">
        <ele>383</ele>
        <time>2010-01-01T01:06:12Z</time>
      </trkpt>
      <trkpt lat="50.50618" lon="6.76024">
        <ele>381</ele>
        <time>2010-01-01T01:07:19Z</time>
      </trkpt>
      <trkpt lat="50.50744" lon="6.76164">
        <ele>375</ele>
        <time>2010-01-01T01:08:21Z</time>
      </trkpt>
      <trkpt lat="50.50823" lon="6.76312">
        <ele>374</ele>
        <time>2010-01-01T01:09:10Z</time>
      </trkpt>
      <trkpt lat="50.50877" lon="6.7652">
        <ele>376</ele>
        <time>2010-01-01T01:10:08Z</time>
      </trkpt>
      <trkpt lat="50.50866" lon="6.76621">
        <ele>369</ele>
        <time>2010-01-01T01:10:34Z</time>
      </trkpt>
      <trkpt lat="50.50881" lon="6.76875">
        <ele>370</ele>
        <time>2010-01-01T01:11:38Z</time>
      </trkpt>
      <trkpt lat="50.51007" lon="6.77419">
        <ele>359</ele>
        <time>2010-01-01T01:14:06Z</time>
      </trkpt>
      <trkpt lat="50.51076" lon="6.77538">
        <ele>357</ele>
        <time>2010-01-01T01:14:47Z</time>
      </trkpt>
      <trkpt lat="50.51119" lon="6.77653">
        <ele>356</ele>
        <time>2010-01-01T01:15:21Z</time>
      </trkpt>
      <trkpt lat="50.51186" lon="6.77778">
        <ele>353</ele>
        <time>2010-01-01T01:16:02Z</time>
      </trkpt>
      <trkpt lat="50.51437" lon="6.78181">
        <ele>353</ele>
        <time>2010-01-01T01:18:26Z</time>
      </trkpt>
      <trkpt lat="50.51439" lon="6.78224">
        <ele>355</ele>
        <time>2010-01-01T01:18:37Z</time>
      </trkpt>
      <trkpt lat="50.51526" lon="6.7833">
        <ele>354</ele>
        <time>2010-01-01T01:19:21Z</time>
      </trkpt>
      <trkpt lat="50.51644" lon="6.78425">
        <ele>349</ele>
        <time>2010-01-01T01:20:14Z</time>
      </trkpt>
      <trkpt lat="50.5177" lon="6.78471">
        <ele>354</ele>
        <time>2010-01-01T01:21:06Z</time>
      </trkpt>
      <trkpt lat="50.51881" lon="6.78472">
        <ele>355</ele>
        <time>2010-01-01T01:21:50Z</time>
      </trkpt>
      <trkpt lat="50.51973" lon="6.78445">
        <ele>355</ele>
        <time>2010-01-01T01:22:28Z</time>
      </trkpt>
      <trkpt lat="50.52079" lon="6.78394">
        <ele>354</ele>
        <time>2010-01-01T01:23:12Z</time>
      </trkpt>
      <trkpt lat="50.52184" lon="6.78369">
        <ele>348</ele>
        <time>2010-01-01T01:23:55Z</time>
      </trkpt>
      <trkpt lat="50.52277" lon="6.78418">
        <ele>350</ele>
        <time>2010-01-01T01:24:34Z</time>
      </trkpt>
      <trkpt lat="50.52402" lon="6.78519">
        <ele>349</ele>
        <time>2010-01-01T01:25:31Z</time>
      </trkpt>
      <trkpt lat="50.52504" lon="6.78551">
        <ele>340</ele>
        <time>2010-01-01T01:26:12Z</time>
      </trkpt>
      <trkpt lat="50.52605" lon="6.78509">
        <ele>347</ele>
        <time>2010-01-01T01:26:54Z</time>
      </trkpt>
      <trkpt lat="50.52702" lon="6.78386">
        <ele>345</ele>
        <time>2010-01-01T01:27:44Z</time>
      </trkpt>
      <trkpt lat="50.52814" lon="6.78131">
        <ele>329</ele>
        <time>2010-01-01T01:29:02Z</time>
      </trkpt>
      <trkpt lat="50.52863" lon="6.78043">
        <ele>326</ele>
        <time>2010-01-01T01:29:32Z</time>
      </trkpt>
      <trkpt lat="50.53076" lon="6.77768">
        <ele>323</ele>
        <time>2010-01-01T01:31:23Z</time>
      </trkpt>
      <trkpt lat="50.5312" lon="6.77679">
        <ele>322</ele>
        <time>2010-01-01T01:31:52Z</time>
      </trkpt>
      <trkpt lat="50.53209" lon="6.77396">
        <ele>320</ele>
        <time>2010-01-01T01:33:12Z</time>
      </trkpt>
      <trkpt lat="50.53268" lon="6.77061">
        <ele>314</ele>
        <time>2010-01-01T01:34:40Z</time>
      </trkpt>
      <trkpt lat="50.53333" lon="6.76956">
        <ele>313</ele>
        <time>2010-01-01T01:35:18Z</time>
      </trkpt>
      <trkpt lat="50.53333" lon="6.76938">
        <ele>313</ele>
        <time>2010-01-01T01:35:22Z</time>
      </trkpt>
      <trkpt lat="50.53413" lon="6.76847">
        <ele>309</ele>
        <time>2010-01-01T01:36:01Z</time>
      </trkpt>
      <trkpt lat="50.53497" lon="6.76778">
        <ele>312</ele>
        <time>2010-01-01T01:36:39Z</time>
      </trkpt>
      <trkpt lat="50.53637" lon="6.76695">
        <ele>310</ele>
        <time>2010-01-01T01:37:39Z</time>
      </trkpt>
      <trkpt lat="50.53656" lon="6.76643">
        <ele>311</ele>
        <time>2010-01-01T01:37:55Z</time>
      </trkpt>
      <trkpt lat="50.53657" lon="6.7661">
        <ele>313</ele>
        <time>2010-01-01T01:38:03Z</time>
      </trkpt>
      <trkpt lat="50.53679" lon="6.76602">
        <ele>313</ele>
        <time>2010-01-01T01:38:12Z</time>
      </trkpt>
      <trkpt lat="50.53773" lon="6.76679">
        <ele>313</ele>
        <time>2010-01-01T01:38:55Z</time>
      </trkpt>
      <trkpt lat="50.53813" lon="6.76689">
        <ele>314</ele>
        <time>2010-01-01T01:39:11Z</time>
      </trkpt>
      <trkpt lat="50.53845" lon="6.76679">
        <ele>316</ele>
        <time>2010-01-01T01:39:24Z</time>
      </trkpt>
      <trkpt lat="50.53918" lon="6.76627">
        <ele>323</ele>
        <time>2010-01-01T01:39:56Z</time>
      </trkpt>
      <trkpt lat="50.54027" lon="6.76527">
        <ele>333</ele>
        <time>2010-01-01T01:40:46Z</time>
      </trkpt>
      <trkpt lat="50.54058" lon="6.76529">
        <ele>332</ele>
        <time>2010-01-01T01:40:59Z</time>
      </trkpt>
      <trkpt lat="50.54135" lon="6.76494">
        <ele>338</ele>
        <time>2010-01-01T01:41:31Z</time>
      </trkpt>
      <trkpt lat="50.54174" lon="6.76506">
        <ele>335</ele>
        <time>2010-01-01T01:41:47Z</time>
      </trkpt>
      <trkpt lat="50.54194" lon="6.76501">
        <ele>332</ele>
        <time>2010-01-01T01:41:55Z</time>
      </trkpt>
      <trkpt lat="50.54275" lon="6.76415">
        <ele>329</ele>
        <time>2010-01-01T01:42:34Z</time>
      </trkpt>
      <trkpt lat="50.5432" lon="6.76392">
        <ele>325</ele>
        <time>2010-01-01T01:42:53Z</time>
      </trkpt>
      <trkpt lat="50.54514" lon="6.76226">
        <ele>315</ele>
        <time>2010-01-01T01:44:21Z</time>
      </trkpt>
      <trkpt lat="50.54625" lon="6.76191">
        <ele>302</ele>
        <time>2010-01-01T01:45:07Z</time>
      </trkpt>
      <trkpt lat="50.54745" lon="6.76143">
        <ele>297</ele>
        <time>2010-01-01T01:45:56Z</time>
      </trkpt>
      <trkpt lat="50.54777" lon="6.76145">
        <ele>296</ele>
        <time>2010-01-01T01:46:09Z</time>
      </trkpt>
      <trkpt lat="50.5485" lon="6.76103">
        <ele>297</ele>
        <time>2010-01-01T01:46:40Z</time>
      </trkpt>
      <trkpt lat="50.54915" lon="6.76048">
        <ele>297</ele>
        <time>2010-01-01T01:47:09Z</time>
      </trkpt>
      <trkpt lat="50.55015" lon="6.76005">
        <ele>299</ele>
        <time>2010-01-01T01:47:51Z</time>
      </trkpt>
      <trkpt lat="50.55124" lon="6.76009">
        <ele>301</ele>
        <time>2010-01-01T01:48:35Z</time>
      </trkpt>
      <trkpt lat="50.55202" lon="6.76043">
        <ele>296</ele>
        <time>2010-01-01T01:49:07Z</time>
      </trkpt>
      <trkpt lat="50.55257" lon="6.76054">
        <ele>294</ele>
        <time>2010-01-01T01:49:29Z</time>
      </trkpt>
      <trkpt lat="50.55318" lon="6.76089">
        <ele>291</ele>
        <time>2010-01-01T01:49:55Z</time>
      </trkpt>
      <trkpt lat="50.55336" lon="6.76117">
        <ele>290</ele>
        <time>2010-01-01T01:50:06Z</time>
      </trkpt>
      <trkpt lat="50.55431" lon="6.76189">
        <ele>289</ele>
        <time>2010-01-01T01:50:48Z</time>
      </trkpt>
      <trkpt lat="50.55424" lon="6.7623">
        <ele>286</ele>
        <time>2010-01-01T01:50:59Z</time>
      </trkpt>
      <trkpt lat="50.55431" lon="6.76243">
        <ele>286</ele>
        <time>2010-01-01T01:51:03Z</time>
      </trkpt>
      <trkpt lat="50.5551" lon="6.76246">
        <ele>287</ele>
        <time>2010-01-01T01:51:34Z</time>
      </trkpt>
      <trkpt lat="50.55705" lon="6.76307">
        <ele>287</ele>
        <time>2010-01-01T01:52:54Z</time>
      </trkpt>
      <trkpt lat="50.55736" lon="6.76331">
        <ele>285</ele>
        <time>2010-01-01T01:53:08Z</time>
      </trkpt>
      <trkpt lat="50.55731" lon="6.76492">
        <ele>279</ele>
        <time>2010-01-01T01:53:49Z</time>
      </trkpt>
      <trkpt lat="50.55743" lon="6.7652">
        <ele>279</ele>
        <time>2010-01-01T01:53:57Z</time>
      </trkpt>
      <trkpt lat="50.55964" lon="6.76511">
        <ele>275</ele>
        <time>2010-01-01T01:55:26Z</time>
      </trkpt>
      <trkpt lat="50.56134" lon="6.76346">
        <ele>275</ele>
        <time>2010-01-01T01:56:46Z</time>
      </trkpt>
      <trkpt lat="50.56182" lon="6.76314">
        <ele>277</ele>
        <time>2010-01-01T01:57:07Z</time>
      </trkpt>
      <trkpt lat="50.56211" lon="6.7631">
        <ele>276</ele>
        <time>2010-01-01T01:57:18Z</time>
      </trkpt>
      <trkpt lat="50.5629" lon="6.76336">
        <ele>271</ele>
        <time>2010-01-01T01:57:51Z</time>
      </trkpt>
      <trkpt lat="50.56298" lon="6.76386">
        <ele>269</ele>
        <time>2010-01-01T01:58:04Z</time>
      </trkpt>
      <trkpt lat="50.56341" lon="6.76393">
        <ele>268</ele>
        <time>2010-01-01T01:58:21Z</time>
      </trkpt>
      <trkpt lat="50.56395" lon="6.76434">
        <ele>268</ele>
        <time>2010-01-01T01:58:45Z</time>
      </trkpt>
      <trkpt lat="50.5651" lon="6.76431">
        <ele>265</ele>
        <time>2010-01-01T01:59:31Z</time>
      </trkpt>
      <trkpt lat="50.56697" lon="6.76397">
        <ele>263</ele>
        <time>2010-01-01T02:00:46Z</time>
      </trkpt>
      <trkpt lat="50.56782" lon="6.76421">
        <ele>262</ele>
        <time>2010-01-01T02:01:21Z</time>
      </trkpt>
      <trkpt lat="50.56801" lon="6.76443">
        <ele>262</ele>
        <time>2010-01-01T02:01:31Z</time>
      </trkpt>
      <trkpt lat="50.56834" lon="6.76437">
        <ele>261</ele>
        <time>2010-01-01T02:01:44Z</time>
      </trkpt>
      <trkpt lat="50.56858" lon="6.76446">
        <ele>261</ele>
        <time>2010-01-01T02:01:54Z</time>
      </trkpt>
      <trkpt lat="50.56858" lon="6.76464">
        <ele>261</ele>
        <time>2010-01-01T02:01:58Z</time>
      </trkpt>
      <trkpt lat="50.56992" lon="6.7652">
        <ele>268</ele>
        <time>2010-01-01T02:02:54Z</time>
      </trkpt>
      <trkpt lat="50.57083" lon="6.76514">
        <ele>268</ele>
        <time>2010-01-01T02:03:30Z</time>
      </trkpt>
      <trkpt lat="50.57202" lon="6.76574">
        <ele>272</ele>
        <time>2010-01-01T02:04:20Z</time>
      </trkpt>
      <trkpt lat="50.57264" lon="6.7666">
        <ele>277</ele>
        <time>2010-01-01T02:04:53Z</time>
      </trkpt>
      <trkpt lat="50.57307" lon="6.76752">
        <ele>279</ele>
        <time>2010-01-01T02:05:22Z</time>
      </trkpt>
      <trkpt lat="50.57606" lon="6.76927">
        <ele>264</ele>
        <time>2010-01-01T02:07:30Z</time>
      </trkpt>
      <trkpt lat="50.57695" lon="6.77005">
        <ele>266</ele>
        <time>2010-01-01T02:08:11Z</time>
      </trkpt>
      <trkpt lat="50.5784" lon="6.77036">
        <ele>262</ele>
        <time>2010-01-01T02:09:09Z</time>
      </trkpt>
      <trkpt lat="50.57956" lon="6.77044">
        <ele>259</ele>
        <time>2010-01-01T02:09:56Z</time>
      </trkpt>
      <trkpt lat="50.58049" lon="6.77077">
        <ele>254</ele>
        <time>2010-01-01T02:10:34Z</time>
      </trkpt>
      <trkpt lat="50.58087" lon="6.77055">
        <ele>248</ele>
        <time>2010-01-01T02:10:50Z</time>
      </trkpt>
      <trkpt lat="50.5809" lon="6.77038">
        <ele>247</ele>
        <time>2010-01-01T02:10:55Z</time>
      </trkpt>
      <trkpt lat="50.58119" lon="6.77017">
        <ele>246</ele>
        <time>2010-01-01T02:11:08Z</time>
      </trkpt>
      <trkpt lat="50.58182" lon="6.77039">
        <ele>246</ele>
        <time>2010-01-01T02:11:34Z</time>
      </trkpt>
      <trkpt lat="50.58193" lon="6.77024">
        <ele>246</ele>
        <time>2010-01-01T02:11:39Z</time>
      </trkpt>
      <trkpt lat="50.58225" lon="6.77012">
        <ele>246</ele>
        <time>2010-01-01T02:11:52Z</time>
      </trkpt>
      <trkpt lat="50.58304" lon="6.77031">
        <ele>245</ele>
        <time>2010-01-01T02:12:24Z</time>
      </trkpt>
      <trkpt lat="50.5837" lon="6.77069">
        <ele>245</ele>
        <time>2010-01-01T02:12:53Z</time>
      </trkpt>
      <trkpt lat="50.58508" lon="6.77225">
        <ele>243</ele>
        <time>2010-01-01T02:14:01Z</time>
      </trkpt>
      <trkpt lat="50.58723" lon="6.77563">
        <ele>239</ele>
        <time>2010-01-01T02:16:02Z</time>
      </trkpt>
      <trkpt lat="50.58813" lon="6.77651">
        <ele>239</ele>
        <time>2010-01-01T02:16:45Z</time>
      </trkpt>
      <trkpt lat="50.58973" lon="6.77769">
        <ele>240</ele>
        <time>2010-01-01T02:17:56Z</time>
      </trkpt>
      <trkpt lat="50.59013" lon="6.77958">
        <ele>233</ele>
        <time>2010-01-01T02:18:46Z</time>
      </trkpt>
      <trkpt lat="50.59185" lon="6.78296">
        <ele>228</ele>
        <time>2010-01-01T02:20:36Z</time>
      </trkpt>
      <trkpt lat="50.59265" lon="6.78352">
        <ele>227</ele>
        <time>2010-01-01T02:21:11Z</time>
      </trkpt>
      <trkpt lat="50.59409" lon="6.78431">
        <ele>228</ele>
        <time>2010-01-01T02:22:12Z</time>
      </trkpt>
      <trkpt lat="50.59441" lon="6.78438">
        <ele>228</ele>
        <time>2010-01-01T02:22:25Z</time>
      </trkpt>
      <trkpt lat="50.59647" lon="6.78714">
        <ele>226</ele>
        <time>2010-01-01T02:24:13Z</time>
      </trkpt>
      <trkpt lat="50.59663" lon="6.78763">
        <ele>226</ele>
        <time>2010-01-01T02:24:27Z</time>
      </trkpt>
      <trkpt lat="50.59444" lon="6.79143">
        <ele>226</ele>
        <time>2010-01-01T02:26:38Z</time>
      </trkpt>
      <trkpt lat="50.59454" lon="6.79162">
        <ele>226</ele>
        <time>2010-01-01T02:26:44Z</time>
      </trkpt>
      <trkpt lat="50.59669" lon="6.79336">
        <ele>222</ele>
        <time>2010-01-01T02:28:21Z</time>
      </trkpt>
      <trkpt lat="50.59796" lon="6.79537">
        <ele>223</ele>
        <time>2010-01-01T02:29:33Z</time>
      </trkpt>
      <trkpt lat="50.59922" lon="6.79576">
        <ele>221</ele>
        <time>2010-01-01T02:30:24Z</time>
      </trkpt>
      <trkpt lat="50.59979" lon="6.79651">
        <ele>221</ele>
        <time>2010-01-01T02:30:54Z</time>
      </trkpt>
      <trkpt lat="50.60019" lon="6.79655">
        <ele>221</ele>
        <time>2010-01-01T02:31:10Z</time>
      </trkpt>
      <trkpt lat="50.60072" lon="6.79642">
        <ele>220</ele>
        <time>2010-01-01T02:31:32Z</time>
      </trkpt>
      <trkpt lat="50.60112" lon="6.79652">
        <ele>220</ele>
        <time>2010-01-01T02:31:48Z</time>
      </trkpt>
      <trkpt lat="50.60136" lon="6.79677">
        <ele>220</ele>
        <time>2010-01-01T02:31:59Z</time>
      </trkpt>
      <trkpt lat="50.60179" lon="6.79698">
        <ele>222</ele>
        <time>2010-01-01T02:32:18Z</time>
      </trkpt>
      <trkpt lat="50.60214" lon="6.79679">
        <ele>222</ele>
        <time>2010-01-01T02:32:32Z</time>
      </trkpt>
      <trkpt lat="50.60242" lon="6.79625">
        <ele>220</ele>
        <time>2010-01-01T02:32:50Z</time>
      </trkpt>
      <trkpt lat="50.60257" lon="6.79613">
        <ele>220</ele>
        <time>2010-01-01T02:32:57Z</time>
      </trkpt>
      <trkpt lat="50.60317" lon="6.79606">
        <ele>221</ele>
        <time>2010-01-01T02:33:21Z</time>
      </trkpt>
      <trkpt lat="50.60412" lon="6.79563">
        <ele>218</ele>
        <time>2010-01-01T02:34:00Z</time>
      </trkpt>
      <trkpt lat="50.60469" lon="6.7951">
        <ele>216</ele>
        <time>2010-01-01T02:34:27Z</time>
      </trkpt>
      <trkpt lat="50.60615" lon="6.79546">
        <ele>223</ele>
        <time>2010-01-01T02:35:26Z</time>
      </trkpt>
      <trkpt lat="50.60633" lon="6.79486">
        <ele>221</ele>
        <time>2010-01-01T02:35:43Z</time>
      </trkpt>
      <trkpt lat="50.60667" lon="6.79447">
        <ele>221</ele>
        <time>2010-01-01T02:36:00Z</time>
      </trkpt>
      <trkpt lat="50.60691" lon="6.79439">
        <ele>221</ele>
        <time>2010-01-01T02:36:10Z</time>
      </trkpt>
      <trkpt lat="50.60971" lon="6.79503">
        <ele>224</ele>
        <time>2010-01-01T02:38:03Z</time>
      </trkpt>
      <trkpt lat="50.61051" lon="6.79441">
        <ele>220</ele>
        <time>2010-01-01T02:38:39Z</time>
      </trkpt>
      <trkpt lat="50.61076" lon="6.7943">
        <ele>220</ele>
        <time>2010-01-01T02:38:49Z</time>
      </trkpt>
      <trkpt lat="50.61101" lon="6.79431">
        <ele>220</ele>
        <time>2010-01-01T02:38:59Z</time>
      </trkpt>
      <trkpt lat="50.61068" lon="6.79433">
        <ele>220</ele>
        <time>2010-01-01T02:39:12Z</time>
      </trkpt>
      <trkpt lat="50.61067" lon="6.79435">
        <ele>221</ele>
        <time>2010-01-01T02:39:13Z</time>
      </trkpt>
      <trkpt lat="50.61141" lon="6.79447">
        <ele>222</ele>
        <time>2010-01-01T02:39:43Z</time>
      </trkpt>
      <trkpt lat="50.6121" lon="6.79486">
        <ele>222</ele>
        <time>2010-01-01T02:40:12Z</time>
      </trkpt>
      <trkpt lat="50.61278" lon="6.79568">
        <ele>219</ele>
        <time>2010-01-01T02:40:47Z</time>
      </trkpt>
      <trkpt lat="50.61291" lon="6.79558">
        <ele>216</ele>
        <time>2010-01-01T02:40:52Z</time>
      </trkpt>
      <trkpt lat="50.6133" lon="6.79449">
        <ele>209</ele>
        <time>2010-01-01T02:41:24Z</time>
      </trkpt>
      <trkpt lat="50.61349" lon="6.79458">
        <ele>209</ele>
        <time>2010-01-01T02:41:32Z</time>
      </trkpt>
      <trkpt lat="50.61559" lon="6.79797">
        <ele>205</ele>
        <time>2010-01-01T02:43:33Z</time>
      </trkpt>
      <trkpt lat="50.61597" lon="6.79927">
        <ele>204</ele>
        <time>2010-01-01T02:44:09Z</time>
      </trkpt>
      <trkpt lat="50.61659" lon="6.79975">
        <ele>203</ele>
        <time>2010-01-01T02:44:37Z</time>
      </trkpt>
      <trkpt lat="50.61747" lon="6.79991">
        <ele>203</ele>
        <time>2010-01-01T02:45:12Z</time>
      </trkpt>
      <trkpt lat="50.61929" lon="6.80091">
        <ele>204</ele>
        <time>2010-01-01T02:46:29Z</time>
      </trkpt>
      <trkpt lat="50.61942" lon="6.80076">
        <ele>203</ele>
        <time>2010-01-01T02:46:35Z</time>
      </trkpt>
      <trkpt lat="50.61967" lon="6.8007">
        <ele>202</ele>
        <time>2010-01-01T02:46:46Z</time>
      </trkpt>
      <trkpt lat="50.62046" lon="6.80111">
        <ele>200</ele>
        <time>2010-01-01T02:47:19Z</time>
      </trkpt>
      <trkpt lat="50.62072" lon="6.80112">
        <ele>199</ele>
        <time>2010-01-01T02:47:30Z</time>
      </trkpt>
      <trkpt lat="50.62099" lon="6.80079">
        <ele>200</ele>
        <time>2010-01-01T02:47:43Z</time>
      </trkpt>
      <trkpt lat="50.62101" lon="6.80061">
        <ele>200</ele>
        <time>2010-01-01T02:47:48Z</time>
      </trkpt>
      <trkpt lat="50.62109" lon="6.80073">
        <ele>200</ele>
        <time>2010-01-01T02:47:52Z</time>
      </trkpt>
      <trkpt lat="50.62417" lon="6.80208">
        <ele>196</ele>
        <time>2010-01-01T02:50:00Z</time>
      </trkpt>
      <trkpt lat="50.62543" lon="6.80428">
        <ele>193</ele>
        <time>2010-01-01T02:51:15Z</time>
      </trkpt>
      <trkpt lat="50.62597" lon="6.80453">
        <ele>193</ele>
        <time>2010-01-01T02:51:38Z</time>
      </trkpt>
      <trkpt lat="50.62852" lon="6.80529">
        <ele>189</ele>
        <time>2010-01-01T02:53:22Z</time>
      </trkpt>
      <trkpt lat="50.6288" lon="6.80514">
        <ele>189</ele>
        <time>2010-01-01T02:53:34Z</time>
      </trkpt>
      <trkpt lat="50.62892" lon="6.80492">
        <ele>189</ele>
        <time>2010-01-01T02:53:41Z</time>
      </trkpt>
      <trkpt lat="50.62922" lon="6.80485">
        <ele>189</ele>
        <time>2010-01-01T02:53:53Z</time>
      </trkpt>
      <trkpt lat="50.62946" lon="6.80505">
        <ele>188</ele>
        <time>2010-01-01T02:54:04Z</time>
      </trkpt>
      <trkpt lat="50.63271" lon="6.80512">
        <ele>188</ele>
        <time>2010-01-01T02:56:14Z</time>
      </trkpt>
      <trkpt lat="50.6344" lon="6.80544">
        <ele>186</ele>
        <time>2010-01-01T02:57:22Z</time>
      </trkpt>
      <trkpt lat="50.63472" lon="6.80572">
        <ele>185</ele>
        <time>2010-01-01T02:57:37Z</time>
      </trkpt>
      <trkpt lat="50.63747" lon="6.80715">
        <ele>183</ele>
        <time>2010-01-01T02:59:33Z</time>
      </trkpt>
      <trkpt lat="50.63767" lon="6.80714">
        <ele>183</ele>
        <time>2010-01-01T02:59:41Z</time>
      </trkpt>
      <trkpt lat="50.6382" lon="6.80682">
        <ele>183</ele>
        <time>2010-01-01T03:00:04Z</time>
      </trkpt>
      <trkpt lat="50.63893" lon="6.80675">
        <ele>180</ele>
        <time>2010-01-01T03:00:33Z</time>
      </trkpt>
      <trkpt lat="50.63947" lon="6.80646">
        <ele>180</ele>
        <time>2010-01-01T03:00:56Z</time>
      </trkpt>
      <trkpt lat="50.64071" lon="6.80527">
        <ele>180</ele>
        <time>2010-01-01T03:01:54Z</time>
      </trkpt>
      <trkpt lat="50.6409" lon="6.80466">
        <ele>180</ele>
        <time>2010-01-01T03:02:11Z</time>
      </trkpt>
      <trkpt lat="50.64083" lon="6.8028">
        <ele>182</ele>
        <time>2010-01-01T03:02:58Z</time>
      </trkpt>
      <trkpt lat="50.641" lon="6.80274">
        <ele>182</ele>
        <time>2010-01-01T03:03:05Z</time>
      </trkpt>
      <trkpt lat="50.65049" lon="6.80785">
        <ele>174</ele>
        <time>2010-01-01T03:09:46Z</time>
      </trkpt>
      <trkpt lat="50.65067" lon="6.80811">
        <ele>173</ele>
        <time>2010-01-01T03:09:56Z</time>
      </trkpt>
      <trkpt lat="50.65095" lon="6.80809">
        <ele>173</ele>
        <time>2010-01-01T03:10:07Z</time>
      </trkpt>
      <trkpt lat="50.65256" lon="6.80891">
        <ele>170</ele>
        <time>2010-01-01T03:11:15Z</time>
      </trkpt>
      <trkpt lat="50.65348" lon="6.80893">
        <ele>171</ele>
        <time>2010-01-01T03:11:52Z</time>
      </trkpt>
      <trkpt lat="50.65494" lon="6.80862">
        <ele>167</ele>
        <time>2010-01-01T03:12:51Z</time>
      </trkpt>
      <trkpt lat="50.65651" lon="6.80701">
        <ele>169</ele>
        <time>2010-01-01T03:14:06Z</time>
      </trkpt>
      <trkpt lat="50.65714" lon="6.80679">
        <ele>167</ele>
        <time>2010-01-01T03:14:32Z</time>
      </trkpt>
      <trkpt lat="50.65734" lon="6.80661">
        <ele>167</ele>
        <time>2010-01-01T03:14:41Z</time>
      </trkpt>
      <trkpt lat="50.6582" lon="6.80559">
        <ele>166</ele>
        <time>2010-01-01T03:15:24Z</time>
      </trkpt>
      <trkpt lat="50.65902" lon="6.8054">
        <ele>166</ele>
        <time>2010-01-01T03:15:57Z</time>
      </trkpt>
      <trkpt lat="50.66025" lon="6.80532">
        <ele>164</ele>
        <time>2010-01-01T03:16:46Z</time>
      </trkpt>
      <trkpt lat="50.66189" lon="6.80458">
        <ele>163</ele>
        <time>2010-01-01T03:17:54Z</time>
      </trkpt>
      <trkpt lat="50.66288" lon="6.80393">
        <ele>162</ele>
        <time>2010-01-01T03:18:38Z</time>
      </trkpt>
      <trkpt lat="50.66509" lon="6.80157">
        <ele>160</ele>
        <time>2010-01-01T03:20:24Z</time>
      </trkpt>
      <trkpt lat="50.66661" lon="6.79901">
        <ele>158</ele>
        <time>2010-01-01T03:21:53Z</time>
      </trkpt>
      <trkpt lat="50.66672" lon="6.7989">
        <ele>157</ele>
        <time>2010-01-01T03:21:59Z</time>
      </trkpt>
      <trkpt lat="50.66695" lon="6.7991">
        <ele>158</ele>
        <time>2010-01-01T03:22:09Z</time>
      </trkpt>
      <trkpt lat="50.66917" lon="6.79667">
        <ele>156</ele>
        <time>2010-01-01T03:23:57Z</time>
      </trkpt>
      <trkpt lat="50.67046" lon="6.79507">
        <ele>155</ele>
        <time>2010-01-01T03:25:03Z</time>
      </trkpt>
      <trkpt lat="50.67074" lon="6.7949">
        <ele>155</ele>
        <time>2010-01-01T03:25:15Z</time>
      </trkpt>
      <trkpt lat="50.67104" lon="6.79484">
        <ele>154</ele>
        <time>2010-01-01T03:25:27Z</time>
      </trkpt>
      <trkpt lat="50.67144" lon="6.79493">
        <ele>154</ele>
        <time>2010-01-01T03:25:43Z</time>
      </trkpt>
      <trkpt lat="50.6718" lon="6.7952">
        <ele>154</ele>
        <time>2010-01-01T03:25:59Z</time>
      </trkpt>
      <trkpt lat="50.672" lon="6.79555">
        <ele>153</ele>
        <time>2010-01-01T03:26:11Z</time>
      </trkpt>
      <trkpt lat="50.67235" lon="6.79575">
        <ele>153</ele>
        <time>2010-01-01T03:26:26Z</time>
      </trkpt>
      <trkpt lat="50.67448" lon="6.79557">
        <ele>150</ele>
        <time>2010-01-01T03:27:52Z</time>
      </trkpt>
      <trkpt lat="50.67952" lon="6.79605">
        <ele>149</ele>
        <time>2010-01-01T03:31:14Z</time>
      </trkpt>
      <trkpt lat="50.68018" lon="6.79639">
        <ele>148</ele>
        <time>2010-01-01T03:31:41Z</time>
      </trkpt>
      <trkpt lat="50.68079" lon="6.79703">
        <ele>147</ele>
        <time>2010-01-01T03:32:11Z</time>
      </trkpt>
      <trkpt lat="50.68254" lon="6.79951">
        <ele>145</ele>
        <time>2010-01-01T03:33:45Z</time>
      </trkpt>
      <trkpt lat="50.68302" lon="6.79977">
        <ele>145</ele>
        <time>2010-01-01T03:34:05Z</time>
      </trkpt>
      <trkpt lat="50.68374" lon="6.79977">
        <ele>145</ele>
        <time>2010-01-01T03:34:34Z</time>
      </trkpt>
      <trkpt lat="50.68459" lon="6.79957">
        <ele>144</ele>
        <time>2010-01-01T03:35:08Z</time>
      </trkpt>
      <trkpt lat="50.68566" lon="6.79963">
        <ele>144</ele>
        <time>2010-01-01T03:35:51Z</time>
      </trkpt>
      <trkpt lat="50.68671" lon="6.8">
        <ele>144</ele>
        <time>2010-01-01T03:36:34Z</time>
      </trkpt>
      <trkpt lat="50.68772" lon="6.80074">
        <ele>143</ele>
        <time>2010-01-01T03:37:19Z</time>
      </trkpt>
      <trkpt lat="50.68927" lon="6.80261">
        <ele>142</ele>
        <time>2010-01-01T03:38:37Z</time>
      </trkpt>
      <trkpt lat="50.69034" lon="6.80361">
        <ele>142</ele>
        <time>2010-01-01T03:39:27Z</time>
      </trkpt>
      <trkpt lat="50.69105" lon="6.80388">
        <ele>142</ele>
        <time>2010-01-01T03:39:56Z</time>
      </trkpt>
      <trkpt lat="50.69161" lon="6.80375">
        <ele>142</ele>
        <time>2010-01-01T03:40:18Z</time>
      </trkpt>
      <trkpt lat="50.69195" lon="6.80355">
        <ele>142</ele>
        <time>2010-01-01T03:40:33Z</time>
      </trkpt>
      <trkpt lat="50.69278" lon="6.80371">
        <ele>142</ele>
        <time>2010-01-01T03:41:07Z</time>
      </trkpt>
      <trkpt lat="50.69367" lon="6.80424">
        <ele>141</ele>
        <time>2010-01-01T03:41:44Z</time>
      </trkpt>
      <trkpt lat="50.69464" lon="6.80461">
        <ele>139</ele>
        <time>2010-01-01T03:42:25Z</time>
      </trkpt>
      <trkpt lat="50.69773" lon="6.80472">
        <ele>138</ele>
        <time>2010-01-01T03:44:28Z</time>
      </trkpt>
      <trkpt lat="50.69871" lon="6.80508">
        <ele>136</ele>
        <time>2010-01-01T03:45:09Z</time>
      </trkpt>
      <trkpt lat="50.69947" lon="6.80558">
        <ele>137</ele>
        <time>2010-01-01T03:45:42Z</time>
      </trkpt>
      <trkpt lat="50.69972" lon="6.80507">
        <ele>136</ele>
        <time>2010-01-01T03:45:58Z</time>
      </trkpt>
      <trkpt lat="50.70427" lon="6.80577">
        <ele>133</ele>
        <time>2010-01-01T03:49:01Z</time>
      </trkpt>
      <trkpt lat="50.70689" lon="6.80581">
        <ele>132</ele>
        <time>2010-01-01T03:50:46Z</time>
      </trkpt>
      <trkpt lat="50.70876" lon="6.80571">
        <ele>134</ele>
        <time>2010-01-01T03:52:01Z</time>
      </trkpt>
      <trkpt lat="50.70937" lon="6.80598">
        <ele>133</ele>
        <time>2010-01-01T03:52:26Z</time>
      </trkpt>
      <trkpt lat="50.70934" lon="6.80648">
        <ele>131</ele>
        <time>2010-01-01T03:52:39Z</time>
      </trkpt>
      <trkpt lat="50.71275" lon="6.80837">
        <ele>130</ele>
        <time>2010-01-01T03:55:03Z</time>
      </trkpt>
      <trkpt lat="50.714" lon="6.80949">
        <ele>130</ele>
        <time>2010-01-01T03:56:01Z</time>
      </trkpt>
      <trkpt lat="50.7151" lon="6.81164">
        <ele>130</ele>
        <time>2010-01-01T03:57:11Z</time>
      </trkpt>
      <trkpt lat="50.7154" lon="6.81194">
        <ele>131</ele>
        <time>2010-01-01T03:57:25Z</time>
      </trkpt>
      <trkpt lat="50.71642" lon="6.81223">
        <ele>131</ele>
        <time>2010-01-01T03:58:06Z</time>
      </trkpt>
      <trkpt lat="50.71711" lon="6.813">
        <ele>131</ele>
        <time>2010-01-01T03:58:40Z</time>
      </trkpt>
      <trkpt lat="50.71721" lon="6.81257">
        <ele>131</ele>
        <time>2010-01-01T03:58:52Z</time>
      </trkpt>
      <trkpt lat="50.71744" lon="6.80831">
        <ele>128</ele>
        <time>2010-01-01T04:00:40Z</time>
      </trkpt>
      <trkpt lat="50.71756" lon="6.80825">
        <ele>128</ele>
        <time>2010-01-01T04:00:45Z</time>
      </trkpt>
      <trkpt lat="50.71847" lon="6.80844">
        <ele>127</ele>
        <time>2010-01-01T04:01:22Z</time>
      </trkpt>
      <trkpt lat="50.72148" lon="6.80922">
        <ele>130</ele>
        <time>2010-01-01T04:03:24Z</time>
      </trkpt>
      <trkpt lat="50.72497" lon="6.81133">
        <ele>128</ele>
        <time>2010-01-01T04:05:54Z</time>
      </trkpt>
      <trkpt lat="50.72657" lon="6.81397">
        <ele>125</ele>
        <time>2010-01-01T04:07:26Z</time>
      </trkpt>
      <trkpt lat="50.72895" lon="6.8169">
        <ele>124</ele>
        <time>2010-01-01T04:09:27Z</time>
      </trkpt>
      <trkpt lat="50.72917" lon="6.81675">
        <ele>124</ele>
        <time>2010-01-01T04:09:37Z</time>
      </trkpt>
      <trkpt lat="50.73005" lon="6.81544">
        <ele>128</ele>
        <time>2010-01-01T04:10:25Z</time>
      </trkpt>
      <trkpt lat="50.72953" lon="6.81712">
        <ele>125</ele>
        <time>2010-01-01T04:11:13Z</time>
      </trkpt>
      <trkpt lat="50.72847" lon="6.8196">
        <ele>123</ele>
        <time>2010-01-01T04:12:29Z</time>
      </trkpt>
      <trkpt lat="50.7278" lon="6.82142">
        <ele>122</ele>
        <time>2010-01-01T04:13:22Z</time>
      </trkpt>
      <trkpt lat="50.72881" lon="6.82226">
        <ele>121</ele>
        <time>2010-01-01T04:14:08Z</time>
      </trkpt>
      <trkpt lat="50.72941" lon="6.82229">
        <ele>122</ele>
        <time>2010-01-01T04:14:32Z</time>
      </trkpt>
      <trkpt lat="50.73009" lon="6.82199">
        <ele>123</ele>
        <time>2010-01-01T04:15:00Z</time>
      </trkpt>
      <trkpt lat="50.73108" lon="6.82305">
        <ele>121</ele>
        <time>2010-01-01T04:15:48Z</time>
      </trkpt>
      <trkpt lat="50.73201" lon="6.82326">
        <ele>120</ele>
        <time>2010-01-01T04:16:26Z</time>
      </trkpt>
      <trkpt lat="50.73293" lon="6.82361">
        <ele>119</ele>
        <time>2010-01-01T04:17:03Z</time>
      </trkpt>
      <trkpt lat="50.73371" lon="6.82419">
        <ele>119</ele>
        <time>2010-01-01T04:17:38Z</time>
      </trkpt>
      <trkpt lat="50.73438" lon="6.82482">
        <ele>118</ele>
        <time>2010-01-01T04:18:09Z</time>
      </trkpt>
      <trkpt lat="50.7356" lon="6.82644">
        <ele>118</ele>
        <time>2010-01-01T04:19:13Z</time>
      </trkpt>
      <trkpt lat="50.73595" lon="6.8267">
        <ele>118</ele>
        <time>2010-01-01T04:19:28Z</time>
      </trkpt>
      <trkpt lat="50.73637" lon="6.82753">
        <ele>115</ele>
        <time>2010-01-01T04:19:55Z</time>
      </trkpt>
      <trkpt lat="50.73695" lon="6.82837">
        <ele>117</ele>
        <time>2010-01-01T04:20:26Z</time>
      </trkpt>
      <trkpt lat="50.7376" lon="6.82909">
        <ele>118</ele>
        <time>2010-01-01T04:20:58Z</time>
      </trkpt>
      <trkpt lat="50.73834" lon="6.83024">
        <ele>120</ele>
        <time>2010-01-01T04:21:40Z</time>
      </trkpt>
      <trkpt lat="50.73893" lon="6.83096">
        <ele>118</ele>
        <time>2010-01-01T04:22:10Z</time>
      </trkpt>
      <trkpt lat="50.73966" lon="6.83113">
        <ele>118</ele>
        <time>2010-01-01T04:22:39Z</time>
      </trkpt>
      <trkpt lat="50.74018" lon="6.83099">
        <ele>118</ele>
        <time>2010-01-01T04:23:00Z</time>
      </trkpt>
      <trkpt lat="50.74167" lon="6.83203">
        <ele>117</ele>
        <time>2010-01-01T04:24:06Z</time>
      </trkpt>
      <trkpt lat="50.74236" lon="6.83224">
        <ele>116</ele>
        <time>2010-01-01T04:24:34Z</time>
      </trkpt>
      <trkpt lat="50.74368" lon="6.83281">
        <ele>115</ele>
        <time>2010-01-01T04:25:28Z</time>
      </trkpt>
      <trkpt lat="50.74405" lon="6.83274">
        <ele>115</ele>
        <time>2010-01-01T04:25:43Z</time>
      </trkpt>
      <trkpt lat="50.7447" lon="6.83201">
        <ele>114</ele>
        <time>2010-01-01T04:26:15Z</time>
      </trkpt>
      <trkpt lat="50.74553" lon="6.83136">
        <ele>115</ele>
        <time>2010-01-01T04:26:52Z</time>
      </trkpt>
      <trkpt lat="50.74651" lon="6.83129">
        <ele>116</ele>
        <time>2010-01-01T04:27:32Z</time>
      </trkpt>
      <trkpt lat="50.74734" lon="6.83169">
        <ele>115</ele>
        <time>2010-01-01T04:28:07Z</time>
      </trkpt>
      <trkpt lat="50.7476" lon="6.83226">
        <ele>116</ele>
        <time>2010-01-01T04:28:24Z</time>
      </trkpt>
      <trkpt lat="50.74766" lon="6.83211">
        <ele>116</ele>
        <time>2010-01-01T04:28:29Z</time>
      </trkpt>
      <trkpt lat="50.74777" lon="6.8321">
        <ele>116</ele>
        <time>2010-01-01T04:28:33Z</time>
      </trkpt>
      <trkpt lat="50.74823" lon="6.83243">
        <ele>116</ele>
        <time>2010-01-01T04:28:54Z</time>
      </trkpt>
      <trkpt lat="50.74865" lon="6.83255">
        <ele>115</ele>
        <time>2010-01-01T04:29:11Z</time>
      </trkpt>
      <trkpt lat="50.7494" lon="6.83245">
        <ele>114</ele>
        <time>2010-01-01T04:29:41Z</time>
      </trkpt>
      <trkpt lat="50.75035" lon="6.83251">
        <ele>113</ele>
        <time>2010-01-01T04:30:19Z</time>
      </trkpt>
      <trkpt lat="50.75181" lon="6.83192">
        <ele>112</ele>
        <time>2010-01-01T04:31:19Z</time>
      </trkpt>
      <trkpt lat="50.7525" lon="6.83233">
        <ele>112</ele>
        <time>2010-01-01T04:31:48Z</time>
      </trkpt>
      <trkpt lat="50.75332" lon="6.83326">
        <ele>113</ele>
        <time>2010-01-01T04:32:29Z</time>
      </trkpt>
      <trkpt lat="50.75402" lon="6.83377">
        <ele>112</ele>
        <time>2010-01-01T04:33:00Z</time>
      </trkpt>
      <trkpt lat="50.75502" lon="6.8342">
        <ele>111</ele>
        <time>2010-01-01T04:33:41Z</time>
      </trkpt>
      <trkpt lat="50.75571" lon="6.83437">
        <ele>112</ele>
        <time>2010-01-01T04:34:09Z</time>
      </trkpt>
      <trkpt lat="50.75621" lon="6.83418">
        <ele>113</ele>
        <time>2010-01-01T04:34:30Z</time>
      </trkpt>
      <trkpt lat="50.75661" lon="6.83378">
        <ele>113</ele>
        <time>2010-01-01T04:34:49Z</time>
      </trkpt>
      <trkpt lat="50.75697" lon="6.83358">
        <ele>112</ele>
        <time>2010-01-01T04:35:04Z</time>
      </trkpt>
      <trkpt lat="50.75755" lon="6.83387">
        <ele>113</ele>
        <time>2010-01-01T04:35:28Z</time>
      </trkpt>
      <trkpt lat="50.75805" lon="6.83456">
        <ele>112</ele>
        <time>2010-01-01T04:35:55Z</time>
      </trkpt>
      <trkpt lat="50.75816" lon="6.83443">
        <ele>112</ele>
        <time>2010-01-01T04:36:01Z</time>
      </trkpt>
      <trkpt lat="50.75888" lon="6.83136">
        <ele>108</ele>
        <time>2010-01-01T04:37:23Z</time>
      </trkpt>
      <trkpt lat="50.7591" lon="6.83131">
        <ele>108</ele>
        <time>2010-01-01T04:37:32Z</time>
      </trkpt>
      <trkpt lat="50.76087" lon="6.83189">
        <ele>109</ele>
        <time>2010-01-01T04:38:44Z</time>
      </trkpt>
      <trkpt lat="50.76327" lon="6.83297">
        <ele>109</ele>
        <time>2010-01-01T04:40:24Z</time>
      </trkpt>
      <trkpt lat="50.76532" lon="6.83305">
        <ele>112</ele>
        <time>2010-01-01T04:41:47Z</time>
      </trkpt>
      <trkpt lat="50.76805" lon="6.83377">
        <ele>110</ele>
        <time>2010-01-01T04:43:37Z</time>
      </trkpt>
      <trkpt lat="50.76813" lon="6.83407">
        <ele>110</ele>
        <time>2010-01-01T04:43:46Z</time>
      </trkpt>
      <trkpt lat="50.76795" lon="6.83492">
        <ele>109</ele>
        <time>2010-01-01T04:44:08Z</time>
      </trkpt>
      <trkpt lat="50.76809" lon="6.83512">
        <ele>109</ele>
        <time>2010-01-01T04:44:16Z</time>
      </trkpt>
      <trkpt lat="50.76835" lon="6.83517">
        <ele>109</ele>
        <time>2010-01-01T04:44:26Z</time>
      </trkpt>
      <trkpt lat="50.76866" lon="6.83513">
        <ele>107</ele>
        <time>2010-01-01T04:44:39Z</time>
      </trkpt>
      <trkpt lat="50.77011" lon="6.83455">
        <ele>106</ele>
        <time>2010-01-01T04:45:39Z</time>
      </trkpt>
      <trkpt lat="50.77399" lon="6.83221">
        <ele>106</ele>
        <time>2010-01-01T04:48:25Z</time>
      </trkpt>
      <trkpt lat="50.77437" lon="6.83214">
        <ele>105</ele>
        <time>2010-01-01T04:48:40Z</time>
      </trkpt>
      <trkpt lat="50.77502" lon="6.83235">
        <ele>105</ele>
        <time>2010-01-01T04:49:07Z</time>
      </trkpt>
      <trkpt lat="50.77536" lon="6.83222">
        <ele>104</ele>
        <time>2010-01-01T04:49:21Z</time>
      </trkpt>
      <trkpt lat="50.77643" lon="6.83051">
        <ele>107</ele>
        <time>2010-01-01T04:50:22Z</time>
      </trkpt>
      <trkpt lat="50.77665" lon="6.82935">
        <ele>105</ele>
        <time>2010-01-01T04:50:52Z</time>
      </trkpt>
      <trkpt lat="50.77705" lon="6.82879">
        <ele>104</ele>
        <time>2010-01-01T04:51:14Z</time>
      </trkpt>
      <trkpt lat="50.77761" lon="6.82851">
        <ele>102</ele>
        <time>2010-01-01T04:51:37Z</time>
      </trkpt>
      <trkpt lat="50.77827" lon="6.82785">
        <ele>104</ele>
        <time>2010-01-01T04:52:09Z</time>
      </trkpt>
      <trkpt lat="50.77884" lon="6.82579">
        <ele>104</ele>
        <time>2010-01-01T04:53:06Z</time>
      </trkpt>
      <trkpt lat="50.77912" lon="6.82537">
        <ele>104</ele>
        <time>2010-01-01T04:53:21Z</time>
      </trkpt>
      <trkpt lat="50.77953" lon="6.82424">
        <ele>104</ele>
        <time>2010-01-01T04:53:54Z</time>
      </trkpt>
      <trkpt lat="50.78006" lon="6.82329">
        <ele>104</ele>
        <time>2010-01-01T04:54:26Z</time>
      </trkpt>
      <trkpt lat="50.78027" lon="6.82309">
        <ele>104</ele>
        <time>2010-01-01T04:54:36Z</time>
      </trkpt>
      <trkpt lat="50.7814" lon="6.82311">
        <ele>103</ele>
        <time>2010-01-01T04:55:21Z</time>
      </trkpt>
      <trkpt lat="50.78229" lon="6.82207">
        <ele>104</ele>
        <time>2010-01-01T04:56:05Z</time>
      </trkpt>
      <trkpt lat="50.7828" lon="6.82077">
        <ele>104</ele>
        <time>2010-01-01T04:56:44Z</time>
      </trkpt>
      <trkpt lat="50.78318" lon="6.82018">
        <ele>103</ele>
        <time>2010-01-01T04:57:05Z</time>
      </trkpt>
      <trkpt lat="50.78338" lon="6.81997">
        <ele>103</ele>
        <time>2010-01-01T04:57:15Z</time>
      </trkpt>
      <trkpt lat="50.78411" lon="6.81964">
        <ele>103</ele>
        <time>2010-01-01T04:57:45Z</time>
      </trkpt>
      <trkpt lat="50.785" lon="6.81855">
        <ele>102</ele>
        <time>2010-01-01T04:58:30Z</time>
      </trkpt>
      <trkpt lat="50.78531" lon="6.81844">
        <ele>102</ele>
        <time>2010-01-01T04:58:43Z</time>
      </trkpt>
      <trkpt lat="50.78586" lon="6.81845">
        <ele>102</ele>
        <time>2010-01-01T04:59:05Z</time>
      </trkpt>
      <trkpt lat="50.78676" lon="6.81791">
        <ele>100</ele>
        <time>2010-01-01T04:59:44Z</time>
      </trkpt>
      <trkpt lat="50.78764" lon="6.81803">
        <ele>100</ele>
        <time>2010-01-01T05:00:19Z</time>
      </trkpt>
      <trkpt lat="50.78838" lon="6.81787">
        <ele>99</ele>
        <time>2010-01-01T05:00:49Z</time>
      </trkpt>
      <trkpt lat="50.78891" lon="6.81739">
        <ele>100</ele>
        <time>2010-01-01T05:01:13Z</time>
      </trkpt>
      <trkpt lat="50.78942" lon="6.81638">
        <ele>100</ele>
        <time>2010-01-01T05:01:46Z</time>
      </trkpt>
      <trkpt lat="50.79046" lon="6.81568">
        <ele>100</ele>
        <time>2010-01-01T05:02:31Z</time>
      </trkpt>
      <trkpt lat="50.79154" lon="6.81356">
        <ele>99</ele>
        <time>2010-01-01T05:03:40Z</time>
      </trkpt>
      <trkpt lat="50.79221" lon="6.81265">
        <ele>98</ele>
        <time>2010-01-01T05:04:16Z</time>
      </trkpt>
      <trkpt lat="50.79362" lon="6.81179">
        <ele>99</ele>
        <time>2010-01-01T05:05:16Z</time>
      </trkpt>
      <trkpt lat="50.79424" lon="6.81104">
        <ele>98</ele>
        <time>2010-01-01T05:05:47Z</time>
      </trkpt>
      <trkpt lat="50.79484" lon="6.80996">
        <ele>98</ele>
        <time>2010-01-01T05:06:24Z</time>
      </trkpt>
      <trkpt lat="50.79526" lon="6.80747">
        <ele>97</ele>
        <time>2010-01-01T05:07:29Z</time>
      </trkpt>
      <trkpt lat="50.79578" lon="6.80605">
        <ele>98</ele>
        <time>2010-01-01T05:08:11Z</time>
      </trkpt>
      <trkpt lat="50.79626" lon="6.80515">
        <ele>97</ele>
        <time>2010-01-01T05:08:40Z</time>
      </trkpt>
      <trkpt lat="50.797" lon="6.80425">
        <ele>97</ele>
        <time>2010-01-01T05:09:18Z</time>
      </trkpt>
      <trkpt lat="50.79768" lon="6.80367">
        <ele>96</ele>
        <time>2010-01-01T05:09:49Z</time>
      </trkpt>
      <trkpt lat="50.79883" lon="6.8029">
        <ele>96</ele>
        <time>2010-01-01T05:10:39Z</time>
      </trkpt>
      <trkpt lat="50.79908" lon="6.80235">
        <ele>96</ele>
        <time>2010-01-01T05:10:56Z</time>
      </trkpt>
      <trkpt lat="50.79931" lon="6.8023">
        <ele>96</ele>
        <time>2010-01-01T05:11:05Z</time>
      </trkpt>
      <trkpt lat="50.79959" lon="6.80206">
        <ele>96</ele>
        <time>2010-01-01T05:11:18Z</time>
      </trkpt>
      <trkpt lat="50.8001" lon="6.8018">
        <ele>97</ele>
        <time>2010-01-01T05:11:39Z</time>
      </trkpt>
      <trkpt lat="50.80109" lon="6.80173">
        <ele>96</ele>
        <time>2010-01-01T05:12:19Z</time>
      </trkpt>
      <trkpt lat="50.802" lon="6.80124">
        <ele>95</ele>
        <time>2010-01-01T05:12:57Z</time>
      </trkpt>
      <trkpt lat="50.80358" lon="6.80061">
        <ele>96</ele>
        <time>2010-01-01T05:14:02Z</time>
      </trkpt>
      <trkpt lat="50.80395" lon="6.80031">
        <ele>96</ele>
        <time>2010-01-01T05:14:19Z</time>
      </trkpt>
      <trkpt lat="50.80409" lon="6.80045">
        <ele>97</ele>
        <time>2010-01-01T05:14:26Z</time>
      </trkpt>
      <trkpt lat="50.80418" lon="6.80086">
        <ele>97</ele>
        <time>2010-01-01T05:14:37Z</time>
      </trkpt>
      <trkpt lat="50.80458" lon="6.80059">
        <ele>96</ele>
        <time>2010-01-01T05:14:54Z</time>
      </trkpt>
      <trkpt lat="50.80493" lon="6.80068">
        <ele>96</ele>
        <time>2010-01-01T05:15:09Z</time>
      </trkpt>
      <trkpt lat="50.80639" lon="6.80018">
        <ele>93</ele>
        <time>2010-01-01T05:16:08Z</time>
      </trkpt>
      <trkpt lat="50.80953" lon="6.79762">
        <ele>95</ele>
        <time>2010-01-01T05:18:30Z</time>
      </trkpt>
      <trkpt lat="50.80987" lon="6.79674">
        <ele>94</ele>
        <time>2010-01-01T05:18:56Z</time>
      </trkpt>
      <trkpt lat="50.81069" lon="6.79386">
        <ele>94</ele>
        <time>2010-01-01T05:20:16Z</time>
      </trkpt>
      <trkpt lat="50.8115" lon="6.7924">
        <ele>95</ele>
        <time>2010-01-01T05:21:05Z</time>
      </trkpt>
      <trkpt lat="50.8101" lon="6.78966">
        <ele>95</ele>
        <time>2010-01-01T05:22:34Z</time>
      </trkpt>
      <trkpt lat="50.80896" lon="6.78671">
        <ele>94</ele>
        <time>2010-01-01T05:24:01Z</time>
      </trkpt>
      <trkpt lat="50.80894" lon="6.78636">
        <ele>94</ele>
        <time>2010-01-01T05:24:10Z</time>
      </trkpt>
      <trkpt lat="50.80848" lon="6.78544">
        <ele>95</ele>
        <time>2010-01-01T05:24:40Z</time>
      </trkpt>
      <trkpt lat="50.80736" lon="6.78247">
        <ele>95</ele>
        <time>2010-01-01T05:26:07Z</time>
      </trkpt>
      <trkpt lat="50.80587" lon="6.77924">
        <ele>99</ele>
        <time>2010-01-01T05:27:49Z</time>
      </trkpt>
      <trkpt lat="50.80431" lon="6.77696">
        <ele>99</ele>
        <time>2010-01-01T05:29:13Z</time>
      </trkpt>
      <trkpt lat="50.80228" lon="6.77346">
        <ele>99</ele>
        <time>2010-01-01T05:31:14Z</time>
      </trkpt>
      <trkpt lat="50.80191" lon="6.77252">
        <ele>98</ele>
        <time>2010-01-01T05:31:42Z</time>
      </trkpt>
      <trkpt lat="50.80125" lon="6.77018">
        <ele>99</ele>
        <time>2010-01-01T05:32:47Z</time>
      </trkpt>
      <trkpt lat="50.80094" lon="6.77003">
        <ele>100</ele>
        <time>2010-01-01T05:32:59Z</time>
      </trkpt>
      <trkpt lat="50.80003" lon="6.76994">
        <ele>100</ele>
        <time>2010-01-01T05:33:36Z</time>
      </trkpt>
      <trkpt lat="50.79995" lon="6.76957">
        <ele>101</ele>
        <time>2010-01-01T05:33:46Z</time>
      </trkpt>
      <trkpt lat="50.8001" lon="6.76632">
        <ele>100</ele>
        <time>2010-01-01T05:35:09Z</time>
      </trkpt>
      <trkpt lat="50.80003" lon="6.7652">
        <ele>99</ele>
        <time>2010-01-01T05:35:37Z</time>
      </trkpt>
      <trkpt lat="50.80018" lon="6.76475">
        <ele>100</ele>
        <time>2010-01-01T05:35:50Z</time>
      </trkpt>
      <trkpt lat="50.8" lon="6.76458">
        <ele>100</ele>
        <time>2010-01-01T05:35:59Z</time>
      </trkpt>
      <trkpt lat="50.79948" lon="6.76439">
        <ele>101</ele>
        <time>2010-01-01T05:36:20Z</time>
      </trkpt>
      <trkpt lat="50.79928" lon="6.76431">
        <ele>102</ele>
        <time>2010-01-01T05:36:28Z</time>
      </trkpt>
      <trkpt lat="50.80001" lon="6.76467">
        <ele>100</ele>
        <time>2010-01-01T05:36:59Z</time>
      </trkpt>
      <trkpt lat="50.79997" lon="6.7658">
        <ele>99</ele>
        <time>2010-01-01T05:37:27Z</time>
      </trkpt>
      <trkpt lat="50.80016" lon="6.76652">
        <ele>100</ele>
        <time>2010-01-01T05:37:47Z</time>
      </trkpt>
      <trkpt lat="50.802" lon="6.76674">
        <ele>101</ele>
        <time>2010-01-01T05:39:01Z</time>
      </trkpt>
      <trkpt lat="50.80216" lon="6.76503">
        <ele>101</ele>
        <time>2010-01-01T05:39:45Z</time>
      </trkpt>
      <trkpt lat="50.8113" lon="6.76602">
        <ele>96</ele>
        <time>2010-01-01T05:45:51Z</time>
      </trkpt>
      <trkpt lat="50.81278" lon="6.76636">
        <ele>95</ele>
        <time>2010-01-01T05:46:51Z</time>
      </trkpt>
      <trkpt lat="50.81384" lon="6.76633">
        <ele>96</ele>
        <time>2010-01-01T05:47:34Z</time>
      </trkpt>
      <trkpt lat="50.8173" lon="6.76555">
        <ele>93</ele>
        <time>2010-01-01T05:49:53Z</time>
      </trkpt>
      <trkpt lat="50.82059" lon="6.76518">
        <ele>92</ele>
        <time>2010-01-01T05:52:06Z</time>
      </trkpt>
      <trkpt lat="50.82076" lon="6.76486">
        <ele>92</ele>
        <time>2010-01-01T05:52:16Z</time>
      </trkpt>
      <trkpt lat="50.82063" lon="6.76276">
        <ele>92</ele>
        <time>2010-01-01T05:53:10Z</time>
      </trkpt>
      <trkpt lat="50.82209" lon="6.76236">
        <ele>94</ele>
        <time>2010-01-01T05:54:09Z</time>
      </trkpt>
      <trkpt lat="50.82443" lon="6.7636">
        <ele>93</ele>
        <time>2010-01-01T05:55:48Z</time>
      </trkpt>
      <trkpt lat="50.82687" lon="6.76394">
        <ele>91</ele>
        <time>2010-01-01T05:57:26Z</time>
      </trkpt>
      <trkpt lat="50.82926" lon="6.75915">
        <ele>89</ele>
        <time>2010-01-01T06:00:00Z</time>
      </trkpt>
      <trkpt lat="50.83317" lon="6.74938">
        <ele>89</ele>
        <time>2010-01-01T06:04:53Z</time>
      </trkpt>
      <trkpt lat="50.83346" lon="6.74921">
        <ele>89</ele>
        <time>2010-01-01T06:05:05Z</time>
      </trkpt>
      <trkpt lat="50.8345" lon="6.7467">
        <ele>88</ele>
        <time>2010-01-01T06:06:21Z</time>
      </trkpt>
      <trkpt lat="50.83508" lon="6.7449">
        <ele>90</ele>
        <time>2010-01-01T06:07:12Z</time>
      </trkpt>
      <trkpt lat="50.83558" lon="6.74415">
        <ele>89</ele>
        <time>2010-01-01T06:07:40Z</time>
      </trkpt>
      <trkpt lat="50.83579" lon="6.74423">
        <ele>89</ele>
        <time>2010-01-01T06:07:48Z</time>
      </trkpt>
      <trkpt lat="50.83629" lon="6.74525">
        <ele>88</ele>
        <time>2010-01-01T06:08:21Z</time>
      </trkpt>
      <trkpt lat="50.83755" lon="6.74399">
        <ele>87</ele>
        <time>2010-01-01T06:09:20Z</time>
      </trkpt>
      <trkpt lat="50.83782" lon="6.74387">
        <ele>87</ele>
        <time>2010-01-01T06:09:32Z</time>
      </trkpt>
      <trkpt lat="50.83821" lon="6.74405">
        <ele>87</ele>
        <time>2010-01-01T06:09:48Z</time>
      </trkpt>
      <trkpt lat="50.83936" lon="6.74324">
        <ele>86</ele>
        <time>2010-01-01T06:10:39Z</time>
      </trkpt>
      <trkpt lat="50.84004" lon="6.74213">
        <ele>86</ele>
        <time>2010-01-01T06:11:18Z</time>
      </trkpt>
      <trkpt lat="50.83982" lon="6.73996">
        <ele>88</ele>
        <time>2010-01-01T06:12:13Z</time>
      </trkpt>
      <trkpt lat="50.8414" lon="6.73896">
        <ele>89</ele>
        <time>2010-01-01T06:13:21Z</time>
      </trkpt>
      <trkpt lat="50.84226" lon="6.73931">
        <ele>88</ele>
        <time>2010-01-01T06:13:57Z</time>
      </trkpt>
      <trkpt lat="50.84419" lon="6.74466">
        <ele>89</ele>
        <time>2010-01-01T06:16:33Z</time>
      </trkpt>
      <trkpt lat="50.84989" lon="6.75208">
        <ele>83</ele>
        <time>2010-01-01T06:21:28Z</time>
      </trkpt>
      <trkpt lat="50.85561" lon="6.74425">
        <ele>82</ele>
        <time>2010-01-01T06:26:30Z</time>
      </trkpt>
      <trkpt lat="50.85616" lon="6.74372">
        <ele>82</ele>
        <time>2010-01-01T06:26:56Z</time>
      </trkpt>
      <trkpt lat="50.85633" lon="6.74327">
        <ele>82</ele>
        <time>2010-01-01T06:27:09Z</time>
      </trkpt>
      <trkpt lat="50.8661" lon="6.72987">
        <ele>78</ele>
        <time>2010-01-01T06:35:47Z</time>
      </trkpt>
      <trkpt lat="50.86821" lon="6.72714">
        <ele>80</ele>
        <time>2010-01-01T06:37:36Z</time>
      </trkpt>
      <trkpt lat="50.87022" lon="6.72515">
        <ele>82</ele>
        <time>2010-01-01T06:39:10Z</time>
      </trkpt>
      <trkpt lat="50.87925" lon="6.71777">
        <ele>78</ele>
        <time>2010-01-01T06:45:57Z</time>
      </trkpt>
      <trkpt lat="50.88287" lon="6.71531">
        <ele>76</ele>
        <time>2010-01-01T06:48:35Z</time>
      </trkpt>
      <trkpt lat="50.88374" lon="6.71764">
        <ele>75</ele>
        <time>2010-01-01T06:49:43Z</time>
      </trkpt>
      <trkpt lat="50.88647" lon="6.7164">
        <ele>76</ele>
        <time>2010-01-01T06:51:37Z</time>
      </trkpt>
      <trkpt lat="50.88922" lon="6.7163">
        <ele>75</ele>
        <time>2010-01-01T06:53:27Z</time>
      </trkpt>
      <trkpt lat="50.88971" lon="6.71659">
        <ele>74</ele>
        <time>2010-01-01T06:53:48Z</time>
      </trkpt>
      <trkpt lat="50.89225" lon="6.71551">
        <ele>75</ele>
        <time>2010-01-01T06:55:33Z</time>
      </trkpt>
      <trkpt lat="50.89464" lon="6.71313">
        <ele>75</ele>
        <time>2010-01-01T06:57:26Z</time>
      </trkpt>
      <trkpt lat="50.89573" lon="6.71231">
        <ele>76</ele>
        <time>2010-01-01T06:58:15Z</time>
      </trkpt>
      <trkpt lat="50.89626" lon="6.71214">
        <ele>75</ele>
        <time>2010-01-01T06:58:36Z</time>
      </trkpt>
      <trkpt lat="50.89747" lon="6.71087">
        <ele>71</ele>
        <time>2010-01-01T06:59:34Z</time>
      </trkpt>
      <trkpt lat="50.89775" lon="6.70827">
        <ele>83</ele>
        <time>2010-01-01T07:00:41Z</time>
      </trkpt>
      <trkpt lat="50.89696" lon="6.70799">
        <ele>82</ele>
        <time>2010-01-01T07:01:13Z</time>
      </trkpt>
      <trkpt lat="50.89693" lon="6.70772">
        <ele>83</ele>
        <time>2010-01-01T07:01:20Z</time>
      </trkpt>
      <trkpt lat="50.89956" lon="6.7046">
        <ele>78</ele>
        <time>2010-01-01T07:03:31Z</time>
      </trkpt>
      <trkpt lat="50.9028" lon="6.70132">
        <ele>82</ele>
        <time>2010-01-01T07:06:05Z</time>
      </trkpt>
      <trkpt lat="50.90386" lon="6.6986">
        <ele>75</ele>
        <time>2010-01-01T07:07:26Z</time>
      </trkpt>
      <trkpt lat="50.90749" lon="6.69736">
        <ele>72</ele>
        <time>2010-01-01T07:09:55Z</time>
      </trkpt>
      <trkpt lat="50.90942" lon="6.69567">
        <ele>71</ele>
        <time>2010-01-01T07:11:23Z</time>
      </trkpt>
      <trkpt lat="50.91274" lon="6.69212">
        <ele>72</ele>
        <time>2010-01-01T07:14:03Z</time>
      </trkpt>
      <trkpt lat="50.91296" lon="6.69343">
        <ele>69</ele>
        <time>2010-01-01T07:14:37Z</time>
      </trkpt>
      <trkpt lat="50.91471" lon="6.69766">
        <ele>70</ele>
        <time>2010-01-01T07:16:45Z</time>
      </trkpt>
      <trkpt lat="50.91698" lon="6.6951">
        <ele>69</ele>
        <time>2010-01-01T07:18:37Z</time>
      </trkpt>
      <trkpt lat="50.92032" lon="6.69227">
        <ele>67</ele>
        <time>2010-01-01T07:21:08Z</time>
      </trkpt>
      <trkpt lat="50.92353" lon="6.68884">
        <ele>67</ele>
        <time>2010-01-01T07:23:43Z</time>
      </trkpt>
      <trkpt lat="50.92351" lon="6.68614">
        <ele>68</ele>
        <time>2010-01-01T07:24:51Z</time>
      </trkpt>
      <trkpt lat="50.9237" lon="6.68542">
        <ele>68</ele>
        <time>2010-01-01T07:25:11Z</time>
      </trkpt>
      <trkpt lat="50.92547" lon="6.68304">
        <ele>67</ele>
        <time>2010-01-01T07:26:44Z</time>
      </trkpt>
      <trkpt lat="50.92711" lon="6.6803">
        <ele>66</ele>
        <time>2010-01-01T07:28:19Z</time>
      </trkpt>
      <trkpt lat="50.92893" lon="6.67774">
        <ele>67</ele>
        <time>2010-01-01T07:29:57Z</time>
      </trkpt>
      <trkpt lat="50.931" lon="6.67399">
        <ele>64</ele>
        <time>2010-01-01T07:32:02Z</time>
      </trkpt>
      <trkpt lat="50.938" lon="6.65703">
        <ele>65</ele>
        <time>2010-01-01T07:40:34Z</time>
      </trkpt>
      <trkpt lat="50.939" lon="6.65512">
        <ele>66</ele>
        <time>2010-01-01T07:41:37Z</time>
      </trkpt>
      <trkpt lat="50.93914" lon="6.65415">
        <ele>67</ele>
        <time>2010-01-01T07:42:02Z</time>
      </trkpt>
      <trkpt lat="50.94094" lon="6.64976">
        <ele>63</ele>
        <time>2010-01-01T07:44:14Z</time>
      </trkpt>
      <trkpt lat="50.94518" lon="6.63804">
        <ele>66</ele>
        <time>2010-01-01T07:49:55Z</time>
      </trkpt>
      <trkpt lat="50.94545" lon="6.63777">
        <ele>66</ele>
        <time>2010-01-01T07:50:07Z</time>
      </trkpt>
      <trkpt lat="50.94501" lon="6.63744">
        <ele>66</ele>
        <time>2010-01-01T07:50:27Z</time>
      </trkpt>
      <trkpt lat="50.94456" lon="6.63768">
        <ele>66</ele>
        <time>2010-01-01T07:50:46Z</time>
      </trkpt>
      <trkpt lat="50.94419" lon="6.63765">
        <ele>66</ele>
        <time>2010-01-01T07:51:01Z</time>
      </trkpt>
      <trkpt lat="50.94345" lon="6.63682">
        <ele>62</ele>
        <time>2010-01-01T07:51:37Z</time>
      </trkpt>
      <trkpt lat="50.94289" lon="6.63563">
        <ele>63</ele>
        <time>2010-01-01T07:52:15Z</time>
      </trkpt>
      <trkpt lat="50.94152" lon="6.63452">
        <ele>62</ele>
        <time>2010-01-01T07:53:16Z</time>
      </trkpt>
      <trkpt lat="50.94036" lon="6.63402">
        <ele>64</ele>
        <time>2010-01-01T07:54:04Z</time>
      </trkpt>
      <trkpt lat="50.9377" lon="6.63412">
        <ele>68</ele>
        <time>2010-01-01T07:55:51Z</time>
      </trkpt>
      <trkpt lat="50.93765" lon="6.63398">
        <ele>68</ele>
        <time>2010-01-01T07:55:55Z</time>
      </trkpt>
      <trkpt lat="50.93647" lon="6.61354">
        <ele>72</ele>
        <time>2010-01-01T08:04:33Z</time>
      </trkpt>
      <trkpt lat="50.9365" lon="6.61048">
        <ele>70</ele>
        <time>2010-01-01T08:05:50Z</time>
      </trkpt>
      <trkpt lat="50.93473" lon="6.57594">
        <ele>78</ele>
        <time>2010-01-01T08:20:24Z</time>
      </trkpt>
      <trkpt lat="50.93379" lon="6.57359">
        <ele>78</ele>
        <time>2010-01-01T08:21:35Z</time>
      </trkpt>
      <trkpt lat="50.93367" lon="6.5736">
        <ele>79</ele>
        <time>2010-01-01T08:21:40Z</time>
      </trkpt>
      <trkpt lat="50.93012" lon="6.57813">
        <ele>78</ele>
        <time>2010-01-01T08:24:42Z</time>
      </trkpt>
      <trkpt lat="50.92842" lon="6.57923">
        <ele>80</ele>
        <time>2010-01-01T08:25:55Z</time>
      </trkpt>
      <trkpt lat="50.92641" lon="6.57143">
        <ele>80</ele>
        <time>2010-01-01T08:29:28Z</time>
      </trkpt>
      <trkpt lat="50.92374" lon="6.56758">
        <ele>80</ele>
        <time>2010-01-01T08:31:52Z</time>
      </trkpt>
      <trkpt lat="50.92589" lon="6.56262">
        <ele>81</ele>
        <time>2010-01-01T08:34:24Z</time>
      </trkpt>
      <trkpt lat="50.92614" lon="6.56129">
        <ele>83</ele>
        <time>2010-01-01T08:34:59Z</time>
      </trkpt>
      <trkpt lat="50.92667" lon="6.55998">
        <ele>83</ele>
        <time>2010-01-01T08:35:38Z</time>
      </trkpt>
      <trkpt lat="50.92735" lon="6.55895">
        <ele>81</ele>
        <time>2010-01-01T08:36:16Z</time>
      </trkpt>
      <trkpt lat="50.92887" lon="6.5554">
        <ele>83</ele>
        <time>2010-01-01T08:38:04Z</time>
      </trkpt>
      <trkpt lat="50.92893" lon="6.55471">
        <ele>86</ele>
        <time>2010-01-01T08:38:22Z</time>
      </trkpt>
      <trkpt lat="50.93004" lon="6.55187">
        <ele>87</ele>
        <time>2010-01-01T08:39:46Z</time>
      </trkpt>
      <trkpt lat="50.93068" lon="6.55133">
        <ele>85</ele>
        <time>2010-01-01T08:40:15Z</time>
      </trkpt>
      <trkpt lat="50.93204" lon="6.5481">
        <ele>79</ele>
        <time>2010-01-01T08:41:53Z</time>
      </trkpt>
      <trkpt lat="50.93184" lon="6.54822">
        <ele>79</ele>
        <time>2010-01-01T08:42:02Z</time>
      </trkpt>
      <trkpt lat="50.9319" lon="6.54772">
        <ele>78</ele>
        <time>2010-01-01T08:42:14Z</time>
      </trkpt>
      <trkpt lat="50.9318" lon="6.54821">
        <ele>79</ele>
        <time>2010-01-01T08:42:27Z</time>
      </trkpt>
      <trkpt lat="50.93206" lon="6.54811">
        <ele>79</ele>
        <time>2010-01-01T08:42:38Z</time>
      </trkpt>
      <trkpt lat="50.9329" lon="6.54575">
        <ele>79</ele>
        <time>2010-01-01T08:43:46Z</time>
      </trkpt>
      <trkpt lat="50.93305" lon="6.54588">
        <ele>80</ele>
        <time>2010-01-01T08:43:53Z</time>
      </trkpt>
      <trkpt lat="50.93425" lon="6.56876">
        <ele>79</ele>
        <time>2010-01-01T08:53:32Z</time>
      </trkpt>
      <trkpt lat="50.93505" lon="6.56865">
        <ele>78</ele>
        <time>2010-01-01T08:54:05Z</time>
      </trkpt>
      <trkpt lat="50.93622" lon="6.56813">
        <ele>78</ele>
        <time>2010-01-01T08:54:53Z</time>
      </trkpt>
      <trkpt lat="50.93772" lon="6.56929">
        <ele>78</ele>
        <time>2010-01-01T08:56:00Z</time>
      </trkpt>
      <trkpt lat="50.93801" lon="6.56977">
        <ele>78</ele>
        <time>2010-01-01T08:56:17Z</time>
      </trkpt>
      <trkpt lat="50.93856" lon="6.57194">
        <ele>77</ele>
        <time>2010-01-01T08:57:16Z</time>
      </trkpt>
      <trkpt lat="50.94087" lon="6.57424">
        <ele>77</ele>
        <time>2010-01-01T08:59:05Z</time>
      </trkpt>
      <trkpt lat="50.94207" lon="6.57586">
        <ele>76</ele>
        <time>2010-01-01T09:00:08Z</time>
      </trkpt>
      <trkpt lat="50.9427" lon="6.57695">
        <ele>76</ele>
        <time>2010-01-01T09:00:46Z</time>
      </trkpt>
      <trkpt lat="50.94448" lon="6.58129">
        <ele>74</ele>
        <time>2010-01-01T09:02:56Z</time>
      </trkpt>
      <trkpt lat="50.94488" lon="6.5814">
        <ele>74</ele>
        <time>2010-01-01T09:03:12Z</time>
      </trkpt>
      <trkpt lat="50.94631" lon="6.58356">
        <ele>72</ele>
        <time>2010-01-01T09:04:31Z</time>
      </trkpt>
      <trkpt lat="50.94694" lon="6.58485">
        <ele>71</ele>
        <time>2010-01-01T09:05:13Z</time>
      </trkpt>
      <trkpt lat="50.94777" lon="6.5878">
        <ele>71</ele>
        <time>2010-01-01T09:06:34Z</time>
      </trkpt>
      <trkpt lat="50.94928" lon="6.5917">
        <ele>70</ele>
        <time>2010-01-01T09:08:30Z</time>
      </trkpt>
      <trkpt lat="50.94955" lon="6.5918">
        <ele>70</ele>
        <time>2010-01-01T09:08:41Z</time>
      </trkpt>
      <trkpt lat="50.95153" lon="6.59062">
        <ele>71</ele>
        <time>2010-01-01T09:10:05Z</time>
      </trkpt>
      <trkpt lat="50.9536" lon="6.59011">
        <ele>70</ele>
        <time>2010-01-01T09:11:29Z</time>
      </trkpt>
      <trkpt lat="50.95642" lon="6.59044">
        <ele>69</ele>
        <time>2010-01-01T09:13:22Z</time>
      </trkpt>
      <trkpt lat="50.95609" lon="6.59074">
        <ele>70</ele>
        <time>2010-01-01T09:13:38Z</time>
      </trkpt>
      <trkpt lat="50.95453" lon="6.59421">
        <ele>69</ele>
        <time>2010-01-01T09:15:25Z</time>
      </trkpt>
      <trkpt lat="50.95467" lon="6.59473">
        <ele>69</ele>
        <time>2010-01-01T09:15:39Z</time>
      </trkpt>
      <trkpt lat="50.95851" lon="6.59987">
        <ele>69</ele>
        <time>2010-01-01T09:19:00Z</time>
      </trkpt>
      <trkpt lat="50.96128" lon="6.60431">
        <ele>68</ele>
        <time>2010-01-01T09:21:38Z</time>
      </trkpt>
      <trkpt lat="50.9617" lon="6.60468">
        <ele>68</ele>
        <time>2010-01-01T09:21:57Z</time>
      </trkpt>
      <trkpt lat="50.96225" lon="6.60715">
        <ele>68</ele>
        <time>2010-01-01T09:23:03Z</time>
      </trkpt>
      <trkpt lat="50.96296" lon="6.60822">
        <ele>67</ele>
        <time>2010-01-01T09:23:42Z</time>
      </trkpt>
      <trkpt lat="50.96305" lon="6.60895">
        <ele>67</ele>
        <time>2010-01-01T09:24:01Z</time>
      </trkpt>
      <trkpt lat="50.96381" lon="6.61041">
        <ele>64</ele>
        <time>2010-01-01T09:24:49Z</time>
      </trkpt>
      <trkpt lat="50.96423" lon="6.61181">
        <ele>67</ele>
        <time>2010-01-01T09:25:28Z</time>
      </trkpt>
      <trkpt lat="50.96476" lon="6.61285">
        <ele>66</ele>
        <time>2010-01-01T09:26:02Z</time>
      </trkpt>
      <trkpt lat="50.96511" lon="6.61306">
        <ele>65</ele>
        <time>2010-01-01T09:26:16Z</time>
      </trkpt>
      <trkpt lat="50.96619" lon="6.61258">
        <ele>63</ele>
        <time>2010-01-01T09:27:02Z</time>
      </trkpt>
      <trkpt lat="50.96651" lon="6.61282">
        <ele>61</ele>
        <time>2010-01-01T09:27:16Z</time>
      </trkpt>
      <trkpt lat="50.9669" lon="6.61119">
        <ele>61</ele>
        <time>2010-01-01T09:27:59Z</time>
      </trkpt>
      <trkpt lat="50.96662" lon="6.61035">
        <ele>64</ele>
        <time>2010-01-01T09:28:23Z</time>
      </trkpt>
      <trkpt lat="50.96665" lon="6.60852">
        <ele>63</ele>
        <time>2010-01-01T09:29:09Z</time>
      </trkpt>
      <trkpt lat="50.96699" lon="6.60714">
        <ele>65</ele>
        <time>2010-01-01T09:29:47Z</time>
      </trkpt>
      <trkpt lat="50.96805" lon="6.6052">
        <ele>62</ele>
        <time>2010-01-01T09:30:52Z</time>
      </trkpt>
      <trkpt lat="50.96903" lon="6.60282">
        <ele>60</ele>
        <time>2010-01-01T09:32:03Z</time>
      </trkpt>
      <trkpt lat="50.97071" lon="6.60197">
        <ele>60</ele>
        <time>2010-01-01T09:33:14Z</time>
      </trkpt>
      <trkpt lat="50.97199" lon="6.59991">
        <ele>60</ele>
        <time>2010-01-01T09:34:27Z</time>
      </trkpt>
      <trkpt lat="50.97284" lon="6.5993">
        <ele>59</ele>
        <time>2010-01-01T09:35:04Z</time>
      </trkpt>
      <trkpt lat="50.97327" lon="6.59864">
        <ele>60</ele>
        <time>2010-01-01T09:35:28Z</time>
      </trkpt>
      <trkpt lat="50.97476" lon="6.59395">
        <ele>61</ele>
        <time>2010-01-01T09:37:41Z</time>
      </trkpt>
      <trkpt lat="50.97526" lon="6.59323">
        <ele>61</ele>
        <time>2010-01-01T09:38:08Z</time>
      </trkpt>
      <trkpt lat="50.97595" lon="6.59277">
        <ele>61</ele>
        <time>2010-01-01T09:38:37Z</time>
      </trkpt>
      <trkpt lat="50.97643" lon="6.59189">
        <ele>60</ele>
        <time>2010-01-01T09:39:07Z</time>
      </trkpt>
      <trkpt lat="50.97662" lon="6.58936">
        <ele>60</ele>
        <time>2010-01-01T09:40:11Z</time>
      </trkpt>
      <trkpt lat="50.97743" lon="6.58698">
        <ele>61</ele>
        <time>2010-01-01T09:41:19Z</time>
      </trkpt>
      <trkpt lat="50.97956" lon="6.58506">
        <ele>59</ele>
        <time>2010-01-01T09:42:57Z</time>
      </trkpt>
      <trkpt lat="50.98" lon="6.58432">
        <ele>59</ele>
        <time>2010-01-01T09:43:23Z</time>
      </trkpt>
      <trkpt lat="50.98095" lon="6.5811">
        <ele>58</ele>
        <time>2010-01-01T09:44:52Z</time>
      </trkpt>
      <trkpt lat="50.98157" lon="6.57991">
        <ele>58</ele>
        <time>2010-01-01T09:45:31Z</time>
      </trkpt>
      <trkpt lat="50.9828" lon="6.57903">
        <ele>58</ele>
        <time>2010-01-01T09:46:25Z</time>
      </trkpt>
      <trkpt lat="50.98291" lon="6.57967">
        <ele>59</ele>
        <time>2010-01-01T09:46:42Z</time>
      </trkpt>
      <trkpt lat="50.98372" lon="6.57976">
        <ele>59</ele>
        <time>2010-01-01T09:47:14Z</time>
      </trkpt>
      <trkpt lat="50.98484" lon="6.57911">
        <ele>60</ele>
        <time>2010-01-01T09:48:02Z</time>
      </trkpt>
      <trkpt lat="50.98564" lon="6.5781">
        <ele>59</ele>
        <time>2010-01-01T09:48:43Z</time>
      </trkpt>
      <trkpt lat="50.98717" lon="6.58399">
        <ele>60</ele>
        <time>2010-01-01T09:51:24Z</time>
      </trkpt>
      <trkpt lat="50.98827" lon="6.58418">
        <ele>59</ele>
        <time>2010-01-01T09:52:08Z</time>
      </trkpt>
      <trkpt lat="50.98838" lon="6.58449">
        <ele>59</ele>
        <time>2010-01-01T09:52:17Z</time>
      </trkpt>
      <trkpt lat="50.98886" lon="6.58446">
        <ele>60</ele>
        <time>2010-01-01T09:52:36Z</time>
      </trkpt>
      <trkpt lat="50.99003" lon="6.58516">
        <ele>61</ele>
        <time>2010-01-01T09:53:26Z</time>
      </trkpt>
      <trkpt lat="50.99073" lon="6.58488">
        <ele>63</ele>
        <time>2010-01-01T09:53:55Z</time>
      </trkpt>
      <trkpt lat="50.99157" lon="6.58401">
        <ele>64</ele>
        <time>2010-01-01T09:54:35Z</time>
      </trkpt>
      <trkpt lat="50.99349" lon="6.58374">
        <ele>62</ele>
        <time>2010-01-01T09:55:52Z</time>
      </trkpt>
      <trkpt lat="50.99412" lon="6.58254">
        <ele>62</ele>
        <time>2010-01-01T09:56:32Z</time>
      </trkpt>
      <trkpt lat="50.99557" lon="6.58073">
        <ele>60</ele>
        <time>2010-01-01T09:57:45Z</time>
      </trkpt>
      <trkpt lat="50.99528" lon="6.57765">
        <ele>61</ele>
        <time>2010-01-01T09:59:04Z</time>
      </trkpt>
      <trkpt lat="50.99573" lon="6.57693">
        <ele>61</ele>
        <time>2010-01-01T09:59:30Z</time>
      </trkpt>
      <trkpt lat="50.99605" lon="6.57685">
        <ele>61</ele>
        <time>2010-01-01T09:59:42Z</time>
      </trkpt>
      <trkpt lat="50.99632" lon="6.57579">
        <ele>60</ele>
        <time>2010-01-01T10:00:11Z</time>
      </trkpt>
      <trkpt lat="50.99699" lon="6.57608">
        <ele>60</ele>
        <time>2010-01-01T10:00:39Z</time>
      </trkpt>
      <trkpt lat="50.9972" lon="6.5768">
        <ele>62</ele>
        <time>2010-01-01T10:00:59Z</time>
      </trkpt>
      <trkpt lat="50.99741" lon="6.5766">
        <ele>62</ele>
        <time>2010-01-01T10:01:09Z</time>
      </trkpt>
      <trkpt lat="50.99725" lon="6.57657">
        <ele>62</ele>
        <time>2010-01-01T10:01:16Z</time>
      </trkpt>
      <trkpt lat="50.99725" lon="6.57657">
        <ele>62</ele>
        <time>2010-01-01T10:01:16Z</time>
      </trkpt>
      <trkpt lat="50.99724" lon="6.57655">
        <ele>61</ele>
        <time>2010-01-01T10:01:17Z</time>
      </trkpt>
      <trkpt lat="50.99715" lon="6.5768">
        <ele>61</ele>
        <time>2010-01-01T10:01:24Z</time>
      </trkpt>
      <trkpt lat="50.99735" lon="6.57834">
        <ele>60</ele>
        <time>2010-01-01T10:02:03Z</time>
      </trkpt>
      <trkpt lat="50.99721" lon="6.5793">
        <ele>60</ele>
        <time>2010-01-01T10:02:28Z</time>
      </trkpt>
      <trkpt lat="50.99754" lon="6.5816">
        <ele>63</ele>
        <time>2010-01-01T10:03:28Z</time>
      </trkpt>
      <trkpt lat="50.9994" lon="6.5814">
        <ele>61</ele>
        <time>2010-01-01T10:04:42Z</time>
      </trkpt>
      <trkpt lat="50.99965" lon="6.581">
        <ele>60</ele>
        <time>2010-01-01T10:04:57Z</time>
      </trkpt>
      <trkpt lat="50.99978" lon="6.57897">
        <ele>58</ele>
        <time>2010-01-01T10:05:48Z</time>
      </trkpt>
      <trkpt lat="51.0002" lon="6.57782">
        <ele>58</ele>
        <time>2010-01-01T10:06:21Z</time>
      </trkpt>
      <trkpt lat="51.00358" lon="6.57313">
        <ele>57</ele>
        <time>2010-01-01T10:09:21Z</time>
      </trkpt>
      <trkpt lat="51.00413" lon="6.57388">
        <ele>57</ele>
        <time>2010-01-01T10:09:50Z</time>
      </trkpt>
      <trkpt lat="51.0053" lon="6.57638">
        <ele>59</ele>
        <time>2010-01-01T10:11:09Z</time>
      </trkpt>
      <trkpt lat="51.00687" lon="6.57913">
        <ele>57</ele>
        <time>2010-01-01T10:12:42Z</time>
      </trkpt>
      <trkpt lat="51.0076" lon="6.5797">
        <ele>57</ele>
        <time>2010-01-01T10:13:14Z</time>
      </trkpt>
      <trkpt lat="51.0081" lon="6.58064">
        <ele>58</ele>
        <time>2010-01-01T10:13:46Z</time>
      </trkpt>
      <trkpt lat="51.00937" lon="6.5818">
        <ele>58</ele>
        <time>2010-01-01T10:14:44Z</time>
      </trkpt>
      <trkpt lat="51.01092" lon="6.58281">
        <ele>57</ele>
        <time>2010-01-01T10:15:51Z</time>
      </trkpt>
      <trkpt lat="51.01219" lon="6.58337">
        <ele>57</ele>
        <time>2010-01-01T10:16:44Z</time>
      </trkpt>
      <trkpt lat="51.01357" lon="6.58366">
        <ele>57</ele>
        <time>2010-01-01T10:17:40Z</time>
      </trkpt>
      <trkpt lat="51.01706" lon="6.58356">
        <ele>56</ele>
        <time>2010-01-01T10:20:00Z</time>
      </trkpt>
      <trkpt lat="51.01869" lon="6.58472">
        <ele>58</ele>
        <time>2010-01-01T10:21:11Z</time>
      </trkpt>
      <trkpt lat="51.01921" lon="6.58489">
        <ele>58</ele>
        <time>2010-01-01T10:21:32Z</time>
      </trkpt>
      <trkpt lat="51.01964" lon="6.58467">
        <ele>60</ele>
        <time>2010-01-01T10:21:50Z</time>
      </trkpt>
      <trkpt lat="51.02005" lon="6.58406">
        <ele>59</ele>
        <time>2010-01-01T10:22:13Z</time>
      </trkpt>
      <trkpt lat="51.02062" lon="6.5838">
        <ele>58</ele>
        <time>2010-01-01T10:22:37Z</time>
      </trkpt>
      <trkpt lat="51.02279" lon="6.58454">
        <ele>57</ele>
        <time>2010-01-01T10:24:05Z</time>
      </trkpt>
      <trkpt lat="51.02344" lon="6.58456">
        <ele>56</ele>
        <time>2010-01-01T10:24:31Z</time>
      </trkpt>
      <trkpt lat="51.02399" lon="6.58408">
        <ele>54</ele>
        <time>2010-01-01T10:24:57Z</time>
      </trkpt>
      <trkpt lat="51.02461" lon="6.58415">
        <ele>55</ele>
        <time>2010-01-01T10:25:22Z</time>
      </trkpt>
      <trkpt lat="51.02628" lon="6.58255">
        <ele>55</ele>
        <time>2010-01-01T10:26:39Z</time>
      </trkpt>
      <trkpt lat="51.02875" lon="6.57763">
        <ele>58</ele>
        <time>2010-01-01T10:29:18Z</time>
      </trkpt>
      <trkpt lat="51.03093" lon="6.57499">
        <ele>56</ele>
        <time>2010-01-01T10:31:08Z</time>
      </trkpt>
      <trkpt lat="51.03219" lon="6.57384">
        <ele>58</ele>
        <time>2010-01-01T10:32:06Z</time>
      </trkpt>
      <trkpt lat="51.03407" lon="6.57003">
        <ele>58</ele>
        <time>2010-01-01T10:34:08Z</time>
      </trkpt>
      <trkpt lat="51.03585" lon="6.56858">
        <ele>57</ele>
        <time>2010-01-01T10:35:28Z</time>
      </trkpt>
      <trkpt lat="51.03703" lon="6.56805">
        <ele>56</ele>
        <time>2010-01-01T10:36:17Z</time>
      </trkpt>
      <trkpt lat="51.03916" lon="6.56758">
        <ele>56</ele>
        <time>2010-01-01T10:37:43Z</time>
      </trkpt>
      <trkpt lat="51.03963" lon="6.56765">
        <ele>57</ele>
        <time>2010-01-01T10:38:02Z</time>
      </trkpt>
      <trkpt lat="51.04009" lon="6.56743">
        <ele>56</ele>
        <time>2010-01-01T10:38:21Z</time>
      </trkpt>
      <trkpt lat="51.04323" lon="6.56742">
        <ele>58</ele>
        <time>2010-01-01T10:40:27Z</time>
      </trkpt>
      <trkpt lat="51.04475" lon="6.56811">
        <ele>56</ele>
        <time>2010-01-01T10:41:30Z</time>
      </trkpt>
      <trkpt lat="51.0455" lon="6.56874">
        <ele>55</ele>
        <time>2010-01-01T10:42:04Z</time>
      </trkpt>
      <trkpt lat="51.04597" lon="6.56941">
        <ele>54</ele>
        <time>2010-01-01T10:42:29Z</time>
      </trkpt>
      <trkpt lat="51.04568" lon="6.57055">
        <ele>56</ele>
        <time>2010-01-01T10:43:00Z</time>
      </trkpt>
      <trkpt lat="51.04589" lon="6.5708">
        <ele>56</ele>
        <time>2010-01-01T10:43:10Z</time>
      </trkpt>
      <trkpt lat="51.04704" lon="6.57142">
        <ele>55</ele>
        <time>2010-01-01T10:43:59Z</time>
      </trkpt>
      <trkpt lat="51.05036" lon="6.57218">
        <ele>56</ele>
        <time>2010-01-01T10:46:13Z</time>
      </trkpt>
      <trkpt lat="51.05074" lon="6.57208">
        <ele>57</ele>
        <time>2010-01-01T10:46:29Z</time>
      </trkpt>
      <trkpt lat="51.05085" lon="6.57175">
        <ele>57</ele>
        <time>2010-01-01T10:46:38Z</time>
      </trkpt>
      <trkpt lat="51.05117" lon="6.56988">
        <ele>55</ele>
        <time>2010-01-01T10:47:27Z</time>
      </trkpt>
      <trkpt lat="51.05206" lon="6.56956">
        <ele>56</ele>
        <time>2010-01-01T10:48:04Z</time>
      </trkpt>
      <trkpt lat="51.0524" lon="6.5689">
        <ele>56</ele>
        <time>2010-01-01T10:48:25Z</time>
      </trkpt>
      <trkpt lat="51.05273" lon="6.56867">
        <ele>56</ele>
        <time>2010-01-01T10:48:40Z</time>
      </trkpt>
      <trkpt lat="51.05789" lon="6.5714">
        <ele>52</ele>
        <time>2010-01-01T10:52:17Z</time>
      </trkpt>
      <trkpt lat="51.05932" lon="6.57192">
        <ele>54</ele>
        <time>2010-01-01T10:53:16Z</time>
      </trkpt>
      <trkpt lat="51.05974" lon="6.57174">
        <ele>54</ele>
        <time>2010-01-01T10:53:33Z</time>
      </trkpt>
      <trkpt lat="51.06071" lon="6.57041">
        <ele>54</ele>
        <time>2010-01-01T10:54:25Z</time>
      </trkpt>
      <trkpt lat="51.0609" lon="6.57038">
        <ele>54</ele>
        <time>2010-01-01T10:54:32Z</time>
      </trkpt>
      <trkpt lat="51.0646" lon="6.57281">
        <ele>52</ele>
        <time>2010-01-01T10:57:12Z</time>
      </trkpt>
      <trkpt lat="51.06457" lon="6.57143">
        <ele>54</ele>
        <time>2010-01-01T10:57:47Z</time>
      </trkpt>
      <trkpt lat="51.06666" lon="6.57053">
        <ele>55</ele>
        <time>2010-01-01T10:59:14Z</time>
      </trkpt>
      <trkpt lat="51.06915" lon="6.57087">
        <ele>55</ele>
        <time>2010-01-01T11:00:54Z</time>
      </trkpt>
      <trkpt lat="51.07004" lon="6.57078">
        <ele>54</ele>
        <time>2010-01-01T11:01:30Z</time>
      </trkpt>
      <trkpt lat="51.07092" lon="6.57125">
        <ele>53</ele>
        <time>2010-01-01T11:02:07Z</time>
      </trkpt>
      <trkpt lat="51.07078" lon="6.57243">
        <ele>53</ele>
        <time>2010-01-01T11:02:37Z</time>
      </trkpt>
      <trkpt lat="51.07167" lon="6.57477">
        <ele>57</ele>
        <time>2010-01-01T11:03:46Z</time>
      </trkpt>
      <trkpt lat="51.0724" lon="6.57952">
        <ele>57</ele>
        <time>2010-01-01T11:05:49Z</time>
      </trkpt>
      <trkpt lat="51.07288" lon="6.58059">
        <ele>57</ele>
        <time>2010-01-01T11:06:22Z</time>
      </trkpt>
      <trkpt lat="51.07268" lon="6.58279">
        <ele>56</ele>
        <time>2010-01-01T11:07:18Z</time>
      </trkpt>
      <trkpt lat="51.07202" lon="6.58517">
        <ele>54</ele>
        <time>2010-01-01T11:08:23Z</time>
      </trkpt>
      <trkpt lat="51.07248" lon="6.58569">
        <ele>58</ele>
        <time>2010-01-01T11:08:46Z</time>
      </trkpt>
      <trkpt lat="51.0741" lon="6.58677">
        <ele>58</ele>
        <time>2010-01-01T11:09:56Z</time>
      </trkpt>
      <trkpt lat="51.0745" lon="6.58816">
        <ele>55</ele>
        <time>2010-01-01T11:10:35Z</time>
      </trkpt>
      <trkpt lat="51.0753" lon="6.58892">
        <ele>56</ele>
        <time>2010-01-01T11:11:12Z</time>
      </trkpt>
      <trkpt lat="51.07568" lon="6.58911">
        <ele>57</ele>
        <time>2010-01-01T11:11:28Z</time>
      </trkpt>
      <trkpt lat="51.07642" lon="6.58904">
        <ele>56</ele>
        <time>2010-01-01T11:11:58Z</time>
      </trkpt>
      <trkpt lat="51.07703" lon="6.58937">
        <ele>55</ele>
        <time>2010-01-01T11:12:24Z</time>
      </trkpt>
      <trkpt lat="51.0778" lon="6.59096">
        <ele>56</ele>
        <time>2010-01-01T11:13:14Z</time>
      </trkpt>
      <trkpt lat="51.07867" lon="6.59167">
        <ele>56</ele>
        <time>2010-01-01T11:13:53Z</time>
      </trkpt>
      <trkpt lat="51.07956" lon="6.59226">
        <ele>57</ele>
        <time>2010-01-01T11:14:32Z</time>
      </trkpt>
      <trkpt lat="51.07988" lon="6.59223">
        <ele>57</ele>
        <time>2010-01-01T11:14:45Z</time>
      </trkpt>
      <trkpt lat="51.08121" lon="6.59171">
        <ele>55</ele>
        <time>2010-01-01T11:15:40Z</time>
      </trkpt>
      <trkpt lat="51.08208" lon="6.59107">
        <ele>54</ele>
        <time>2010-01-01T11:16:18Z</time>
      </trkpt>
      <trkpt lat="51.08354" lon="6.59104">
        <ele>52</ele>
        <time>2010-01-01T11:17:16Z</time>
      </trkpt>
      <trkpt lat="51.08335" lon="6.59064">
        <ele>52</ele>
        <time>2010-01-01T11:17:29Z</time>
      </trkpt>
      <trkpt lat="51.08437" lon="6.58746">
        <ele>53</ele>
        <time>2010-01-01T11:18:59Z</time>
      </trkpt>
      <trkpt lat="51.08504" lon="6.5864">
        <ele>52</ele>
        <time>2010-01-01T11:19:37Z</time>
      </trkpt>
      <trkpt lat="51.08533" lon="6.58647">
        <ele>52</ele>
        <time>2010-01-01T11:19:48Z</time>
      </trkpt>
      <trkpt lat="51.08646" lon="6.58506">
        <ele>52</ele>
        <time>2010-01-01T11:20:46Z</time>
      </trkpt>
      <trkpt lat="51.08691" lon="6.58585">
        <ele>53</ele>
        <time>2010-01-01T11:21:13Z</time>
      </trkpt>
      <trkpt lat="51.08769" lon="6.58602">
        <ele>53</ele>
        <time>2010-01-01T11:21:44Z</time>
      </trkpt>
      <trkpt lat="51.08821" lon="6.58704">
        <ele>53</ele>
        <time>2010-01-01T11:22:17Z</time>
      </trkpt>
      <trkpt lat="51.08818" lon="6.58744">
        <ele>53</ele>
        <time>2010-01-01T11:22:27Z</time>
      </trkpt>
      <trkpt lat="51.09007" lon="6.58763">
        <ele>54</ele>
        <time>2010-01-01T11:23:43Z</time>
      </trkpt>
      <trkpt lat="51.09074" lon="6.58669">
        <ele>53</ele>
        <time>2010-01-01T11:24:19Z</time>
      </trkpt>
      <trkpt lat="51.0912" lon="6.58743">
        <ele>55</ele>
        <time>2010-01-01T11:24:45Z</time>
      </trkpt>
      <trkpt lat="51.09124" lon="6.58862">
        <ele>55</ele>
        <time>2010-01-01T11:25:15Z</time>
      </trkpt>
      <trkpt lat="51.09176" lon="6.58911">
        <ele>54</ele>
        <time>2010-01-01T11:25:39Z</time>
      </trkpt>
      <trkpt lat="51.0923" lon="6.58891">
        <ele>53</ele>
        <time>2010-01-01T11:26:02Z</time>
      </trkpt>
      <trkpt lat="51.09284" lon="6.58822">
        <ele>53</ele>
        <time>2010-01-01T11:26:29Z</time>
      </trkpt>
      <trkpt lat="51.09346" lon="6.58878">
        <ele>52</ele>
        <time>2010-01-01T11:26:58Z</time>
      </trkpt>
      <trkpt lat="51.09388" lon="6.58812">
        <ele>52</ele>
        <time>2010-01-01T11:27:21Z</time>
      </trkpt>
      <trkpt lat="51.09552" lon="6.58885">
        <ele>53</ele>
        <time>2010-01-01T11:28:29Z</time>
      </trkpt>
      <trkpt lat="51.09576" lon="6.58969">
        <ele>53</ele>
        <time>2010-01-01T11:28:52Z</time>
      </trkpt>
      <trkpt lat="51.09644" lon="6.59049">
        <ele>52</ele>
        <time>2010-01-01T11:29:26Z</time>
      </trkpt>
      <trkpt lat="51.09683" lon="6.59207">
        <ele>54</ele>
        <time>2010-01-01T11:30:09Z</time>
      </trkpt>
      <trkpt lat="51.09696" lon="6.59368">
        <ele>57</ele>
        <time>2010-01-01T11:30:50Z</time>
      </trkpt>
      <trkpt lat="51.09774" lon="6.59475">
        <ele>55</ele>
        <time>2010-01-01T11:31:31Z</time>
      </trkpt>
      <trkpt lat="51.09805" lon="6.59558">
        <ele>55</ele>
        <time>2010-01-01T11:31:55Z</time>
      </trkpt>
      <trkpt lat="51.09799" lon="6.59811">
        <ele>52</ele>
        <time>2010-01-01T11:32:59Z</time>
      </trkpt>
      <trkpt lat="51.09761" lon="6.59926">
        <ele>53</ele>
        <time>2010-01-01T11:33:32Z</time>
      </trkpt>
      <trkpt lat="51.0986" lon="6.60086">
        <ele>57</ele>
        <time>2010-01-01T11:34:28Z</time>
      </trkpt>
      <trkpt lat="51.09926" lon="6.60276">
        <ele>53</ele>
        <time>2010-01-01T11:35:23Z</time>
      </trkpt>
      <trkpt lat="51.09924" lon="6.60334">
        <ele>53</ele>
        <time>2010-01-01T11:35:38Z</time>
      </trkpt>
      <trkpt lat="51.09839" lon="6.60409">
        <ele>55</ele>
        <time>2010-01-01T11:36:16Z</time>
      </trkpt>
      <trkpt lat="51.09843" lon="6.60441">
        <ele>56</ele>
        <time>2010-01-01T11:36:25Z</time>
      </trkpt>
      <trkpt lat="51.09918" lon="6.60497">
        <ele>55</ele>
        <time>2010-01-01T11:36:58Z</time>
      </trkpt>
      <trkpt lat="51.10018" lon="6.60796">
        <ele>49</ele>
        <time>2010-01-01T11:38:23Z</time>
      </trkpt>
      <trkpt lat="51.10046" lon="6.60846">
        <ele>49</ele>
        <time>2010-01-01T11:38:40Z</time>
      </trkpt>
      <trkpt lat="51.10142" lon="6.60931">
        <ele>51</ele>
        <time>2010-01-01T11:39:24Z</time>
      </trkpt>
      <trkpt lat="51.10236" lon="6.60768">
        <ele>54</ele>
        <time>2010-01-01T11:40:20Z</time>
      </trkpt>
      <trkpt lat="51.10307" lon="6.60795">
        <ele>53</ele>
        <time>2010-01-01T11:40:49Z</time>
      </trkpt>
      <trkpt lat="51.10504" lon="6.60977">
        <ele>50</ele>
        <time>2010-01-01T11:42:20Z</time>
      </trkpt>
      <trkpt lat="51.10576" lon="6.60983">
        <ele>48</ele>
        <time>2010-01-01T11:42:48Z</time>
      </trkpt>
      <trkpt lat="51.10567" lon="6.61223">
        <ele>50</ele>
        <time>2010-01-01T11:43:49Z</time>
      </trkpt>
      <trkpt lat="51.10761" lon="6.61289">
        <ele>47</ele>
        <time>2010-01-01T11:45:08Z</time>
      </trkpt>
      <trkpt lat="51.10898" lon="6.61542">
        <ele>49</ele>
        <time>2010-01-01T11:46:32Z</time>
      </trkpt>
      <trkpt lat="51.10984" lon="6.61662">
        <ele>49</ele>
        <time>2010-01-01T11:47:18Z</time>
      </trkpt>
      <trkpt lat="51.1116" lon="6.62017">
        <ele>47</ele>
        <time>2010-01-01T11:49:12Z</time>
      </trkpt>
      <trkpt lat="51.11235" lon="6.61988">
        <ele>47</ele>
        <time>2010-01-01T11:49:43Z</time>
      </trkpt>
      <trkpt lat="51.11369" lon="6.62271">
        <ele>47</ele>
        <time>2010-01-01T11:51:12Z</time>
      </trkpt>
      <trkpt lat="51.11547" lon="6.62505">
        <ele>48</ele>
        <time>2010-01-01T11:52:44Z</time>
      </trkpt>
      <trkpt lat="51.11582" lon="6.6249">
        <ele>49</ele>
        <time>2010-01-01T11:52:59Z</time>
      </trkpt>
      <trkpt lat="51.1177" lon="6.62589">
        <ele>49</ele>
        <time>2010-01-01T11:54:18Z</time>
      </trkpt>
      <trkpt lat="51.11793" lon="6.6271">
        <ele>47</ele>
        <time>2010-01-01T11:54:50Z</time>
      </trkpt>
      <trkpt lat="51.11756" lon="6.62823">
        <ele>46</ele>
        <time>2010-01-01T11:55:22Z</time>
      </trkpt>
      <trkpt lat="51.11859" lon="6.63157">
        <ele>49</ele>
        <time>2010-01-01T11:56:55Z</time>
      </trkpt>
      <trkpt lat="51.1192" lon="6.63291">
        <ele>49</ele>
        <time>2010-01-01T11:57:37Z</time>
      </trkpt>
      <trkpt lat="51.12052" lon="6.63403">
        <ele>46</ele>
        <time>2010-01-01T11:58:36Z</time>
      </trkpt>
      <trkpt lat="51.12315" lon="6.63486">
        <ele>47</ele>
        <time>2010-01-01T12:00:24Z</time>
      </trkpt>
      <trkpt lat="51.12494" lon="6.6352">
        <ele>50</ele>
        <time>2010-01-01T12:01:36Z</time>
      </trkpt>
      <trkpt lat="51.12674" lon="6.63502">
        <ele>48</ele>
        <time>2010-01-01T12:02:48Z</time>
      </trkpt>
      <trkpt lat="51.12962" lon="6.63189">
        <ele>49</ele>
        <time>2010-01-01T12:05:08Z</time>
      </trkpt>
      <trkpt lat="51.13006" lon="6.63344">
        <ele>50</ele>
        <time>2010-01-01T12:05:51Z</time>
      </trkpt>
      <trkpt lat="51.13082" lon="6.63422">
        <ele>49</ele>
        <time>2010-01-01T12:06:27Z</time>
      </trkpt>
      <trkpt lat="51.13135" lon="6.63443">
        <ele>49</ele>
        <time>2010-01-01T12:06:49Z</time>
      </trkpt>
      <trkpt lat="51.13253" lon="6.63363">
        <ele>54</ele>
        <time>2010-01-01T12:07:40Z</time>
      </trkpt>
      <trkpt lat="51.13293" lon="6.63372">
        <ele>54</ele>
        <time>2010-01-01T12:07:56Z</time>
      </trkpt>
      <trkpt lat="51.13375" lon="6.63849">
        <ele>50</ele>
        <time>2010-01-01T12:10:00Z</time>
      </trkpt>
      <trkpt lat="51.13576" lon="6.64433">
        <ele>48</ele>
        <time>2010-01-01T12:12:48Z</time>
      </trkpt>
      <trkpt lat="51.1387" lon="6.648">
        <ele>47</ele>
        <time>2010-01-01T12:15:17Z</time>
      </trkpt>
      <trkpt lat="51.13816" lon="6.64902">
        <ele>47</ele>
        <time>2010-01-01T12:15:51Z</time>
      </trkpt>
      <trkpt lat="51.13744" lon="6.64922">
        <ele>47</ele>
        <time>2010-01-01T12:16:20Z</time>
      </trkpt>
      <trkpt lat="51.13683" lon="6.65018">
        <ele>46</ele>
        <time>2010-01-01T12:16:54Z</time>
      </trkpt>
      <trkpt lat="51.13481" lon="6.65475">
        <ele>44</ele>
        <time>2010-01-01T12:19:15Z</time>
      </trkpt>
      <trkpt lat="51.13291" lon="6.65761">
        <ele>45</ele>
        <time>2010-01-01T12:20:59Z</time>
      </trkpt>
      <trkpt lat="51.13303" lon="6.65871">
        <ele>46</ele>
        <time>2010-01-01T12:21:27Z</time>
      </trkpt>
      <trkpt lat="51.13366" lon="6.65972">
        <ele>45</ele>
        <time>2010-01-01T12:22:03Z</time>
      </trkpt>
      <trkpt lat="51.13442" lon="6.66186">
        <ele>43</ele>
        <time>2010-01-01T12:23:05Z</time>
      </trkpt>
      <trkpt lat="51.13559" lon="6.66717">
        <ele>44</ele>
        <time>2010-01-01T12:25:26Z</time>
      </trkpt>
      <trkpt lat="51.13563" lon="6.66689">
        <ele>45</ele>
        <time>2010-01-01T12:25:34Z</time>
      </trkpt>
      <trkpt lat="51.14013" lon="6.66521">
        <ele>48</ele>
        <time>2010-01-01T12:28:39Z</time>
      </trkpt>
      <trkpt lat="51.14161" lon="6.66569">
        <ele>43</ele>
        <time>2010-01-01T12:29:39Z</time>
      </trkpt>
      <trkpt lat="51.14211" lon="6.66637">
        <ele>45</ele>
        <time>2010-01-01T12:30:06Z</time>
      </trkpt>
      <trkpt lat="51.14325" lon="6.66877">
        <ele>46</ele>
        <time>2010-01-01T12:31:21Z</time>
      </trkpt>
      <trkpt lat="51.14484" lon="6.66686">
        <ele>44</ele>
        <time>2010-01-01T12:32:41Z</time>
      </trkpt>
      <trkpt lat="51.14503" lon="6.66693">
        <ele>44</ele>
        <time>2010-01-01T12:32:49Z</time>
      </trkpt>
      <trkpt lat="51.14574" lon="6.67054">
        <ele>43</ele>
        <time>2010-01-01T12:34:24Z</time>
      </trkpt>
      <trkpt lat="51.14697" lon="6.67239">
        <ele>43</ele>
        <time>2010-01-01T12:35:31Z</time>
      </trkpt>
      <trkpt lat="51.14986" lon="6.67473">
        <ele>45</ele>
        <time>2010-01-01T12:37:41Z</time>
      </trkpt>
      <trkpt lat="51.15129" lon="6.67701">
        <ele>43</ele>
        <time>2010-01-01T12:39:02Z</time>
      </trkpt>
      <trkpt lat="51.15217" lon="6.67912">
        <ele>44</ele>
        <time>2010-01-01T12:40:06Z</time>
      </trkpt>
      <trkpt lat="51.15244" lon="6.67938">
        <ele>45</ele>
        <time>2010-01-01T12:40:18Z</time>
      </trkpt>
      <trkpt lat="51.15412" lon="6.67945">
        <ele>43</ele>
        <time>2010-01-01T12:41:25Z</time>
      </trkpt>
      <trkpt lat="51.15599" lon="6.68233">
        <ele>44</ele>
        <time>2010-01-01T12:43:10Z</time>
      </trkpt>
      <trkpt lat="51.15644" lon="6.68353">
        <ele>39</ele>
        <time>2010-01-01T12:43:45Z</time>
      </trkpt>
      <trkpt lat="51.15718" lon="6.68477">
        <ele>41</ele>
        <time>2010-01-01T12:44:28Z</time>
      </trkpt>
      <trkpt lat="51.15808" lon="6.68602">
        <ele>41</ele>
        <time>2010-01-01T12:45:16Z</time>
      </trkpt>
      <trkpt lat="51.15804" lon="6.68651">
        <ele>42</ele>
        <time>2010-01-01T12:45:28Z</time>
      </trkpt>
      <trkpt lat="51.15918" lon="6.68774">
        <ele>41</ele>
        <time>2010-01-01T12:46:23Z</time>
      </trkpt>
      <trkpt lat="51.16024" lon="6.68856">
        <ele>43</ele>
        <time>2010-01-01T12:47:10Z</time>
      </trkpt>
      <trkpt lat="51.16042" lon="6.68923">
        <ele>42</ele>
        <time>2010-01-01T12:47:29Z</time>
      </trkpt>
      <trkpt lat="51.16126" lon="6.69065">
        <ele>43</ele>
        <time>2010-01-01T12:48:18Z</time>
      </trkpt>
      <trkpt lat="51.16225" lon="6.68919">
        <ele>43</ele>
        <time>2010-01-01T12:49:12Z</time>
      </trkpt>
      <trkpt lat="51.16215" lon="6.6902">
        <ele>45</ele>
        <time>2010-01-01T12:49:37Z</time>
      </trkpt>
      <trkpt lat="51.16327" lon="6.69648">
        <ele>40</ele>
        <time>2010-01-01T12:52:21Z</time>
      </trkpt>
      <trkpt lat="51.16302" lon="6.69692">
        <ele>39</ele>
        <time>2010-01-01T12:52:36Z</time>
      </trkpt>
      <trkpt lat="51.16351" lon="6.69753">
        <ele>39</ele>
        <time>2010-01-01T12:53:01Z</time>
      </trkpt>
      <trkpt lat="51.16458" lon="6.69795">
        <ele>42</ele>
        <time>2010-01-01T12:53:45Z</time>
      </trkpt>
      <trkpt lat="51.16574" lon="6.701">
        <ele>37</ele>
        <time>2010-01-01T12:55:15Z</time>
      </trkpt>
      <trkpt lat="51.16576" lon="6.70289">
        <ele>39</ele>
        <time>2010-01-01T12:56:02Z</time>
      </trkpt>
      <trkpt lat="51.16641" lon="6.70468">
        <ele>38</ele>
        <time>2010-01-01T12:56:54Z</time>
      </trkpt>
      <trkpt lat="51.16706" lon="6.70559">
        <ele>38</ele>
        <time>2010-01-01T12:57:29Z</time>
      </trkpt>
      <trkpt lat="51.16805" lon="6.70448">
        <ele>40</ele>
        <time>2010-01-01T12:58:17Z</time>
      </trkpt>
      <trkpt lat="51.16855" lon="6.70554">
        <ele>40</ele>
        <time>2010-01-01T12:58:50Z</time>
      </trkpt>
      <trkpt lat="51.16957" lon="6.70576">
        <ele>41</ele>
        <time>2010-01-01T12:59:32Z</time>
      </trkpt>
      <trkpt lat="51.17014" lon="6.70619">
        <ele>40</ele>
        <time>2010-01-01T12:59:57Z</time>
      </trkpt>
      <trkpt lat="51.17055" lon="6.70762">
        <ele>40</ele>
        <time>2010-01-01T13:00:37Z</time>
      </trkpt>
      <trkpt lat="51.17078" lon="6.70954">
        <ele>37</ele>
        <time>2010-01-01T13:01:26Z</time>
      </trkpt>
      <trkpt lat="51.17028" lon="6.71143">
        <ele>38</ele>
        <time>2010-01-01T13:02:17Z</time>
      </trkpt>
      <trkpt lat="51.17029" lon="6.71228">
        <ele>39</ele>
        <time>2010-01-01T13:02:38Z</time>
      </trkpt>
      <trkpt lat="51.17147" lon="6.71395">
        <ele>41</ele>
        <time>2010-01-01T13:03:42Z</time>
      </trkpt>
      <trkpt lat="51.17201" lon="6.71607">
        <ele>38</ele>
        <time>2010-01-01T13:04:39Z</time>
      </trkpt>
      <trkpt lat="51.17231" lon="6.71641">
        <ele>40</ele>
        <time>2010-01-01T13:04:54Z</time>
      </trkpt>
      <trkpt lat="51.1738" lon="6.71722">
        <ele>42</ele>
        <time>2010-01-01T13:05:57Z</time>
      </trkpt>
      <trkpt lat="51.17386" lon="6.71837">
        <ele>42</ele>
        <time>2010-01-01T13:06:26Z</time>
      </trkpt>
      <trkpt lat="51.1744" lon="6.71943">
        <ele>42</ele>
        <time>2010-01-01T13:07:00Z</time>
      </trkpt>
      <trkpt lat="51.17371" lon="6.72082">
        <ele>39</ele>
        <time>2010-01-01T13:07:44Z</time>
      </trkpt>
      <trkpt lat="51.17324" lon="6.72093">
        <ele>40</ele>
        <time>2010-01-01T13:08:04Z</time>
      </trkpt>
      <trkpt lat="51.17319" lon="6.72369">
        <ele>36</ele>
        <time>2010-01-01T13:09:13Z</time>
      </trkpt>
      <trkpt lat="51.17339" lon="6.7245">
        <ele>36</ele>
        <time>2010-01-01T13:09:34Z</time>
      </trkpt>
      <trkpt lat="51.17438" lon="6.72648">
        <ele>38</ele>
        <time>2010-01-01T13:10:38Z</time>
      </trkpt>
      <trkpt lat="51.17534" lon="6.72645">
        <ele>38</ele>
        <time>2010-01-01T13:11:16Z</time>
      </trkpt>
      <trkpt lat="51.17606" lon="6.7275">
        <ele>39</ele>
        <time>2010-01-01T13:11:56Z</time>
      </trkpt>
      <trkpt lat="51.17751" lon="6.73202">
        <ele>36</ele>
        <time>2010-01-01T13:14:03Z</time>
      </trkpt>
      <trkpt lat="51.17783" lon="6.73242">
        <ele>37</ele>
        <time>2010-01-01T13:14:19Z</time>
      </trkpt>
      <trkpt lat="51.17819" lon="6.73253">
        <ele>38</ele>
        <time>2010-01-01T13:14:34Z</time>
      </trkpt>
      <trkpt lat="51.17986" lon="6.73229">
        <ele>37</ele>
        <time>2010-01-01T13:15:41Z</time>
      </trkpt>
      <trkpt lat="51.18151" lon="6.73282">
        <ele>36</ele>
        <time>2010-01-01T13:16:48Z</time>
      </trkpt>
      <trkpt lat="51.18252" lon="6.73169">
        <ele>37</ele>
        <time>2010-01-01T13:17:38Z</time>
      </trkpt>
      <trkpt lat="51.18232" lon="6.73035">
        <ele>40</ele>
        <time>2010-01-01T13:18:12Z</time>
      </trkpt>
      <trkpt lat="51.18261" lon="6.73009">
        <ele>40</ele>
        <time>2010-01-01T13:18:25Z</time>
      </trkpt>
      <trkpt lat="51.18253" lon="6.73044">
        <ele>39</ele>
        <time>2010-01-01T13:18:34Z</time>
      </trkpt>
      <trkpt lat="51.1828" lon="6.73074">
        <ele>39</ele>
        <time>2010-01-01T13:18:47Z</time>
      </trkpt>
      <trkpt lat="51.18451" lon="6.73135">
        <ele>34</ele>
        <time>2010-01-01T13:19:57Z</time>
      </trkpt>
      <trkpt lat="51.18516" lon="6.73057">
        <ele>37</ele>
        <time>2010-01-01T13:20:30Z</time>
      </trkpt>
      <trkpt lat="51.18502" lon="6.73031">
        <ele>40</ele>
        <time>2010-01-01T13:20:39Z</time>
      </trkpt>
      <trkpt lat="51.18367" lon="6.72964">
        <ele>40</ele>
        <time>2010-01-01T13:21:35Z</time>
      </trkpt>
      <trkpt lat="51.18367" lon="6.72943">
        <ele>40</ele>
        <time>2010-01-01T13:21:40Z</time>
      </trkpt>
      <trkpt lat="51.18473" lon="6.72666">
        <ele>40</ele>
        <time>2010-01-01T13:23:02Z</time>
      </trkpt>
      <trkpt lat="51.18515" lon="6.72603">
        <ele>41</ele>
        <time>2010-01-01T13:23:25Z</time>
      </trkpt>
      <trkpt lat="51.18562" lon="6.72635">
        <ele>38</ele>
        <time>2010-01-01T13:23:46Z</time>
      </trkpt>
      <trkpt lat="51.18579" lon="6.72674">
        <ele>36</ele>
        <time>2010-01-01T13:23:57Z</time>
      </trkpt>
      <trkpt lat="51.18533" lon="6.7289">
        <ele>36</ele>
        <time>2010-01-01T13:24:55Z</time>
      </trkpt>
      <trkpt lat="51.18557" lon="6.72958">
        <ele>37</ele>
        <time>2010-01-01T13:25:14Z</time>
      </trkpt>
      <trkpt lat="51.18715" lon="6.72812">
        <ele>33</ele>
        <time>2010-01-01T13:26:27Z</time>
      </trkpt>
      <trkpt lat="51.18827" lon="6.72728">
        <ele>35</ele>
        <time>2010-01-01T13:27:17Z</time>
      </trkpt>
      <trkpt lat="51.18957" lon="6.72662">
        <ele>38</ele>
        <time>2010-01-01T13:28:11Z</time>
      </trkpt>
      <trkpt lat="51.19185" lon="6.72613">
        <ele>34</ele>
        <time>2010-01-01T13:29:43Z</time>
      </trkpt>
      <trkpt lat="51.19808" lon="6.72577">
        <ele>41</ele>
        <time>2010-01-01T13:33:53Z</time>
      </trkpt>
      <trkpt lat="51.19882" lon="6.72544">
        <ele>42</ele>
        <time>2010-01-01T13:34:24Z</time>
      </trkpt>
      <trkpt lat="51.19888" lon="6.72501">
        <ele>42</ele>
        <time>2010-01-01T13:34:35Z</time>
      </trkpt>
      <trkpt lat="51.19863" lon="6.73132">
        <ele>27</ele>
        <time>2010-01-01T13:37:13Z</time>
      </trkpt>
      <trkpt lat="51.19823" lon="6.737">
        <ele>39</ele>
        <time>2010-01-01T13:39:37Z</time>
      </trkpt>
      <trkpt lat="51.19821" lon="6.73653">
        <ele>37</ele>
        <time>2010-01-01T13:39:49Z</time>
      </trkpt>
      <trkpt lat="51.1984" lon="6.73643">
        <ele>36</ele>
        <time>2010-01-01T13:39:57Z</time>
      </trkpt>
      <trkpt lat="51.20122" lon="6.73581">
        <ele>37</ele>
        <time>2010-01-01T13:41:51Z</time>
      </trkpt>
      <trkpt lat="51.2028" lon="6.73462">
        <ele>34</ele>
        <time>2010-01-01T13:43:01Z</time>
      </trkpt>
      <trkpt lat="51.20314" lon="6.73471">
        <ele>36</ele>
        <time>2010-01-01T13:43:15Z</time>
      </trkpt>
      <trkpt lat="51.20376" lon="6.73569">
        <ele>39</ele>
        <time>2010-01-01T13:43:50Z</time>
      </trkpt>
      <trkpt lat="51.2046" lon="6.73628">
        <ele>37</ele>
        <time>2010-01-01T13:44:26Z</time>
      </trkpt>
      <trkpt lat="51.20829" lon="6.73316">
        <ele>32</ele>
        <time>2010-01-01T13:47:13Z</time>
      </trkpt>
      <trkpt lat="51.21444" lon="6.73007">
        <ele>30</ele>
        <time>2010-01-01T13:51:32Z</time>
      </trkpt>
      <trkpt lat="51.21546" lon="6.72974">
        <ele>32</ele>
        <time>2010-01-01T13:52:13Z</time>
      </trkpt>
      <trkpt lat="51.21856" lon="6.72916">
        <ele>32</ele>
        <time>2010-01-01T13:54:18Z</time>
      </trkpt>
      <trkpt lat="51.22125" lon="6.72917">
        <ele>35</ele>
        <time>2010-01-01T13:56:06Z</time>
      </trkpt>
      <trkpt lat="51.22174" lon="6.72934">
        <ele>39</ele>
        <time>2010-01-01T13:56:26Z</time>
      </trkpt>
      <trkpt lat="51.22297" lon="6.73067">
        <ele>37</ele>
        <time>2010-01-01T13:57:25Z</time>
      </trkpt>
      <trkpt lat="51.22365" lon="6.73268">
        <ele>39</ele>
        <time>2010-01-01T13:58:23Z</time>
      </trkpt>
      <trkpt lat="51.22383" lon="6.73529">
        <ele>35</ele>
        <time>2010-01-01T13:59:28Z</time>
      </trkpt>
      <trkpt lat="51.22288" lon="6.73848">
        <ele>37</ele>
        <time>2010-01-01T14:00:57Z</time>
      </trkpt>
      <trkpt lat="51.22301" lon="6.73903">
        <ele>37</ele>
        <time>2010-01-01T14:01:11Z</time>
      </trkpt>
      <trkpt lat="51.22277" lon="6.74055">
        <ele>35</ele>
        <time>2010-01-01T14:01:51Z</time>
      </trkpt>
      <trkpt lat="51.22172" lon="6.74519">
        <ele>37</ele>
        <time>2010-01-01T14:03:54Z</time>
      </trkpt>
      <trkpt lat="51.21853" lon="6.75356">
        <ele>28</ele>
        <time>2010-01-01T14:08:00Z</time>
      </trkpt>
      <trkpt lat="51.21834" lon="6.75465">
        <ele>27</ele>
        <time>2010-01-01T14:08:28Z</time>
      </trkpt>
      <trkpt lat="51.21844" lon="6.75626">
        <ele>27</ele>
        <time>2010-01-01T14:09:09Z</time>
      </trkpt>
      <trkpt lat="51.21775" lon="6.75717">
        <ele>30</ele>
        <time>2010-01-01T14:09:45Z</time>
      </trkpt>
      <trkpt lat="51.21849" lon="6.76048">
        <ele>29</ele>
        <time>2010-01-01T14:11:13Z</time>
      </trkpt>
      <trkpt lat="51.21826" lon="6.76108">
        <ele>31</ele>
        <time>2010-01-01T14:11:30Z</time>
      </trkpt>
      <trkpt lat="51.21836" lon="6.76187">
        <ele>36</ele>
        <time>2010-01-01T14:11:51Z</time>
      </trkpt>
      <trkpt lat="51.218" lon="6.76211">
        <ele>38</ele>
        <time>2010-01-01T14:12:06Z</time>
      </trkpt>
      <trkpt lat="51.21785" lon="6.7626">
        <ele>42</ele>
        <time>2010-01-01T14:12:20Z</time>
      </trkpt>
      <trkpt lat="51.21863" lon="6.76532">
        <ele>40</ele>
        <time>2010-01-01T14:13:35Z</time>
      </trkpt>
      <trkpt lat="51.21949" lon="6.76652">
        <ele>35</ele>
        <time>2010-01-01T14:14:20Z</time>
      </trkpt>
      <trkpt lat="51.22022" lon="6.76718">
        <ele>40</ele>
        <time>2010-01-01T14:14:54Z</time>
      </trkpt>
      <trkpt lat="51.22556" lon="6.7705">
        <ele>37</ele>
        <time>2010-01-01T14:18:43Z</time>
      </trkpt>
      <trkpt lat="51.2256" lon="6.77135">
        <ele>42</ele>
        <time>2010-01-01T14:19:05Z</time>
      </trkpt>
      <trkpt lat="51.22529" lon="6.77085">
        <ele>40</ele>
        <time>2010-01-01T14:19:22Z</time>
      </trkpt>
      <trkpt lat="51.22516" lon="6.77132">
        <ele>41</ele>
        <time>2010-01-01T14:19:35Z</time>
      </trkpt>
      <trkpt lat="51.22497" lon="6.77137">
        <ele>40</ele>
        <time>2010-01-01T14:19:43Z</time>
      </trkpt>
      <trkpt lat="51.22518" lon="6.77214">
        <ele>41</ele>
        <time>2010-01-01T14:20:04Z</time>
      </trkpt>
      <trkpt lat="51.22498" lon="6.77293">
        <ele>40</ele>
        <time>2010-01-01T14:20:26Z</time>
      </trkpt>
      <trkpt lat="51.22509" lon="6.77375">
        <ele>41</ele>
        <time>2010-01-01T14:20:46Z</time>
      </trkpt>
      <trkpt lat="51.22471" lon="6.77411">
        <ele>42</ele>
        <time>2010-01-01T14:21:04Z</time>
      </trkpt>
      <trkpt lat="51.22507" lon="6.77614">
        <ele>42</ele>
        <time>2010-01-01T14:21:57Z</time>
      </trkpt>
      <trkpt lat="51.22561" lon="6.77639">
        <ele>43</ele>
        <time>2010-01-01T14:22:20Z</time>
      </trkpt>
      <trkpt lat="51.22554" lon="6.77934">
        <ele>43</ele>
        <time>2010-01-01T14:23:33Z</time>
      </trkpt>
      <trkpt lat="51.22531" lon="6.78076">
        <ele>46</ele>
        <time>2010-01-01T14:24:10Z</time>
      </trkpt>
      <trkpt lat="51.22416" lon="6.78232">
        <ele>45</ele>
        <time>2010-01-01T14:25:11Z</time>
      </trkpt>
      <trkpt lat="51.22375" lon="6.78257">
        <ele>44</ele>
        <time>2010-01-01T14:25:28Z</time>
      </trkpt>
      <trkpt lat="51.22317" lon="6.78414">
        <ele>46</ele>
        <time>2010-01-01T14:26:14Z</time>
      </trkpt>
      <trkpt lat="51.22288" lon="6.78429">
        <ele>46</ele>
        <time>2010-01-01T14:26:26Z</time>
      </trkpt>
      <trkpt lat="51.22219" lon="6.7858">
        <ele>43</ele>
        <time>2010-01-01T14:27:13Z</time>
      </trkpt>
      <trkpt lat="51.21994" lon="6.78415">
        <ele>45</ele>
        <time>2010-01-01T14:28:52Z</time>
      </trkpt>
      <trkpt lat="51.2199" lon="6.78444">
        <ele>45</ele>
        <time>2010-01-01T14:29:00Z</time>
      </trkpt>
      <trkpt lat="51.21956" lon="6.78419">
        <ele>45</ele>
        <time>2010-01-01T14:29:15Z</time>
      </trkpt>
      <trkpt lat="51.2196" lon="6.784">
        <ele>45</ele>
        <time>2010-01-01T14:29:20Z</time>
      </trkpt>
      <trkpt lat="51.22052" lon="6.78478">
        <ele>45</ele>
        <time>2010-01-01T14:30:01Z</time>
      </trkpt>
      <trkpt lat="51.22077" lon="6.78472">
        <ele>44</ele>
        <time>2010-01-01T14:30:12Z</time>
      </trkpt>
      <trkpt lat="51.22176" lon="6.78277">
        <ele>44</ele>
        <time>2010-01-01T14:31:15Z</time>
      </trkpt>
      <trkpt lat="51.22145" lon="6.78271">
        <ele>44</ele>
        <time>2010-01-01T14:31:27Z</time>
      </trkpt>
      <trkpt lat="51.22149" lon="6.77927">
        <ele>47</ele>
        <time>2010-01-01T14:32:53Z</time>
      </trkpt>
      <trkpt lat="51.223" lon="6.77929">
        <ele>45</ele>
        <time>2010-01-01T14:33:54Z</time>
      </trkpt>
      <trkpt lat="51.22306" lon="6.77204">
        <ele>41</ele>
        <time>2010-01-01T14:36:55Z</time>
      </trkpt>
      <trkpt lat="51.2235" lon="6.77196">
        <ele>41</ele>
        <time>2010-01-01T14:37:13Z</time>
      </trkpt>
      <trkpt lat="51.22432" lon="6.76975">
        <ele>39</ele>
        <time>2010-01-01T14:38:18Z</time>
      </trkpt>
      <trkpt lat="51.22601" lon="6.77058">
        <ele>37</ele>
        <time>2010-01-01T14:39:28Z</time>
      </trkpt>
      <trkpt lat="51.22688" lon="6.77082">
        <ele>34</ele>
        <time>2010-01-01T14:40:04Z</time>
      </trkpt>
      <trkpt lat="51.22887" lon="6.77092">
        <ele>31</ele>
        <time>2010-01-01T14:41:23Z</time>
      </trkpt>
      <trkpt lat="51.23218" lon="6.77149">
        <ele>35</ele>
        <time>2010-01-01T14:43:37Z</time>
      </trkpt>
      <trkpt lat="51.23621" lon="6.77151">
        <ele>38</ele>
        <time>2010-01-01T14:46:18Z</time>
      </trkpt>
      <trkpt lat="51.23672" lon="6.77165">
        <ele>38</ele>
        <time>2010-01-01T14:46:39Z</time>
      </trkpt>
      <trkpt lat="51.2371" lon="6.77051">
        <ele>33</ele>
        <time>2010-01-01T14:47:11Z</time>
      </trkpt>
      <trkpt lat="51.23957" lon="6.76938">
        <ele>35</ele>
        <time>2010-01-01T14:48:54Z</time>
      </trkpt>
      <trkpt lat="51.24046" lon="6.76884">
        <ele>33</ele>
        <time>2010-01-01T14:49:32Z</time>
      </trkpt>
      <trkpt lat="51.24228" lon="6.76751">
        <ele>32</ele>
        <time>2010-01-01T14:50:52Z</time>
      </trkpt>
      <trkpt lat="51.24353" lon="6.76642">
        <ele>30</ele>
        <time>2010-01-01T14:51:49Z</time>
      </trkpt>
      <trkpt lat="51.24541" lon="6.76424">
        <ele>30</ele>
        <time>2010-01-01T14:53:22Z</time>
      </trkpt>
      <trkpt lat="51.24643" lon="6.76285">
        <ele>33</ele>
        <time>2010-01-01T14:54:16Z</time>
      </trkpt>
      <trkpt lat="51.24717" lon="6.76163">
        <ele>32</ele>
        <time>2010-01-01T14:54:58Z</time>
      </trkpt>
      <trkpt lat="51.24748" lon="6.76171">
        <ele>34</ele>
        <time>2010-01-01T14:55:11Z</time>
      </trkpt>
      <trkpt lat="51.24809" lon="6.7628">
        <ele>41</ele>
        <time>2010-01-01T14:55:48Z</time>
      </trkpt>
      <trkpt lat="51.25042" lon="6.75841">
        <ele>35</ele>
        <time>2010-01-01T14:58:12Z</time>
      </trkpt>
      <trkpt lat="51.25104" lon="6.75685">
        <ele>33</ele>
        <time>2010-01-01T14:58:58Z</time>
      </trkpt>
      <trkpt lat="51.25241" lon="6.75136">
        <ele>37</ele>
        <time>2010-01-01T15:01:26Z</time>
      </trkpt>
      <trkpt lat="51.25457" lon="6.74361">
        <ele>35</ele>
        <time>2010-01-01T15:04:59Z</time>
      </trkpt>
      <trkpt lat="51.25498" lon="6.743">
        <ele>38</ele>
        <time>2010-01-01T15:05:21Z</time>
      </trkpt>
      <trkpt lat="51.25564" lon="6.74092">
        <ele>39</ele>
        <time>2010-01-01T15:06:20Z</time>
      </trkpt>
      <trkpt lat="51.25716" lon="6.73574">
        <ele>36</ele>
        <time>2010-01-01T15:08:43Z</time>
      </trkpt>
      <trkpt lat="51.25959" lon="6.72635">
        <ele>36</ele>
        <time>2010-01-01T15:12:57Z</time>
      </trkpt>
      <trkpt lat="51.26113" lon="6.72191">
        <ele>35</ele>
        <time>2010-01-01T15:15:05Z</time>
      </trkpt>
      <trkpt lat="51.26235" lon="6.71787">
        <ele>34</ele>
        <time>2010-01-01T15:16:57Z</time>
      </trkpt>
      <trkpt lat="51.26394" lon="6.71436">
        <ele>34</ele>
        <time>2010-01-01T15:18:45Z</time>
      </trkpt>
      <trkpt lat="51.26467" lon="6.71326">
        <ele>34</ele>
        <time>2010-01-01T15:19:25Z</time>
      </trkpt>
      <trkpt lat="51.26544" lon="6.71245">
        <ele>34</ele>
        <time>2010-01-01T15:20:03Z</time>
      </trkpt>
      <trkpt lat="51.26642" lon="6.71168">
        <ele>35</ele>
        <time>2010-01-01T15:20:46Z</time>
      </trkpt>
      <trkpt lat="51.26745" lon="6.71117">
        <ele>34</ele>
        <time>2010-01-01T15:21:29Z</time>
      </trkpt>
      <trkpt lat="51.26843" lon="6.71093">
        <ele>33</ele>
        <time>2010-01-01T15:22:09Z</time>
      </trkpt>
      <trkpt lat="51.26934" lon="6.71088">
        <ele>32</ele>
        <time>2010-01-01T15:22:46Z</time>
      </trkpt>
      <trkpt lat="51.27133" lon="6.71117">
        <ele>32</ele>
        <time>2010-01-01T15:24:05Z</time>
      </trkpt>
      <trkpt lat="51.27193" lon="6.71136">
        <ele>32</ele>
        <time>2010-01-01T15:24:30Z</time>
      </trkpt>
      <trkpt lat="51.27384" lon="6.71231">
        <ele>33</ele>
        <time>2010-01-01T15:25:50Z</time>
      </trkpt>
      <trkpt lat="51.27566" lon="6.71356">
        <ele>34</ele>
        <time>2010-01-01T15:27:09Z</time>
      </trkpt>
      <trkpt lat="51.27623" lon="6.71368">
        <ele>34</ele>
        <time>2010-01-01T15:27:32Z</time>
      </trkpt>
      <trkpt lat="51.2768" lon="6.71406">
        <ele>33</ele>
        <time>2010-01-01T15:27:57Z</time>
      </trkpt>
      <trkpt lat="51.27739" lon="6.71468">
        <ele>33</ele>
        <time>2010-01-01T15:28:25Z</time>
      </trkpt>
      <trkpt lat="51.2825" lon="6.72069">
        <ele>33</ele>
        <time>2010-01-01T15:32:39Z</time>
      </trkpt>
      <trkpt lat="51.28824" lon="6.72572">
        <ele>37</ele>
        <time>2010-01-01T15:37:01Z</time>
      </trkpt>
      <trkpt lat="51.28899" lon="6.72617">
        <ele>36</ele>
        <time>2010-01-01T15:37:33Z</time>
      </trkpt>
      <trkpt lat="51.29111" lon="6.72688">
        <ele>32</ele>
        <time>2010-01-01T15:39:00Z</time>
      </trkpt>
      <trkpt lat="51.29257" lon="6.72762">
        <ele>30</ele>
        <time>2010-01-01T15:40:01Z</time>
      </trkpt>
      <trkpt lat="51.29535" lon="6.72984">
        <ele>32</ele>
        <time>2010-01-01T15:42:06Z</time>
      </trkpt>
      <trkpt lat="51.29641" lon="6.73144">
        <ele>34</ele>
        <time>2010-01-01T15:43:04Z</time>
      </trkpt>
      <trkpt lat="51.29678" lon="6.73157">
        <ele>35</ele>
        <time>2010-01-01T15:43:19Z</time>
      </trkpt>
      <trkpt lat="51.29615" lon="6.7302">
        <ele>32</ele>
        <time>2010-01-01T15:44:02Z</time>
      </trkpt>
      <trkpt lat="51.29589" lon="6.72952">
        <ele>32</ele>
        <time>2010-01-01T15:44:22Z</time>
      </trkpt>
      <trkpt lat="51.29593" lon="6.72934">
        <ele>31</ele>
        <time>2010-01-01T15:44:27Z</time>
      </trkpt>
      <trkpt lat="51.29772" lon="6.73067">
        <ele>29</ele>
        <time>2010-01-01T15:45:46Z</time>
      </trkpt>
      <trkpt lat="51.29838" lon="6.73077">
        <ele>29</ele>
        <time>2010-01-01T15:46:12Z</time>
      </trkpt>
      <trkpt lat="51.29988" lon="6.73168">
        <ele>33</ele>
        <time>2010-01-01T15:47:16Z</time>
      </trkpt>
      <trkpt lat="51.30173" lon="6.73334">
        <ele>29</ele>
        <time>2010-01-01T15:48:41Z</time>
      </trkpt>
      <trkpt lat="51.30172" lon="6.73324">
        <ele>28</ele>
        <time>2010-01-01T15:48:44Z</time>
      </trkpt>
      <trkpt lat="51.30166" lon="6.7332">
        <ele>28</ele>
        <time>2010-01-01T15:48:46Z</time>
      </trkpt>
      <trkpt lat="51.30157" lon="6.73352">
        <ele>32</ele>
        <time>2010-01-01T15:48:55Z</time>
      </trkpt>
      <trkpt lat="51.30153" lon="6.73457">
        <ele>37</ele>
        <time>2010-01-01T15:49:21Z</time>
      </trkpt>
      <trkpt lat="51.30161" lon="6.73551">
        <ele>36</ele>
        <time>2010-01-01T15:49:45Z</time>
      </trkpt>
      <trkpt lat="51.30144" lon="6.73715">
        <ele>35</ele>
        <time>2010-01-01T15:50:26Z</time>
      </trkpt>
      <trkpt lat="51.30108" lon="6.73839">
        <ele>36</ele>
        <time>2010-01-01T15:51:01Z</time>
      </trkpt>
      <trkpt lat="51.30105" lon="6.73896">
        <ele>35</ele>
        <time>2010-01-01T15:51:15Z</time>
      </trkpt>
      <trkpt lat="51.30106" lon="6.73845">
        <ele>36</ele>
        <time>2010-01-01T15:51:28Z</time>
      </trkpt>
      <trkpt lat="51.30104" lon="6.73846">
        <ele>36</ele>
        <time>2010-01-01T15:51:28Z</time>
      </trkpt>
      <trkpt lat="51.30135" lon="6.73741">
        <ele>35</ele>
        <time>2010-01-01T15:51:57Z</time>
      </trkpt>
      <trkpt lat="51.30151" lon="6.73623">
        <ele>36</ele>
        <time>2010-01-01T15:52:27Z</time>
      </trkpt>
      <trkpt lat="51.3016" lon="6.73325">
        <ele>29</ele>
        <time>2010-01-01T15:53:42Z</time>
      </trkpt>
      <trkpt lat="51.30172" lon="6.73325">
        <ele>28</ele>
        <time>2010-01-01T15:53:47Z</time>
      </trkpt>
      <trkpt lat="51.30264" lon="6.73415">
        <ele>31</ele>
        <time>2010-01-01T15:54:30Z</time>
      </trkpt>
      <trkpt lat="51.30355" lon="6.73462">
        <ele>33</ele>
        <time>2010-01-01T15:55:08Z</time>
      </trkpt>
      <trkpt lat="51.30571" lon="6.73536">
        <ele>28</ele>
        <time>2010-01-01T15:56:37Z</time>
      </trkpt>
      <trkpt lat="51.30672" lon="6.73599">
        <ele>30</ele>
        <time>2010-01-01T15:57:20Z</time>
      </trkpt>
      <trkpt lat="51.3088" lon="6.73698">
        <ele>29</ele>
        <time>2010-01-01T15:58:47Z</time>
      </trkpt>
      <trkpt lat="51.31138" lon="6.73752">
        <ele>29</ele>
        <time>2010-01-01T16:00:31Z</time>
      </trkpt>
      <trkpt lat="51.31261" lon="6.73759">
        <ele>29</ele>
        <time>2010-01-01T16:01:20Z</time>
      </trkpt>
      <trkpt lat="51.3179" lon="6.73693">
        <ele>28</ele>
        <time>2010-01-01T16:04:53Z</time>
      </trkpt>
      <trkpt lat="51.31918" lon="6.73652">
        <ele>27</ele>
        <time>2010-01-01T16:05:45Z</time>
      </trkpt>
      <trkpt lat="51.322" lon="6.73507">
        <ele>27</ele>
        <time>2010-01-01T16:07:44Z</time>
      </trkpt>
      <trkpt lat="51.3223" lon="6.73501">
        <ele>29</ele>
        <time>2010-01-01T16:07:56Z</time>
      </trkpt>
      <trkpt lat="51.32269" lon="6.73528">
        <ele>33</ele>
        <time>2010-01-01T16:08:13Z</time>
      </trkpt>
      <trkpt lat="51.32194" lon="6.73643">
        <ele>34</ele>
        <time>2010-01-01T16:08:54Z</time>
      </trkpt>
      <trkpt lat="51.32196" lon="6.73659">
        <ele>34</ele>
        <time>2010-01-01T16:08:59Z</time>
      </trkpt>
      <trkpt lat="51.32366" lon="6.7387">
        <ele>37</ele>
        <time>2010-01-01T16:10:25Z</time>
      </trkpt>
      <trkpt lat="51.32411" lon="6.73796">
        <ele>38</ele>
        <time>2010-01-01T16:10:51Z</time>
      </trkpt>
      <trkpt lat="51.3251" lon="6.73579">
        <ele>38</ele>
        <time>2010-01-01T16:11:58Z</time>
      </trkpt>
      <trkpt lat="51.32524" lon="6.73587">
        <ele>38</ele>
        <time>2010-01-01T16:12:04Z</time>
      </trkpt>
      <trkpt lat="51.32529" lon="6.73581">
        <ele>38</ele>
        <time>2010-01-01T16:12:06Z</time>
      </trkpt>
      <trkpt lat="51.3255" lon="6.73487">
        <ele>39</ele>
        <time>2010-01-01T16:12:31Z</time>
      </trkpt>
      <trkpt lat="51.32693" lon="6.73173">
        <ele>39</ele>
        <time>2010-01-01T16:14:09Z</time>
      </trkpt>
      <trkpt lat="51.3277" lon="6.73067">
        <ele>36</ele>
        <time>2010-01-01T16:14:49Z</time>
      </trkpt>
      <trkpt lat="51.32923" lon="6.72915">
        <ele>38</ele>
        <time>2010-01-01T16:16:01Z</time>
      </trkpt>
      <trkpt lat="51.33095" lon="6.72611">
        <ele>37</ele>
        <time>2010-01-01T16:17:44Z</time>
      </trkpt>
      <trkpt lat="51.33133" lon="6.72487">
        <ele>36</ele>
        <time>2010-01-01T16:18:18Z</time>
      </trkpt>
      <trkpt lat="51.33152" lon="6.72376">
        <ele>34</ele>
        <time>2010-01-01T16:18:47Z</time>
      </trkpt>
      <trkpt lat="51.33194" lon="6.72324">
        <ele>34</ele>
        <time>2010-01-01T16:19:08Z</time>
      </trkpt>
      <trkpt lat="51.33237" lon="6.72329">
        <ele>34</ele>
        <time>2010-01-01T16:19:26Z</time>
      </trkpt>
      <trkpt lat="51.33464" lon="6.71934">
        <ele>34</ele>
        <time>2010-01-01T16:21:40Z</time>
      </trkpt>
      <trkpt lat="51.33511" lon="6.71871">
        <ele>33</ele>
        <time>2010-01-01T16:22:04Z</time>
      </trkpt>
      <trkpt lat="51.33678" lon="6.71499">
        <ele>35</ele>
        <time>2010-01-01T16:23:59Z</time>
      </trkpt>
      <trkpt lat="51.34062" lon="6.71111">
        <ele>30</ele>
        <time>2010-01-01T16:27:01Z</time>
      </trkpt>
      <trkpt lat="51.34302" lon="6.70897">
        <ele>31</ele>
        <time>2010-01-01T16:28:51Z</time>
      </trkpt>
      <trkpt lat="51.34098" lon="6.70301">
        <ele>30</ele>
        <time>2010-01-01T16:31:41Z</time>
      </trkpt>
      <trkpt lat="51.34358" lon="6.69895">
        <ele>29</ele>
        <time>2010-01-01T16:34:06Z</time>
      </trkpt>
      <trkpt lat="51.34375" lon="6.69898">
        <ele>29</ele>
        <time>2010-01-01T16:34:13Z</time>
      </trkpt>
      <trkpt lat="51.34479" lon="6.7013">
        <ele>28</ele>
        <time>2010-01-01T16:35:24Z</time>
      </trkpt>
      <trkpt lat="51.34504" lon="6.70149">
        <ele>28</ele>
        <time>2010-01-01T16:35:35Z</time>
      </trkpt>
      <trkpt lat="51.34737" lon="6.70097">
        <ele>28</ele>
        <time>2010-01-01T16:37:09Z</time>
      </trkpt>
      <trkpt lat="51.34758" lon="6.70128">
        <ele>29</ele>
        <time>2010-01-01T16:37:21Z</time>
      </trkpt>
      <trkpt lat="51.34774" lon="6.70342">
        <ele>35</ele>
        <time>2010-01-01T16:38:15Z</time>
      </trkpt>
      <trkpt lat="51.3477" lon="6.70483">
        <ele>35</ele>
        <time>2010-01-01T16:38:50Z</time>
      </trkpt>
      <trkpt lat="51.3479" lon="6.70618">
        <ele>33</ele>
        <time>2010-01-01T16:39:25Z</time>
      </trkpt>
      <trkpt lat="51.34846" lon="6.70898">
        <ele>33</ele>
        <time>2010-01-01T16:40:38Z</time>
      </trkpt>
      <trkpt lat="51.34928" lon="6.71221">
        <ele>33</ele>
        <time>2010-01-01T16:42:05Z</time>
      </trkpt>
      <trkpt lat="51.3503" lon="6.71741">
        <ele>33</ele>
        <time>2010-01-01T16:44:22Z</time>
      </trkpt>
      <trkpt lat="51.35042" lon="6.71749">
        <ele>32</ele>
        <time>2010-01-01T16:44:27Z</time>
      </trkpt>
      <trkpt lat="51.35208" lon="6.71644">
        <ele>32</ele>
        <time>2010-01-01T16:45:38Z</time>
      </trkpt>
      <trkpt lat="51.35225" lon="6.71657">
        <ele>33</ele>
        <time>2010-01-01T16:45:46Z</time>
      </trkpt>
      <trkpt lat="51.35337" lon="6.72197">
        <ele>33</ele>
        <time>2010-01-01T16:48:08Z</time>
      </trkpt>
      <trkpt lat="51.35371" lon="6.72223">
        <ele>34</ele>
        <time>2010-01-01T16:48:23Z</time>
      </trkpt>
      <trkpt lat="51.35375" lon="6.72259">
        <ele>34</ele>
        <time>2010-01-01T16:48:32Z</time>
      </trkpt>
      <trkpt lat="51.35354" lon="6.72312">
        <ele>34</ele>
        <time>2010-01-01T16:48:48Z</time>
      </trkpt>
      <trkpt lat="51.353" lon="6.72662">
        <ele>30</ele>
        <time>2010-01-01T16:50:18Z</time>
      </trkpt>
      <trkpt lat="51.35313" lon="6.72689">
        <ele>31</ele>
        <time>2010-01-01T16:50:27Z</time>
      </trkpt>
      <trkpt lat="51.35473" lon="6.72724">
        <ele>35</ele>
        <time>2010-01-01T16:51:31Z</time>
      </trkpt>
      <trkpt lat="51.35614" lon="6.72715">
        <ele>33</ele>
        <time>2010-01-01T16:52:28Z</time>
      </trkpt>
      <trkpt lat="51.35827" lon="6.72656">
        <ele>33</ele>
        <time>2010-01-01T16:53:54Z</time>
      </trkpt>
      <trkpt lat="51.35977" lon="6.72588">
        <ele>34</ele>
        <time>2010-01-01T16:54:57Z</time>
      </trkpt>
      <trkpt lat="51.35994" lon="6.72599">
        <ele>35</ele>
        <time>2010-01-01T16:55:04Z</time>
      </trkpt>
      <trkpt lat="51.36058" lon="6.72912">
        <ele>34</ele>
        <time>2010-01-01T16:56:26Z</time>
      </trkpt>
      <trkpt lat="51.36263" lon="6.72826">
        <ele>32</ele>
        <time>2010-01-01T16:57:51Z</time>
      </trkpt>
      <trkpt lat="51.36281" lon="6.72823">
        <ele>32</ele>
        <time>2010-01-01T16:57:58Z</time>
      </trkpt>
      <trkpt lat="51.36313" lon="6.72845">
        <ele>33</ele>
        <time>2010-01-01T16:58:12Z</time>
      </trkpt>
      <trkpt lat="51.3645" lon="6.73075">
        <ele>31</ele>
        <time>2010-01-01T16:59:32Z</time>
      </trkpt>
      <trkpt lat="51.36469" lon="6.73143">
        <ele>30</ele>
        <time>2010-01-01T16:59:50Z</time>
      </trkpt>
      <trkpt lat="51.3646" lon="6.7353">
        <ele>32</ele>
        <time>2010-01-01T17:01:27Z</time>
      </trkpt>
      <trkpt lat="51.365" lon="6.73691">
        <ele>31</ele>
        <time>2010-01-01T17:02:10Z</time>
      </trkpt>
      <trkpt lat="51.36537" lon="6.739">
        <ele>32</ele>
        <time>2010-01-01T17:03:05Z</time>
      </trkpt>
      <trkpt lat="51.36538" lon="6.73906">
        <ele>32</ele>
        <time>2010-01-01T17:03:06Z</time>
      </trkpt>
      <trkpt lat="51.36541" lon="6.73979">
        <ele>32</ele>
        <time>2010-01-01T17:03:25Z</time>
      </trkpt>
      <trkpt lat="51.36572" lon="6.73995">
        <ele>32</ele>
        <time>2010-01-01T17:03:38Z</time>
      </trkpt>
      <trkpt lat="51.36836" lon="6.74087">
        <ele>32</ele>
        <time>2010-01-01T17:05:26Z</time>
      </trkpt>
      <trkpt lat="51.36869" lon="6.74093">
        <ele>33</ele>
        <time>2010-01-01T17:05:39Z</time>
      </trkpt>
      <trkpt lat="51.36965" lon="6.74081">
        <ele>35</ele>
        <time>2010-01-01T17:06:18Z</time>
      </trkpt>
      <trkpt lat="51.37021" lon="6.74111">
        <ele>35</ele>
        <time>2010-01-01T17:06:41Z</time>
      </trkpt>
      <trkpt lat="51.37383" lon="6.73947">
        <ele>31</ele>
        <time>2010-01-01T17:09:12Z</time>
      </trkpt>
      <trkpt lat="51.37401" lon="6.73926">
        <ele>29</ele>
        <time>2010-01-01T17:09:21Z</time>
      </trkpt>
      <trkpt lat="51.37414" lon="6.73881">
        <ele>28</ele>
        <time>2010-01-01T17:09:34Z</time>
      </trkpt>
      <trkpt lat="51.37433" lon="6.73882">
        <ele>29</ele>
        <time>2010-01-01T17:09:41Z</time>
      </trkpt>
      <trkpt lat="51.37448" lon="6.73924">
        <ele>30</ele>
        <time>2010-01-01T17:09:53Z</time>
      </trkpt>
      <trkpt lat="51.37538" lon="6.73951">
        <ele>33</ele>
        <time>2010-01-01T17:10:30Z</time>
      </trkpt>
      <trkpt lat="51.37549" lon="6.73975">
        <ele>34</ele>
        <time>2010-01-01T17:10:37Z</time>
      </trkpt>
      <trkpt lat="51.37548" lon="6.74032">
        <ele>33</ele>
        <time>2010-01-01T17:10:51Z</time>
      </trkpt>
      <trkpt lat="51.37566" lon="6.7406">
        <ele>34</ele>
        <time>2010-01-01T17:11:02Z</time>
      </trkpt>
      <trkpt lat="51.37621" lon="6.7405">
        <ele>36</ele>
        <time>2010-01-01T17:11:23Z</time>
      </trkpt>
      <trkpt lat="51.37636" lon="6.74021">
        <ele>36</ele>
        <time>2010-01-01T17:11:33Z</time>
      </trkpt>
      <trkpt lat="51.37651" lon="6.73742">
        <ele>35</ele>
        <time>2010-01-01T17:12:43Z</time>
      </trkpt>
      <trkpt lat="51.37506" lon="6.73651">
        <ele>34</ele>
        <time>2010-01-01T17:13:45Z</time>
      </trkpt>
      <trkpt lat="51.37502" lon="6.73673">
        <ele>34</ele>
        <time>2010-01-01T17:13:51Z</time>
      </trkpt>
      <trkpt lat="51.37511" lon="6.73819">
        <ele>32</ele>
        <time>2010-01-01T17:14:28Z</time>
      </trkpt>
      <trkpt lat="51.37522" lon="6.73858">
        <ele>33</ele>
        <time>2010-01-01T17:14:39Z</time>
      </trkpt>
      <trkpt lat="51.37574" lon="6.73868">
        <ele>34</ele>
        <time>2010-01-01T17:14:59Z</time>
      </trkpt>
      <trkpt lat="51.37593" lon="6.73845">
        <ele>34</ele>
        <time>2010-01-01T17:15:09Z</time>
      </trkpt>
      <trkpt lat="51.37597" lon="6.73788">
        <ele>34</ele>
        <time>2010-01-01T17:15:23Z</time>
      </trkpt>
      <trkpt lat="51.37547" lon="6.73758">
        <ele>33</ele>
        <time>2010-01-01T17:15:44Z</time>
      </trkpt>
      <trkpt lat="51.37542" lon="6.73799">
        <ele>33</ele>
        <time>2010-01-01T17:15:55Z</time>
      </trkpt>
      <trkpt lat="51.3756" lon="6.73814">
        <ele>33</ele>
        <time>2010-01-01T17:16:03Z</time>
      </trkpt>
      <trkpt lat="51.37559" lon="6.73803">
        <ele>33</ele>
        <time>2010-01-01T17:16:06Z</time>
      </trkpt>
      <trkpt lat="51.3755" lon="6.73811">
        <ele>33</ele>
        <time>2010-01-01T17:16:10Z</time>
      </trkpt>
      <trkpt lat="51.37551" lon="6.738">
        <ele>33</ele>
        <time>2010-01-01T17:16:13Z</time>
      </trkpt>
      <trkpt lat="51.37558" lon="6.7381">
        <ele>33</ele>
        <time>2010-01-01T17:16:17Z</time>
      </trkpt>
      <trkpt lat="51.37549" lon="6.73816">
        <ele>33</ele>
        <time>2010-01-01T17:16:21Z</time>
      </trkpt>
      <trkpt lat="51.37543" lon="6.73763">
        <ele>33</ele>
        <time>2010-01-01T17:16:34Z</time>
      </trkpt>
      <trkpt lat="51.37565" lon="6.7376">
        <ele>34</ele>
        <time>2010-01-01T17:16:43Z</time>
      </trkpt>
      <trkpt lat="51.37588" lon="6.73772">
        <ele>34</ele>
        <time>2010-01-01T17:16:53Z</time>
      </trkpt>
      <trkpt lat="51.37599" lon="6.73798">
        <ele>35</ele>
        <time>2010-01-01T17:17:01Z</time>
      </trkpt>
      <trkpt lat="51.37593" lon="6.73853">
        <ele>34</ele>
        <time>2010-01-01T17:17:15Z</time>
      </trkpt>
      <trkpt lat="51.37571" lon="6.73869">
        <ele>34</ele>
        <time>2010-01-01T17:17:24Z</time>
      </trkpt>
      <trkpt lat="51.37523" lon="6.73862">
        <ele>33</ele>
        <time>2010-01-01T17:17:44Z</time>
      </trkpt>
      <trkpt lat="51.3751" lon="6.73836">
        <ele>32</ele>
        <time>2010-01-01T17:17:52Z</time>
      </trkpt>
      <trkpt lat="51.37503" lon="6.73682">
        <ele>34</ele>
        <time>2010-01-01T17:18:30Z</time>
      </trkpt>
      <trkpt lat="51.37521" lon="6.73652">
        <ele>34</ele>
        <time>2010-01-01T17:18:41Z</time>
      </trkpt>
      <trkpt lat="51.37642" lon="6.73727">
        <ele>35</ele>
        <time>2010-01-01T17:19:33Z</time>
      </trkpt>
      <trkpt lat="51.37653" lon="6.73767">
        <ele>36</ele>
        <time>2010-01-01T17:19:44Z</time>
      </trkpt>
      <trkpt lat="51.3763" lon="6.74044">
        <ele>36</ele>
        <time>2010-01-01T17:20:54Z</time>
      </trkpt>
      <trkpt lat="51.37776" lon="6.7413">
        <ele>33</ele>
        <time>2010-01-01T17:21:56Z</time>
      </trkpt>
      <trkpt lat="51.37825" lon="6.74337">
        <ele>34</ele>
        <time>2010-01-01T17:22:51Z</time>
      </trkpt>
      <trkpt lat="51.37863" lon="6.74441">
        <ele>33</ele>
        <time>2010-01-01T17:23:22Z</time>
      </trkpt>
      <trkpt lat="51.37813" lon="6.74627">
        <ele>32</ele>
        <time>2010-01-01T17:24:12Z</time>
      </trkpt>
      <trkpt lat="51.37821" lon="6.74652">
        <ele>32</ele>
        <time>2010-01-01T17:24:19Z</time>
      </trkpt>
      <trkpt lat="51.37887" lon="6.74703">
        <ele>32</ele>
        <time>2010-01-01T17:24:49Z</time>
      </trkpt>
      <trkpt lat="51.38007" lon="6.74826">
        <ele>30</ele>
        <time>2010-01-01T17:25:46Z</time>
      </trkpt>
      <trkpt lat="51.38003" lon="6.74811">
        <ele>31</ele>
        <time>2010-01-01T17:25:50Z</time>
      </trkpt>
      <trkpt lat="51.38005" lon="6.74773">
        <ele>33</ele>
        <time>2010-01-01T17:25:59Z</time>
      </trkpt>
      <trkpt lat="51.38073" lon="6.74631">
        <ele>35</ele>
        <time>2010-01-01T17:26:44Z</time>
      </trkpt>
      <trkpt lat="51.38123" lon="6.74419">
        <ele>35</ele>
        <time>2010-01-01T17:27:41Z</time>
      </trkpt>
      <trkpt lat="51.38111" lon="6.74355">
        <ele>35</ele>
        <time>2010-01-01T17:27:57Z</time>
      </trkpt>
      <trkpt lat="51.38138" lon="6.74272">
        <ele>35</ele>
        <time>2010-01-01T17:28:21Z</time>
      </trkpt>
      <trkpt lat="51.3819" lon="6.74146">
        <ele>34</ele>
        <time>2010-01-01T17:28:58Z</time>
      </trkpt>
      <trkpt lat="51.38231" lon="6.74085">
        <ele>34</ele>
        <time>2010-01-01T17:29:21Z</time>
      </trkpt>
      <trkpt lat="51.38252" lon="6.74076">
        <ele>34</ele>
        <time>2010-01-01T17:29:29Z</time>
      </trkpt>
      <trkpt lat="51.38264" lon="6.7409">
        <ele>34</ele>
        <time>2010-01-01T17:29:35Z</time>
      </trkpt>
      <trkpt lat="51.38275" lon="6.74052">
        <ele>35</ele>
        <time>2010-01-01T17:29:46Z</time>
      </trkpt>
      <trkpt lat="51.38283" lon="6.7406">
        <ele>35</ele>
        <time>2010-01-01T17:29:49Z</time>
      </trkpt>
      <trkpt lat="51.38518" lon="6.73763">
        <ele>32</ele>
        <time>2010-01-01T17:31:49Z</time>
      </trkpt>
      <trkpt lat="51.38534" lon="6.73764">
        <ele>30</ele>
        <time>2010-01-01T17:31:55Z</time>
      </trkpt>
      <trkpt lat="51.38763" lon="6.74044">
        <ele>30</ele>
        <time>2010-01-01T17:33:51Z</time>
      </trkpt>
      <trkpt lat="51.3885" lon="6.74109">
        <ele>30</ele>
        <time>2010-01-01T17:34:29Z</time>
      </trkpt>
      <trkpt lat="51.38894" lon="6.74127">
        <ele>28</ele>
        <time>2010-01-01T17:34:47Z</time>
      </trkpt>
      <trkpt lat="51.38948" lon="6.74181">
        <ele>28</ele>
        <time>2010-01-01T17:35:13Z</time>
      </trkpt>
      <trkpt lat="51.39025" lon="6.74277">
        <ele>31</ele>
        <time>2010-01-01T17:35:52Z</time>
      </trkpt>
      <trkpt lat="51.3932" lon="6.74588">
        <ele>29</ele>
        <time>2010-01-01T17:38:13Z</time>
      </trkpt>
      <trkpt lat="51.3937" lon="6.74648">
        <ele>30</ele>
        <time>2010-01-01T17:38:38Z</time>
      </trkpt>
      <trkpt lat="51.3937" lon="6.74728">
        <ele>32</ele>
        <time>2010-01-01T17:38:58Z</time>
      </trkpt>
      <trkpt lat="51.39385" lon="6.74762">
        <ele>32</ele>
        <time>2010-01-01T17:39:09Z</time>
      </trkpt>
      <trkpt lat="51.39595" lon="6.74989">
        <ele>35</ele>
        <time>2010-01-01T17:40:50Z</time>
      </trkpt>
      <trkpt lat="51.39658" lon="6.75048">
        <ele>34</ele>
        <time>2010-01-01T17:41:19Z</time>
      </trkpt>
      <trkpt lat="51.39728" lon="6.75076">
        <ele>33</ele>
        <time>2010-01-01T17:41:48Z</time>
      </trkpt>
      <trkpt lat="51.39778" lon="6.75056">
        <ele>34</ele>
        <time>2010-01-01T17:42:09Z</time>
      </trkpt>
      <trkpt lat="51.39778" lon="6.75087">
        <ele>34</ele>
        <time>2010-01-01T17:42:16Z</time>
      </trkpt>
      <trkpt lat="51.39788" lon="6.75096">
        <ele>34</ele>
        <time>2010-01-01T17:42:21Z</time>
      </trkpt>
      <trkpt lat="51.40367" lon="6.75153">
        <ele>36</ele>
        <time>2010-01-01T17:46:13Z</time>
      </trkpt>
      <trkpt lat="51.40473" lon="6.75183">
        <ele>35</ele>
        <time>2010-01-01T17:46:56Z</time>
      </trkpt>
      <trkpt lat="51.40483" lon="6.75167">
        <ele>34</ele>
        <time>2010-01-01T17:47:02Z</time>
      </trkpt>
      <trkpt lat="51.40635" lon="6.75176">
        <ele>34</ele>
        <time>2010-01-01T17:48:03Z</time>
      </trkpt>
      <trkpt lat="51.40809" lon="6.75214">
        <ele>32</ele>
        <time>2010-01-01T17:49:13Z</time>
      </trkpt>
      <trkpt lat="51.41173" lon="6.7527">
        <ele>35</ele>
        <time>2010-01-01T17:51:39Z</time>
      </trkpt>
      <trkpt lat="51.41285" lon="6.75301">
        <ele>36</ele>
        <time>2010-01-01T17:52:25Z</time>
      </trkpt>
      <trkpt lat="51.41397" lon="6.75298">
        <ele>37</ele>
        <time>2010-01-01T17:53:10Z</time>
      </trkpt>
      <trkpt lat="51.41736" lon="6.74737">
        <ele>33</ele>
        <time>2010-01-01T17:56:25Z</time>
      </trkpt>
      <trkpt lat="51.41954" lon="6.74904">
        <ele>36</ele>
        <time>2010-01-01T17:58:02Z</time>
      </trkpt>
      <trkpt lat="51.42283" lon="6.75193">
        <ele>34</ele>
        <time>2010-01-01T18:00:32Z</time>
      </trkpt>
      <trkpt lat="51.42341" lon="6.75303">
        <ele>33</ele>
        <time>2010-01-01T18:01:08Z</time>
      </trkpt>
      <trkpt lat="51.42386" lon="6.75362">
        <ele>35</ele>
        <time>2010-01-01T18:01:31Z</time>
      </trkpt>
      <trkpt lat="51.42412" lon="6.75429">
        <ele>37</ele>
        <time>2010-01-01T18:01:51Z</time>
      </trkpt>
      <trkpt lat="51.42411" lon="6.75483">
        <ele>37</ele>
        <time>2010-01-01T18:02:04Z</time>
      </trkpt>
      <trkpt lat="51.42561" lon="6.75516">
        <ele>34</ele>
        <time>2010-01-01T18:03:05Z</time>
      </trkpt>
      <trkpt lat="51.42816" lon="6.75624">
        <ele>32</ele>
        <time>2010-01-01T18:04:50Z</time>
      </trkpt>
      <trkpt lat="51.42941" lon="6.75647">
        <ele>36</ele>
        <time>2010-01-01T18:05:41Z</time>
      </trkpt>
      <trkpt lat="51.43026" lon="6.75625">
        <ele>33</ele>
        <time>2010-01-01T18:06:15Z</time>
      </trkpt>
      <trkpt lat="51.43055" lon="6.75662">
        <ele>33</ele>
        <time>2010-01-01T18:06:30Z</time>
      </trkpt>
      <trkpt lat="51.4308" lon="6.75741">
        <ele>33</ele>
        <time>2010-01-01T18:06:52Z</time>
      </trkpt>
      <trkpt lat="51.43127" lon="6.75814">
        <ele>36</ele>
        <time>2010-01-01T18:07:18Z</time>
      </trkpt>
      <trkpt lat="51.43166" lon="6.75903">
        <ele>36</ele>
        <time>2010-01-01T18:07:46Z</time>
      </trkpt>
      <trkpt lat="51.43223" lon="6.76085">
        <ele>35</ele>
        <time>2010-01-01T18:08:36Z</time>
      </trkpt>
      <trkpt lat="51.43276" lon="6.76147">
        <ele>37</ele>
        <time>2010-01-01T18:09:03Z</time>
      </trkpt>
      <trkpt lat="51.43392" lon="6.76216">
        <ele>38</ele>
        <time>2010-01-01T18:09:52Z</time>
      </trkpt>
      <trkpt lat="51.43421" lon="6.76257">
        <ele>37</ele>
        <time>2010-01-01T18:10:07Z</time>
      </trkpt>
      <trkpt lat="51.43444" lon="6.76271">
        <ele>35</ele>
        <time>2010-01-01T18:10:17Z</time>
      </trkpt>
      <trkpt lat="51.43495" lon="6.76272">
        <ele>33</ele>
        <time>2010-01-01T18:10:38Z</time>
      </trkpt>
      <trkpt lat="51.43505" lon="6.76288">
        <ele>33</ele>
        <time>2010-01-01T18:10:43Z</time>
      </trkpt>
      <trkpt lat="51.43533" lon="6.76605">
        <ele>36</ele>
        <time>2010-01-01T18:12:03Z</time>
      </trkpt>
      <trkpt lat="51.43624" lon="6.76661">
        <ele>36</ele>
        <time>2010-01-01T18:12:42Z</time>
      </trkpt>
      <trkpt lat="51.43711" lon="6.76663">
        <ele>35</ele>
        <time>2010-01-01T18:13:17Z</time>
      </trkpt>
      <trkpt lat="51.43718" lon="6.76676">
        <ele>35</ele>
        <time>2010-01-01T18:13:21Z</time>
      </trkpt>
      <trkpt lat="51.43807" lon="6.76567">
        <ele>31</ele>
        <time>2010-01-01T18:14:06Z</time>
      </trkpt>
      <trkpt lat="51.43844" lon="6.76487">
        <ele>31</ele>
        <time>2010-01-01T18:14:31Z</time>
      </trkpt>
      <trkpt lat="51.43852" lon="6.76437">
        <ele>30</ele>
        <time>2010-01-01T18:14:44Z</time>
      </trkpt>
      <trkpt lat="51.43938" lon="6.76288">
        <ele>29</ele>
        <time>2010-01-01T18:15:35Z</time>
      </trkpt>
      <trkpt lat="51.43959" lon="6.76287">
        <ele>30</ele>
        <time>2010-01-01T18:15:43Z</time>
      </trkpt>
      <trkpt lat="51.43977" lon="6.76259">
        <ele>30</ele>
        <time>2010-01-01T18:15:53Z</time>
      </trkpt>
      <trkpt lat="51.44149" lon="6.76224">
        <ele>30</ele>
        <time>2010-01-01T18:17:02Z</time>
      </trkpt>
      <trkpt lat="51.44147" lon="6.76212">
        <ele>30</ele>
        <time>2010-01-01T18:17:05Z</time>
      </trkpt>
      <trkpt lat="51.44172" lon="6.76209">
        <ele>30</ele>
        <time>2010-01-01T18:17:16Z</time>
      </trkpt>
      <trkpt lat="51.44195" lon="6.76224">
        <ele>30</ele>
        <time>2010-01-01T18:17:26Z</time>
      </trkpt>
      <trkpt lat="51.44251" lon="6.76194">
        <ele>29</ele>
        <time>2010-01-01T18:17:49Z</time>
      </trkpt>
      <trkpt lat="51.44395" lon="6.76158">
        <ele>29</ele>
        <time>2010-01-01T18:18:48Z</time>
      </trkpt>
      <trkpt lat="51.444" lon="6.76128">
        <ele>29</ele>
        <time>2010-01-01T18:18:55Z</time>
      </trkpt>
      <trkpt lat="51.44312" lon="6.75667">
        <ele>32</ele>
        <time>2010-01-01T18:20:56Z</time>
      </trkpt>
      <trkpt lat="51.44302" lon="6.75566">
        <ele>30</ele>
        <time>2010-01-01T18:21:21Z</time>
      </trkpt>
      <trkpt lat="51.44504" lon="6.75478">
        <ele>26</ele>
        <time>2010-01-01T18:22:45Z</time>
      </trkpt>
      <trkpt lat="51.44521" lon="6.75511">
        <ele>27</ele>
        <time>2010-01-01T18:22:56Z</time>
      </trkpt>
      <trkpt lat="51.44584" lon="6.75491">
        <ele>27</ele>
        <time>2010-01-01T18:23:21Z</time>
      </trkpt>
      <trkpt lat="51.44601" lon="6.7551">
        <ele>28</ele>
        <time>2010-01-01T18:23:30Z</time>
      </trkpt>
      <trkpt lat="51.44632" lon="6.7575">
        <ele>32</ele>
        <time>2010-01-01T18:24:31Z</time>
      </trkpt>
      <trkpt lat="51.44679" lon="6.75966">
        <ele>29</ele>
        <time>2010-01-01T18:25:28Z</time>
      </trkpt>
      <trkpt lat="51.44899" lon="6.76784">
        <ele>25</ele>
        <time>2010-01-01T18:29:10Z</time>
      </trkpt>
      <trkpt lat="51.44946" lon="6.77158">
        <ele>28</ele>
        <time>2010-01-01T18:30:45Z</time>
      </trkpt>
      <trkpt lat="51.45052" lon="6.77442">
        <ele>32</ele>
        <time>2010-01-01T18:32:08Z</time>
      </trkpt>
      <trkpt lat="51.45111" lon="6.77838">
        <ele>28</ele>
        <time>2010-01-01T18:33:49Z</time>
      </trkpt>
      <trkpt lat="51.45191" lon="6.78248">
        <ele>22</ele>
        <time>2010-01-01T18:35:36Z</time>
      </trkpt>
      <trkpt lat="51.45137" lon="6.7834">
        <ele>26</ele>
        <time>2010-01-01T18:36:08Z</time>
      </trkpt>
      <trkpt lat="51.45142" lon="6.78359">
        <ele>26</ele>
        <time>2010-01-01T18:36:13Z</time>
      </trkpt>
      <trkpt lat="51.45354" lon="6.78696">
        <ele>27</ele>
        <time>2010-01-01T18:38:12Z</time>
      </trkpt>
      <trkpt lat="51.45491" lon="6.79007">
        <ele>32</ele>
        <time>2010-01-01T18:39:47Z</time>
      </trkpt>
      <trkpt lat="51.45433" lon="6.79155">
        <ele>34</ele>
        <time>2010-01-01T18:40:31Z</time>
      </trkpt>
      <trkpt lat="51.45323" lon="6.79179">
        <ele>33</ele>
        <time>2010-01-01T18:41:16Z</time>
      </trkpt>
      <trkpt lat="51.45201" lon="6.79244">
        <ele>29</ele>
        <time>2010-01-01T18:42:07Z</time>
      </trkpt>
      <trkpt lat="51.45176" lon="6.7922">
        <ele>28</ele>
        <time>2010-01-01T18:42:18Z</time>
      </trkpt>
      <trkpt lat="51.45166" lon="6.79227">
        <ele>28</ele>
        <time>2010-01-01T18:42:23Z</time>
      </trkpt>
      <trkpt lat="51.45161" lon="6.79376">
        <ele>27</ele>
        <time>2010-01-01T18:43:00Z</time>
      </trkpt>
      <trkpt lat="51.45116" lon="6.79693">
        <ele>28</ele>
        <time>2010-01-01T18:44:21Z</time>
      </trkpt>
      <trkpt lat="51.45098" lon="6.799">
        <ele>32</ele>
        <time>2010-01-01T18:45:14Z</time>
      </trkpt>
      <trkpt lat="51.45113" lon="6.80047">
        <ele>31</ele>
        <time>2010-01-01T18:45:51Z</time>
      </trkpt>
      <trkpt lat="51.45157" lon="6.80273">
        <ele>26</ele>
        <time>2010-01-01T18:46:50Z</time>
      </trkpt>
      <trkpt lat="51.45194" lon="6.80368">
        <ele>30</ele>
        <time>2010-01-01T18:47:18Z</time>
      </trkpt>
      <trkpt lat="51.45245" lon="6.80453">
        <ele>33</ele>
        <time>2010-01-01T18:47:47Z</time>
      </trkpt>
      <trkpt lat="51.45543" lon="6.80868">
        <ele>26</ele>
        <time>2010-01-01T18:50:25Z</time>
      </trkpt>
      <trkpt lat="51.45595" lon="6.80927">
        <ele>24</ele>
        <time>2010-01-01T18:50:51Z</time>
      </trkpt>
      <trkpt lat="51.45613" lon="6.80933">
        <ele>24</ele>
        <time>2010-01-01T18:50:58Z</time>
      </trkpt>
      <trkpt lat="51.45948" lon="6.80893">
        <ele>28</ele>
        <time>2010-01-01T18:53:12Z</time>
      </trkpt>
      <trkpt lat="51.45981" lon="6.80922">
        <ele>30</ele>
        <time>2010-01-01T18:53:28Z</time>
      </trkpt>
      <trkpt lat="51.46007" lon="6.80996">
        <ele>31</ele>
        <time>2010-01-01T18:53:49Z</time>
      </trkpt>
      <trkpt lat="51.45994" lon="6.81111">
        <ele>30</ele>
        <time>2010-01-01T18:54:18Z</time>
      </trkpt>
      <trkpt lat="51.46013" lon="6.81309">
        <ele>32</ele>
        <time>2010-01-01T18:55:08Z</time>
      </trkpt>
      <trkpt lat="51.45998" lon="6.81476">
        <ele>28</ele>
        <time>2010-01-01T18:55:50Z</time>
      </trkpt>
      <trkpt lat="51.45964" lon="6.8162">
        <ele>28</ele>
        <time>2010-01-01T18:56:28Z</time>
      </trkpt>
      <trkpt lat="51.45913" lon="6.81773">
        <ele>29</ele>
        <time>2010-01-01T18:57:11Z</time>
      </trkpt>
      <trkpt lat="51.45894" lon="6.81807">
        <ele>29</ele>
        <time>2010-01-01T18:57:23Z</time>
      </trkpt>
      <trkpt lat="51.45811" lon="6.81868">
        <ele>28</ele>
        <time>2010-01-01T18:57:59Z</time>
      </trkpt>
      <trkpt lat="51.45765" lon="6.81843">
        <ele>29</ele>
        <time>2010-01-01T18:58:19Z</time>
      </trkpt>
      <trkpt lat="51.45707" lon="6.81838">
        <ele>30</ele>
        <time>2010-01-01T18:58:42Z</time>
      </trkpt>
      <trkpt lat="51.4563" lon="6.82134">
        <ele>29</ele>
        <time>2010-01-01T19:00:02Z</time>
      </trkpt>
      <trkpt lat="51.45581" lon="6.82233">
        <ele>29</ele>
        <time>2010-01-01T19:00:33Z</time>
      </trkpt>
      <trkpt lat="51.45394" lon="6.82495">
        <ele>31</ele>
        <time>2010-01-01T19:02:13Z</time>
      </trkpt>
      <trkpt lat="51.45337" lon="6.82849">
        <ele>32</ele>
        <time>2010-01-01T19:03:44Z</time>
      </trkpt>
      <trkpt lat="51.45338" lon="6.82881">
        <ele>32</ele>
        <time>2010-01-01T19:03:52Z</time>
      </trkpt>
      <trkpt lat="51.45351" lon="6.82903">
        <ele>32</ele>
        <time>2010-01-01T19:04:00Z</time>
      </trkpt>
      <trkpt lat="51.45397" lon="6.82939">
        <ele>32</ele>
        <time>2010-01-01T19:04:20Z</time>
      </trkpt>
      <trkpt lat="51.45411" lon="6.83056">
        <ele>32</ele>
        <time>2010-01-01T19:04:50Z</time>
      </trkpt>
      <trkpt lat="51.45406" lon="6.83085">
        <ele>32</ele>
        <time>2010-01-01T19:04:58Z</time>
      </trkpt>
      <trkpt lat="51.45383" lon="6.83113">
        <ele>32</ele>
        <time>2010-01-01T19:05:09Z</time>
      </trkpt>
      <trkpt lat="51.4533" lon="6.83319">
        <ele>33</ele>
        <time>2010-01-01T19:06:05Z</time>
      </trkpt>
      <trkpt lat="51.4532" lon="6.83325">
        <ele>33</ele>
        <time>2010-01-01T19:06:09Z</time>
      </trkpt>
      <trkpt lat="51.45264" lon="6.83287">
        <ele>30</ele>
        <time>2010-01-01T19:06:33Z</time>
      </trkpt>
      <trkpt lat="51.45175" lon="6.8321">
        <ele>34</ele>
        <time>2010-01-01T19:07:14Z</time>
      </trkpt>
      <trkpt lat="51.45107" lon="6.83194">
        <ele>34</ele>
        <time>2010-01-01T19:07:41Z</time>
      </trkpt>
      <trkpt lat="51.44961" lon="6.83371">
        <ele>34</ele>
        <time>2010-01-01T19:08:54Z</time>
      </trkpt>
      <trkpt lat="51.44876" lon="6.83402">
        <ele>31</ele>
        <time>2010-01-01T19:09:29Z</time>
      </trkpt>
      <trkpt lat="51.44819" lon="6.83384">
        <ele>31</ele>
        <time>2010-01-01T19:09:53Z</time>
      </trkpt>
      <trkpt lat="51.44784" lon="6.83338">
        <ele>31</ele>
        <time>2010-01-01T19:10:11Z</time>
      </trkpt>
      <trkpt lat="51.44703" lon="6.83308">
        <ele>33</ele>
        <time>2010-01-01T19:10:44Z</time>
      </trkpt>
      <trkpt lat="51.44657" lon="6.83263">
        <ele>35</ele>
        <time>2010-01-01T19:11:06Z</time>
      </trkpt>
      <trkpt lat="51.44632" lon="6.83193">
        <ele>34</ele>
        <time>2010-01-01T19:11:25Z</time>
      </trkpt>
      <trkpt lat="51.44624" lon="6.83077">
        <ele>34</ele>
        <time>2010-01-01T19:11:54Z</time>
      </trkpt>
      <trkpt lat="51.44614" lon="6.83056">
        <ele>34</ele>
        <time>2010-01-01T19:12:01Z</time>
      </trkpt>
      <trkpt lat="51.44587" lon="6.83095">
        <ele>34</ele>
        <time>2010-01-01T19:12:16Z</time>
      </trkpt>
      <trkpt lat="51.44591" lon="6.83151">
        <ele>35</ele>
        <time>2010-01-01T19:12:30Z</time>
      </trkpt>
      <trkpt lat="51.44568" lon="6.83067">
        <ele>33</ele>
        <time>2010-01-01T19:12:53Z</time>
      </trkpt>
      <trkpt lat="51.44552" lon="6.83075">
        <ele>32</ele>
        <time>2010-01-01T19:12:59Z</time>
      </trkpt>
      <trkpt lat="51.4454" lon="6.83129">
        <ele>34</ele>
        <time>2010-01-01T19:13:14Z</time>
      </trkpt>
      <trkpt lat="51.44554" lon="6.83109">
        <ele>33</ele>
        <time>2010-01-01T19:13:21Z</time>
      </trkpt>
      <trkpt lat="51.44582" lon="6.83184">
        <ele>35</ele>
        <time>2010-01-01T19:13:43Z</time>
      </trkpt>
      <trkpt lat="51.44672" lon="6.84193">
        <ele>35</ele>
        <time>2010-01-01T19:17:57Z</time>
      </trkpt>
      <trkpt lat="51.44709" lon="6.84414">
        <ele>33</ele>
        <time>2010-01-01T19:18:54Z</time>
      </trkpt>
      <trkpt lat="51.44626" lon="6.84692">
        <ele>35</ele>
        <time>2010-01-01T19:20:11Z</time>
      </trkpt>
      <trkpt lat="51.44564" lon="6.84859">
        <ele>35</ele>
        <time>2010-01-01T19:20:59Z</time>
      </trkpt>
      <trkpt lat="51.44504" lon="6.84979">
        <ele>36</ele>
        <time>2010-01-01T19:21:38Z</time>
      </trkpt>
      <trkpt lat="51.44448" lon="6.85583">
        <ele>42</ele>
        <time>2010-01-01T19:24:10Z</time>
      </trkpt>
      <trkpt lat="51.44379" lon="6.85551">
        <ele>42</ele>
        <time>2010-01-01T19:24:39Z</time>
      </trkpt>
      <trkpt lat="51.44379" lon="6.85551">
        <ele>42</ele>
        <time>2010-01-01T19:24:39Z</time>
      </trkpt>
      <trkpt lat="51.4438" lon="6.85551">
        <ele>42</ele>
        <time>2010-01-01T19:24:39Z</time>
      </trkpt>
      <trkpt lat="51.4438" lon="6.85551">
        <ele>42</ele>
        <time>2010-01-01T19:24:39Z</time>
      </trkpt>
      <trkpt lat="51.4438" lon="6.85558">
        <ele>42</ele>
        <time>2010-01-01T19:24:41Z</time>
      </trkpt>
      <trkpt lat="51.44363" lon="6.8555">
        <ele>42</ele>
        <time>2010-01-01T19:24:48Z</time>
      </trkpt>
      <trkpt lat="51.44353" lon="6.85543">
        <ele>41</ele>
        <time>2010-01-01T19:24:52Z</time>
      </trkpt>
      <trkpt lat="51.44448" lon="6.85581">
        <ele>42</ele>
        <time>2010-01-01T19:25:31Z</time>
      </trkpt>
      <trkpt lat="51.44441" lon="6.85849">
        <ele>39</ele>
        <time>2010-01-01T19:26:38Z</time>
      </trkpt>
      <trkpt lat="51.44315" lon="6.85828">
        <ele>36</ele>
        <time>2010-01-01T19:27:28Z</time>
      </trkpt>
      <trkpt lat="51.44284" lon="6.85762">
        <ele>37</ele>
        <time>2010-01-01T19:27:49Z</time>
      </trkpt>
      <trkpt lat="51.44263" lon="6.85763">
        <ele>36</ele>
        <time>2010-01-01T19:27:58Z</time>
      </trkpt>
      <trkpt lat="51.44136" lon="6.85915">
        <ele>35</ele>
        <time>2010-01-01T19:29:01Z</time>
      </trkpt>
      <trkpt lat="51.4407" lon="6.86077">
        <ele>35</ele>
        <time>2010-01-01T19:29:50Z</time>
      </trkpt>
      <trkpt lat="51.43984" lon="6.86407">
        <ele>36</ele>
        <time>2010-01-01T19:31:19Z</time>
      </trkpt>
      <trkpt lat="51.43682" lon="6.86346">
        <ele>36</ele>
        <time>2010-01-01T19:33:21Z</time>
      </trkpt>
      <trkpt lat="51.43575" lon="6.86359">
        <ele>41</ele>
        <time>2010-01-01T19:34:04Z</time>
      </trkpt>
      <trkpt lat="51.4343" lon="6.86448">
        <ele>44</ele>
        <time>2010-01-01T19:35:06Z</time>
      </trkpt>
      <trkpt lat="51.4335" lon="6.86534">
        <ele>45</ele>
        <time>2010-01-01T19:35:45Z</time>
      </trkpt>
      <trkpt lat="51.43203" lon="6.86748">
        <ele>43</ele>
        <time>2010-01-01T19:37:04Z</time>
      </trkpt>
      <trkpt lat="51.43233" lon="6.86825">
        <ele>40</ele>
        <time>2010-01-01T19:37:27Z</time>
      </trkpt>
      <trkpt lat="51.43226" lon="6.86795">
        <ele>41</ele>
        <time>2010-01-01T19:37:35Z</time>
      </trkpt>
      <trkpt lat="51.43249" lon="6.86807">
        <ele>40</ele>
        <time>2010-01-01T19:37:45Z</time>
      </trkpt>
      <trkpt lat="51.43234" lon="6.86946">
        <ele>39</ele>
        <time>2010-01-01T19:38:20Z</time>
      </trkpt>
      <trkpt lat="51.43243" lon="6.87001">
        <ele>38</ele>
        <time>2010-01-01T19:38:34Z</time>
      </trkpt>
      <trkpt lat="51.43239" lon="6.87073">
        <ele>37</ele>
        <time>2010-01-01T19:38:52Z</time>
      </trkpt>
      <trkpt lat="51.43141" lon="6.87253">
        <ele>33</ele>
        <time>2010-01-01T19:39:52Z</time>
      </trkpt>
      <trkpt lat="51.43134" lon="6.87312">
        <ele>33</ele>
        <time>2010-01-01T19:40:07Z</time>
      </trkpt>
      <trkpt lat="51.4302" lon="6.87444">
        <ele>35</ele>
        <time>2010-01-01T19:41:03Z</time>
      </trkpt>
      <trkpt lat="51.42954" lon="6.87436">
        <ele>38</ele>
        <time>2010-01-01T19:41:29Z</time>
      </trkpt>
      <trkpt lat="51.42907" lon="6.87358">
        <ele>37</ele>
        <time>2010-01-01T19:41:57Z</time>
      </trkpt>
      <trkpt lat="51.4288" lon="6.87346">
        <ele>37</ele>
        <time>2010-01-01T19:42:08Z</time>
      </trkpt>
      <trkpt lat="51.42875" lon="6.87331">
        <ele>37</ele>
        <time>2010-01-01T19:42:12Z</time>
      </trkpt>
      <trkpt lat="51.42813" lon="6.87277">
        <ele>38</ele>
        <time>2010-01-01T19:42:40Z</time>
      </trkpt>
      <trkpt lat="51.42781" lon="6.87228">
        <ele>41</ele>
        <time>2010-01-01T19:42:58Z</time>
      </trkpt>
      <trkpt lat="51.4277" lon="6.87151">
        <ele>45</ele>
        <time>2010-01-01T19:43:18Z</time>
      </trkpt>
      <trkpt lat="51.42704" lon="6.87027">
        <ele>49</ele>
        <time>2010-01-01T19:43:58Z</time>
      </trkpt>
      <trkpt lat="51.42681" lon="6.87023">
        <ele>50</ele>
        <time>2010-01-01T19:44:08Z</time>
      </trkpt>
      <trkpt lat="51.42645" lon="6.87043">
        <ele>52</ele>
        <time>2010-01-01T19:44:23Z</time>
      </trkpt>
      <trkpt lat="51.42554" lon="6.8714">
        <ele>55</ele>
        <time>2010-01-01T19:45:07Z</time>
      </trkpt>
      <trkpt lat="51.42499" lon="6.87135">
        <ele>55</ele>
        <time>2010-01-01T19:45:29Z</time>
      </trkpt>
      <trkpt lat="51.42359" lon="6.87151">
        <ele>61</ele>
        <time>2010-01-01T19:46:25Z</time>
      </trkpt>
      <trkpt lat="51.42169" lon="6.87142">
        <ele>56</ele>
        <time>2010-01-01T19:47:41Z</time>
      </trkpt>
      <trkpt lat="51.42099" lon="6.87131">
        <ele>53</ele>
        <time>2010-01-01T19:48:09Z</time>
      </trkpt>
      <trkpt lat="51.42026" lon="6.87101">
        <ele>49</ele>
        <time>2010-01-01T19:48:39Z</time>
      </trkpt>
      <trkpt lat="51.41979" lon="6.87073">
        <ele>47</ele>
        <time>2010-01-01T19:49:00Z</time>
      </trkpt>
      <trkpt lat="51.41901" lon="6.8699">
        <ele>50</ele>
        <time>2010-01-01T19:49:37Z</time>
      </trkpt>
      <trkpt lat="51.41842" lon="6.86953">
        <ele>47</ele>
        <time>2010-01-01T19:50:02Z</time>
      </trkpt>
      <trkpt lat="51.418" lon="6.86966">
        <ele>45</ele>
        <time>2010-01-01T19:50:20Z</time>
      </trkpt>
      <trkpt lat="51.41759" lon="6.87046">
        <ele>41</ele>
        <time>2010-01-01T19:50:45Z</time>
      </trkpt>
      <trkpt lat="51.41689" lon="6.87086">
        <ele>37</ele>
        <time>2010-01-01T19:51:15Z</time>
      </trkpt>
      <trkpt lat="51.41649" lon="6.87135">
        <ele>36</ele>
        <time>2010-01-01T19:51:35Z</time>
      </trkpt>
      <trkpt lat="51.41533" lon="6.87224">
        <ele>37</ele>
        <time>2010-01-01T19:52:27Z</time>
      </trkpt>
      <trkpt lat="51.4151" lon="6.87209">
        <ele>38</ele>
        <time>2010-01-01T19:52:37Z</time>
      </trkpt>
      <trkpt lat="51.41475" lon="6.87148">
        <ele>41</ele>
        <time>2010-01-01T19:52:57Z</time>
      </trkpt>
      <trkpt lat="51.41437" lon="6.87152">
        <ele>40</ele>
        <time>2010-01-01T19:53:13Z</time>
      </trkpt>
      <trkpt lat="51.41115" lon="6.87533">
        <ele>40</ele>
        <time>2010-01-01T19:55:53Z</time>
      </trkpt>
      <trkpt lat="51.41048" lon="6.87585">
        <ele>41</ele>
        <time>2010-01-01T19:56:23Z</time>
      </trkpt>
      <trkpt lat="51.4099" lon="6.87667">
        <ele>41</ele>
        <time>2010-01-01T19:56:54Z</time>
      </trkpt>
      <trkpt lat="51.40982" lon="6.8771">
        <ele>40</ele>
        <time>2010-01-01T19:57:05Z</time>
      </trkpt>
      <trkpt lat="51.40989" lon="6.87759">
        <ele>39</ele>
        <time>2010-01-01T19:57:17Z</time>
      </trkpt>
      <trkpt lat="51.41125" lon="6.87849">
        <ele>38</ele>
        <time>2010-01-01T19:58:17Z</time>
      </trkpt>
      <trkpt lat="51.41138" lon="6.87866">
        <ele>38</ele>
        <time>2010-01-01T19:58:23Z</time>
      </trkpt>
      <trkpt lat="51.41158" lon="6.87935">
        <ele>39</ele>
        <time>2010-01-01T19:58:42Z</time>
      </trkpt>
      <trkpt lat="51.41177" lon="6.88076">
        <ele>38</ele>
        <time>2010-01-01T19:59:18Z</time>
      </trkpt>
      <trkpt lat="51.4113" lon="6.88516">
        <ele>38</ele>
        <time>2010-01-01T20:01:10Z</time>
      </trkpt>
      <trkpt lat="51.41048" lon="6.88684">
        <ele>39</ele>
        <time>2010-01-01T20:02:03Z</time>
      </trkpt>
      <trkpt lat="51.40965" lon="6.88783">
        <ele>37</ele>
        <time>2010-01-01T20:02:44Z</time>
      </trkpt>
      <trkpt lat="51.40939" lon="6.88795">
        <ele>37</ele>
        <time>2010-01-01T20:02:55Z</time>
      </trkpt>
      <trkpt lat="51.40836" lon="6.88788">
        <ele>36</ele>
        <time>2010-01-01T20:03:36Z</time>
      </trkpt>
      <trkpt lat="51.40757" lon="6.88768">
        <ele>36</ele>
        <time>2010-01-01T20:04:09Z</time>
      </trkpt>
      <trkpt lat="51.40723" lon="6.88883">
        <ele>39</ele>
        <time>2010-01-01T20:04:40Z</time>
      </trkpt>
      <trkpt lat="51.4069" lon="6.88925">
        <ele>42</ele>
        <time>2010-01-01T20:04:57Z</time>
      </trkpt>
      <trkpt lat="51.40658" lon="6.88936">
        <ele>42</ele>
        <time>2010-01-01T20:05:10Z</time>
      </trkpt>
      <trkpt lat="51.40621" lon="6.88938">
        <ele>41</ele>
        <time>2010-01-01T20:05:25Z</time>
      </trkpt>
      <trkpt lat="51.40428" lon="6.8889">
        <ele>38</ele>
        <time>2010-01-01T20:06:43Z</time>
      </trkpt>
      <trkpt lat="51.40286" lon="6.88945">
        <ele>36</ele>
        <time>2010-01-01T20:07:42Z</time>
      </trkpt>
      <trkpt lat="51.40024" lon="6.8879">
        <ele>39</ele>
        <time>2010-01-01T20:09:34Z</time>
      </trkpt>
      <trkpt lat="51.39597" lon="6.88818">
        <ele>37</ele>
        <time>2010-01-01T20:12:25Z</time>
      </trkpt>
      <trkpt lat="51.39498" lon="6.88838">
        <ele>37</ele>
        <time>2010-01-01T20:13:05Z</time>
      </trkpt>
      <trkpt lat="51.39325" lon="6.88911">
        <ele>38</ele>
        <time>2010-01-01T20:14:16Z</time>
      </trkpt>
      <trkpt lat="51.3906" lon="6.88963">
        <ele>39</ele>
        <time>2010-01-01T20:16:03Z</time>
      </trkpt>
      <trkpt lat="51.38765" lon="6.89141">
        <ele>40</ele>
        <time>2010-01-01T20:18:09Z</time>
      </trkpt>
      <trkpt lat="51.3867" lon="6.89223">
        <ele>38</ele>
        <time>2010-01-01T20:18:52Z</time>
      </trkpt>
      <trkpt lat="51.38496" lon="6.89404">
        <ele>39</ele>
        <time>2010-01-01T20:20:15Z</time>
      </trkpt>
      <trkpt lat="51.3833" lon="6.89441">
        <ele>40</ele>
        <time>2010-01-01T20:21:23Z</time>
      </trkpt>
      <trkpt lat="51.38289" lon="6.89463">
        <ele>40</ele>
        <time>2010-01-01T20:21:40Z</time>
      </trkpt>
      <trkpt lat="51.38116" lon="6.89633">
        <ele>40</ele>
        <time>2010-01-01T20:23:01Z</time>
      </trkpt>
      <trkpt lat="51.38031" lon="6.89696">
        <ele>42</ele>
        <time>2010-01-01T20:23:38Z</time>
      </trkpt>
      <trkpt lat="51.37971" lon="6.89589">
        <ele>43</ele>
        <time>2010-01-01T20:24:15Z</time>
      </trkpt>
      <trkpt lat="51.37925" lon="6.89641">
        <ele>42</ele>
        <time>2010-01-01T20:24:37Z</time>
      </trkpt>
      <trkpt lat="51.37893" lon="6.8962">
        <ele>42</ele>
        <time>2010-01-01T20:24:51Z</time>
      </trkpt>
      <trkpt lat="51.37849" lon="6.89548">
        <ele>43</ele>
        <time>2010-01-01T20:25:16Z</time>
      </trkpt>
      <trkpt lat="51.37762" lon="6.89451">
        <ele>63</ele>
        <time>2010-01-01T20:25:58Z</time>
      </trkpt>
      <trkpt lat="51.3773" lon="6.89477">
        <ele>64</ele>
        <time>2010-01-01T20:26:13Z</time>
      </trkpt>
      <trkpt lat="51.37555" lon="6.89702">
        <ele>59</ele>
        <time>2010-01-01T20:27:43Z</time>
      </trkpt>
      <trkpt lat="51.37256" lon="6.8998">
        <ele>58</ele>
        <time>2010-01-01T20:30:01Z</time>
      </trkpt>
      <trkpt lat="51.37209" lon="6.90014">
        <ele>55</ele>
        <time>2010-01-01T20:30:22Z</time>
      </trkpt>
      <trkpt lat="51.37161" lon="6.90081">
        <ele>54</ele>
        <time>2010-01-01T20:30:47Z</time>
      </trkpt>
      <trkpt lat="51.37148" lon="6.90146">
        <ele>52</ele>
        <time>2010-01-01T20:31:04Z</time>
      </trkpt>
      <trkpt lat="51.37227" lon="6.90538">
        <ele>43</ele>
        <time>2010-01-01T20:32:47Z</time>
      </trkpt>
      <trkpt lat="51.3721" lon="6.90604">
        <ele>41</ele>
        <time>2010-01-01T20:33:05Z</time>
      </trkpt>
      <trkpt lat="51.37097" lon="6.90838">
        <ele>39</ele>
        <time>2010-01-01T20:34:19Z</time>
      </trkpt>
      <trkpt lat="51.36963" lon="6.91175">
        <ele>41</ele>
        <time>2010-01-01T20:35:59Z</time>
      </trkpt>
      <trkpt lat="51.36878" lon="6.91421">
        <ele>40</ele>
        <time>2010-01-01T20:37:09Z</time>
      </trkpt>
      <trkpt lat="51.36688" lon="6.92177">
        <ele>40</ele>
        <time>2010-01-01T20:40:32Z</time>
      </trkpt>
      <trkpt lat="51.36497" lon="6.92566">
        <ele>41</ele>
        <time>2010-01-01T20:42:36Z</time>
      </trkpt>
      <trkpt lat="51.36338" lon="6.92962">
        <ele>45</ele>
        <time>2010-01-01T20:44:34Z</time>
      </trkpt>
      <trkpt lat="51.3611" lon="6.93301">
        <ele>47</ele>
        <time>2010-01-01T20:46:38Z</time>
      </trkpt>
      <trkpt lat="51.36099" lon="6.93224">
        <ele>48</ele>
        <time>2010-01-01T20:46:58Z</time>
      </trkpt>
      <trkpt lat="51.35977" lon="6.93175">
        <ele>47</ele>
        <time>2010-01-01T20:47:48Z</time>
      </trkpt>
      <trkpt lat="51.35942" lon="6.93249">
        <ele>46</ele>
        <time>2010-01-01T20:48:12Z</time>
      </trkpt>
      <trkpt lat="51.35894" lon="6.933">
        <ele>47</ele>
        <time>2010-01-01T20:48:35Z</time>
      </trkpt>
      <trkpt lat="51.35879" lon="6.93333">
        <ele>48</ele>
        <time>2010-01-01T20:48:45Z</time>
      </trkpt>
      <trkpt lat="51.35894" lon="6.93346">
        <ele>48</ele>
        <time>2010-01-01T20:48:52Z</time>
      </trkpt>
      <trkpt lat="51.3588" lon="6.93346">
        <ele>48</ele>
        <time>2010-01-01T20:48:57Z</time>
      </trkpt>
      <trkpt lat="51.35885" lon="6.9331">
        <ele>47</ele>
        <time>2010-01-01T20:49:07Z</time>
      </trkpt>
      <trkpt lat="51.3592" lon="6.93277">
        <ele>47</ele>
        <time>2010-01-01T20:49:23Z</time>
      </trkpt>
      <trkpt lat="51.35963" lon="6.93182">
        <ele>47</ele>
        <time>2010-01-01T20:49:52Z</time>
      </trkpt>
      <trkpt lat="51.35995" lon="6.93183">
        <ele>47</ele>
        <time>2010-01-01T20:50:05Z</time>
      </trkpt>
      <trkpt lat="51.36087" lon="6.93225">
        <ele>49</ele>
        <time>2010-01-01T20:50:43Z</time>
      </trkpt>
      <trkpt lat="51.36096" lon="6.93216">
        <ele>48</ele>
        <time>2010-01-01T20:50:48Z</time>
      </trkpt>
      <trkpt lat="51.36081" lon="6.9302">
        <ele>48</ele>
        <time>2010-01-01T20:51:37Z</time>
      </trkpt>
      <trkpt lat="51.36088" lon="6.92747">
        <ele>45</ele>
        <time>2010-01-01T20:52:45Z</time>
      </trkpt>
      <trkpt lat="51.36128" lon="6.92754">
        <ele>44</ele>
        <time>2010-01-01T20:53:02Z</time>
      </trkpt>
      <trkpt lat="51.36128" lon="6.92749">
        <ele>44</ele>
        <time>2010-01-01T20:53:03Z</time>
      </trkpt>
      <trkpt lat="51.36087" lon="6.92745">
        <ele>45</ele>
        <time>2010-01-01T20:53:19Z</time>
      </trkpt>
      <trkpt lat="51.36082" lon="6.93035">
        <ele>48</ele>
        <time>2010-01-01T20:54:32Z</time>
      </trkpt>
      <trkpt lat="51.35985" lon="6.93071">
        <ele>47</ele>
        <time>2010-01-01T20:55:11Z</time>
      </trkpt>
      <trkpt lat="51.35943" lon="6.93229">
        <ele>46</ele>
        <time>2010-01-01T20:55:54Z</time>
      </trkpt>
      <trkpt lat="51.3588" lon="6.93307">
        <ele>47</ele>
        <time>2010-01-01T20:56:26Z</time>
      </trkpt>
      <trkpt lat="51.35885" lon="6.93339">
        <ele>48</ele>
        <time>2010-01-01T20:56:34Z</time>
      </trkpt>
      <trkpt lat="51.36018" lon="6.93478">
        <ele>45</ele>
        <time>2010-01-01T20:57:38Z</time>
      </trkpt>
      <trkpt lat="51.36134" lon="6.93782">
        <ele>46</ele>
        <time>2010-01-01T20:59:07Z</time>
      </trkpt>
      <trkpt lat="51.35926" lon="6.94044">
        <ele>47</ele>
        <time>2010-01-01T21:00:53Z</time>
      </trkpt>
      <trkpt lat="51.35878" lon="6.94161">
        <ele>47</ele>
        <time>2010-01-01T21:01:28Z</time>
      </trkpt>
      <trkpt lat="51.35843" lon="6.9451">
        <ele>46</ele>
        <time>2010-01-01T21:02:56Z</time>
      </trkpt>
      <trkpt lat="51.35919" lon="6.94817">
        <ele>46</ele>
        <time>2010-01-01T21:04:19Z</time>
      </trkpt>
      <trkpt lat="51.36247" lon="6.9542">
        <ele>47</ele>
        <time>2010-01-01T21:07:39Z</time>
      </trkpt>
      <trkpt lat="51.36727" lon="6.96042">
        <ele>50</ele>
        <time>2010-01-01T21:11:46Z</time>
      </trkpt>
      <trkpt lat="51.36899" lon="6.96162">
        <ele>51</ele>
        <time>2010-01-01T21:13:01Z</time>
      </trkpt>
      <trkpt lat="51.37319" lon="6.96153">
        <ele>50</ele>
        <time>2010-01-01T21:15:49Z</time>
      </trkpt>
      <trkpt lat="51.37317" lon="6.96161">
        <ele>48</ele>
        <time>2010-01-01T21:15:51Z</time>
      </trkpt>
      <trkpt lat="51.37324" lon="6.96154">
        <ele>49</ele>
        <time>2010-01-01T21:15:55Z</time>
      </trkpt>
      <trkpt lat="51.37365" lon="6.96161">
        <ele>48</ele>
        <time>2010-01-01T21:16:11Z</time>
      </trkpt>
      <trkpt lat="51.37475" lon="6.96258">
        <ele>45</ele>
        <time>2010-01-01T21:17:02Z</time>
      </trkpt>
      <trkpt lat="51.37553" lon="6.96406">
        <ele>44</ele>
        <time>2010-01-01T21:17:50Z</time>
      </trkpt>
      <trkpt lat="51.37704" lon="6.97098">
        <ele>45</ele>
        <time>2010-01-01T21:20:53Z</time>
      </trkpt>
      <trkpt lat="51.37782" lon="6.9804">
        <ele>47</ele>
        <time>2010-01-01T21:24:50Z</time>
      </trkpt>
      <trkpt lat="51.38" lon="6.98618">
        <ele>45</ele>
        <time>2010-01-01T21:27:39Z</time>
      </trkpt>
      <trkpt lat="51.38103" lon="6.99389">
        <ele>46</ele>
        <time>2010-01-01T21:30:56Z</time>
      </trkpt>
      <trkpt lat="51.38195" lon="6.99644">
        <ele>49</ele>
        <time>2010-01-01T21:32:10Z</time>
      </trkpt>
      <trkpt lat="51.38293" lon="6.99825">
        <ele>53</ele>
        <time>2010-01-01T21:33:10Z</time>
      </trkpt>
      <trkpt lat="51.38425" lon="6.99931">
        <ele>48</ele>
        <time>2010-01-01T21:34:09Z</time>
      </trkpt>
      <trkpt lat="51.38399" lon="6.99907">
        <ele>48</ele>
        <time>2010-01-01T21:34:21Z</time>
      </trkpt>
      <trkpt lat="51.38484" lon="6.9973">
        <ele>55</ele>
        <time>2010-01-01T21:35:17Z</time>
      </trkpt>
      <trkpt lat="51.38615" lon="6.99798">
        <ele>54</ele>
        <time>2010-01-01T21:36:12Z</time>
      </trkpt>
      <trkpt lat="51.38682" lon="6.99881">
        <ele>51</ele>
        <time>2010-01-01T21:36:46Z</time>
      </trkpt>
      <trkpt lat="51.3872" lon="6.99874">
        <ele>51</ele>
        <time>2010-01-01T21:37:01Z</time>
      </trkpt>
      <trkpt lat="51.38733" lon="6.99974">
        <ele>50</ele>
        <time>2010-01-01T21:37:27Z</time>
      </trkpt>
      <trkpt lat="51.38786" lon="7.00054">
        <ele>52</ele>
        <time>2010-01-01T21:37:56Z</time>
      </trkpt>
      <trkpt lat="51.38975" lon="7.00056">
        <ele>52</ele>
        <time>2010-01-01T21:39:12Z</time>
      </trkpt>
      <trkpt lat="51.39001" lon="7.00234">
        <ele>57</ele>
        <time>2010-01-01T21:39:57Z</time>
      </trkpt>
      <trkpt lat="51.39214" lon="7.00106">
        <ele>56</ele>
        <time>2010-01-01T21:41:28Z</time>
      </trkpt>
      <trkpt lat="51.39347" lon="6.99984">
        <ele>49</ele>
        <time>2010-01-01T21:42:29Z</time>
      </trkpt>
      <trkpt lat="51.39748" lon="7.00389">
        <ele>58</ele>
        <time>2010-01-01T21:45:39Z</time>
      </trkpt>
      <trkpt lat="51.39823" lon="7.00482">
        <ele>60</ele>
        <time>2010-01-01T21:46:17Z</time>
      </trkpt>
      <trkpt lat="51.39861" lon="7.00585">
        <ele>64</ele>
        <time>2010-01-01T21:46:47Z</time>
      </trkpt>
      <trkpt lat="51.39933" lon="7.0106">
        <ele>64</ele>
        <time>2010-01-01T21:48:49Z</time>
      </trkpt>
      <trkpt lat="51.40018" lon="7.0123">
        <ele>60</ele>
        <time>2010-01-01T21:49:44Z</time>
      </trkpt>
      <trkpt lat="51.40065" lon="7.01501">
        <ele>56</ele>
        <time>2010-01-01T21:50:54Z</time>
      </trkpt>
      <trkpt lat="51.40175" lon="7.01782">
        <ele>53</ele>
        <time>2010-01-01T21:52:17Z</time>
      </trkpt>
      <trkpt lat="51.40198" lon="7.01961">
        <ele>59</ele>
        <time>2010-01-01T21:53:03Z</time>
      </trkpt>
      <trkpt lat="51.40193" lon="7.0241">
        <ele>67</ele>
        <time>2010-01-01T21:54:55Z</time>
      </trkpt>
      <trkpt lat="51.40302" lon="7.02928">
        <ele>57</ele>
        <time>2010-01-01T21:57:11Z</time>
      </trkpt>
      <trkpt lat="51.40331" lon="7.03189">
        <ele>58</ele>
        <time>2010-01-01T21:58:17Z</time>
      </trkpt>
      <trkpt lat="51.40263" lon="7.03849">
        <ele>55</ele>
        <time>2010-01-01T22:01:04Z</time>
      </trkpt>
      <trkpt lat="51.4005" lon="7.0443">
        <ele>59</ele>
        <time>2010-01-01T22:03:53Z</time>
      </trkpt>
      <trkpt lat="51.39842" lon="7.04746">
        <ele>58</ele>
        <time>2010-01-01T22:05:47Z</time>
      </trkpt>
      <trkpt lat="51.3974" lon="7.04733">
        <ele>59</ele>
        <time>2010-01-01T22:06:28Z</time>
      </trkpt>
      <trkpt lat="51.39722" lon="7.04848">
        <ele>60</ele>
        <time>2010-01-01T22:06:58Z</time>
      </trkpt>
      <trkpt lat="51.39739" lon="7.04944">
        <ele>58</ele>
        <time>2010-01-01T22:07:23Z</time>
      </trkpt>
      <trkpt lat="51.39459" lon="7.05467">
        <ele>63</ele>
        <time>2010-01-01T22:10:15Z</time>
      </trkpt>
      <trkpt lat="51.39291" lon="7.05652">
        <ele>65</ele>
        <time>2010-01-01T22:11:37Z</time>
      </trkpt>
      <trkpt lat="51.39217" lon="7.05779">
        <ele>60</ele>
        <time>2010-01-01T22:12:20Z</time>
      </trkpt>
      <trkpt lat="51.38973" lon="7.06007">
        <ele>68</ele>
        <time>2010-01-01T22:14:13Z</time>
      </trkpt>
      <trkpt lat="51.38874" lon="7.06131">
        <ele>69</ele>
        <time>2010-01-01T22:15:04Z</time>
      </trkpt>
      <trkpt lat="51.38743" lon="7.06367">
        <ele>61</ele>
        <time>2010-01-01T22:16:22Z</time>
      </trkpt>
      <trkpt lat="51.3864" lon="7.06723">
        <ele>58</ele>
        <time>2010-01-01T22:18:00Z</time>
      </trkpt>
      <trkpt lat="51.38675" lon="7.07214">
        <ele>70</ele>
        <time>2010-01-01T22:20:04Z</time>
      </trkpt>
      <trkpt lat="51.38779" lon="7.07494">
        <ele>69</ele>
        <time>2010-01-01T22:21:25Z</time>
      </trkpt>
      <trkpt lat="51.38817" lon="7.07533">
        <ele>61</ele>
        <time>2010-01-01T22:21:43Z</time>
      </trkpt>
      <trkpt lat="51.39176" lon="7.07599">
        <ele>53</ele>
        <time>2010-01-01T22:24:08Z</time>
      </trkpt>
      <trkpt lat="51.3929" lon="7.0767">
        <ele>55</ele>
        <time>2010-01-01T22:24:57Z</time>
      </trkpt>
      <trkpt lat="51.3926" lon="7.07651">
        <ele>55</ele>
        <time>2010-01-01T22:25:10Z</time>
      </trkpt>
      <trkpt lat="51.3918" lon="7.07309">
        <ele>57</ele>
        <time>2010-01-01T22:26:41Z</time>
      </trkpt>
      <trkpt lat="51.39261" lon="7.07272">
        <ele>62</ele>
        <time>2010-01-01T22:27:14Z</time>
      </trkpt>
      <trkpt lat="51.39454" lon="7.0746">
        <ele>62</ele>
        <time>2010-01-01T22:28:45Z</time>
      </trkpt>
      <trkpt lat="51.39667" lon="7.07554">
        <ele>66</ele>
        <time>2010-01-01T22:30:13Z</time>
      </trkpt>
      <trkpt lat="51.39721" lon="7.07603">
        <ele>62</ele>
        <time>2010-01-01T22:30:38Z</time>
      </trkpt>
      <trkpt lat="51.39803" lon="7.0762">
        <ele>61</ele>
        <time>2010-01-01T22:31:11Z</time>
      </trkpt>
      <trkpt lat="51.40019" lon="7.07576">
        <ele>63</ele>
        <time>2010-01-01T22:32:38Z</time>
      </trkpt>
      <trkpt lat="51.40278" lon="7.07581">
        <ele>60</ele>
        <time>2010-01-01T22:34:22Z</time>
      </trkpt>
      <trkpt lat="51.40682" lon="7.07481">
        <ele>60</ele>
        <time>2010-01-01T22:37:05Z</time>
      </trkpt>
      <trkpt lat="51.40718" lon="7.07556">
        <ele>60</ele>
        <time>2010-01-01T22:37:29Z</time>
      </trkpt>
      <trkpt lat="51.40685" lon="7.07662">
        <ele>59</ele>
        <time>2010-01-01T22:37:59Z</time>
      </trkpt>
      <trkpt lat="51.40688" lon="7.07824">
        <ele>59</ele>
        <time>2010-01-01T22:38:39Z</time>
      </trkpt>
      <trkpt lat="51.40724" lon="7.07857">
        <ele>57</ele>
        <time>2010-01-01T22:38:55Z</time>
      </trkpt>
      <trkpt lat="51.409" lon="7.07758">
        <ele>57</ele>
        <time>2010-01-01T22:40:10Z</time>
      </trkpt>
      <trkpt lat="51.40969" lon="7.07924">
        <ele>55</ele>
        <time>2010-01-01T22:41:00Z</time>
      </trkpt>
      <trkpt lat="51.40972" lon="7.07889">
        <ele>55</ele>
        <time>2010-01-01T22:41:09Z</time>
      </trkpt>
      <trkpt lat="51.40999" lon="7.0794">
        <ele>56</ele>
        <time>2010-01-01T22:41:25Z</time>
      </trkpt>
      <trkpt lat="51.41119" lon="7.07743">
        <ele>52</ele>
        <time>2010-01-01T22:42:34Z</time>
      </trkpt>
      <trkpt lat="51.41436" lon="7.07331">
        <ele>51</ele>
        <time>2010-01-01T22:45:18Z</time>
      </trkpt>
      <trkpt lat="51.41609" lon="7.06988">
        <ele>56</ele>
        <time>2010-01-01T22:47:08Z</time>
      </trkpt>
      <trkpt lat="51.41823" lon="7.06702">
        <ele>54</ele>
        <time>2010-01-01T22:48:59Z</time>
      </trkpt>
      <trkpt lat="51.41864" lon="7.0674">
        <ele>53</ele>
        <time>2010-01-01T22:49:18Z</time>
      </trkpt>
      <trkpt lat="51.41933" lon="7.06661">
        <ele>55</ele>
        <time>2010-01-01T22:49:52Z</time>
      </trkpt>
      <trkpt lat="51.42024" lon="7.06698">
        <ele>53</ele>
        <time>2010-01-01T22:50:30Z</time>
      </trkpt>
      <trkpt lat="51.42348" lon="7.05852">
        <ele>58</ele>
        <time>2010-01-01T22:54:38Z</time>
      </trkpt>
      <trkpt lat="51.42469" lon="7.05644">
        <ele>60</ele>
        <time>2010-01-01T22:55:49Z</time>
      </trkpt>
      <trkpt lat="51.42678" lon="7.05582">
        <ele>63</ele>
        <time>2010-01-01T22:57:14Z</time>
      </trkpt>
      <trkpt lat="51.42837" lon="7.05582">
        <ele>58</ele>
        <time>2010-01-01T22:58:18Z</time>
      </trkpt>
      <trkpt lat="51.42922" lon="7.05625">
        <ele>59</ele>
        <time>2010-01-01T22:58:53Z</time>
      </trkpt>
      <trkpt lat="51.4313" lon="7.05569">
        <ele>62</ele>
        <time>2010-01-01T23:00:18Z</time>
      </trkpt>
      <trkpt lat="51.43302" lon="7.05739">
        <ele>59</ele>
        <time>2010-01-01T23:01:38Z</time>
      </trkpt>
      <trkpt lat="51.43668" lon="7.05967">
        <ele>67</ele>
        <time>2010-01-01T23:04:16Z</time>
      </trkpt>
      <trkpt lat="51.43925" lon="7.06243">
        <ele>58</ele>
        <time>2010-01-01T23:06:20Z</time>
      </trkpt>
      <trkpt lat="51.44136" lon="7.06644">
        <ele>59</ele>
        <time>2010-01-01T23:08:30Z</time>
      </trkpt>
      <trkpt lat="51.44269" lon="7.06985">
        <ele>57</ele>
        <time>2010-01-01T23:10:11Z</time>
      </trkpt>
      <trkpt lat="51.44394" lon="7.07602">
        <ele>59</ele>
        <time>2010-01-01T23:12:53Z</time>
      </trkpt>
      <trkpt lat="51.44348" lon="7.0765">
        <ele>56</ele>
        <time>2010-01-01T23:13:15Z</time>
      </trkpt>
      <trkpt lat="51.44208" lon="7.07649">
        <ele>57</ele>
        <time>2010-01-01T23:14:11Z</time>
      </trkpt>
      <trkpt lat="51.44257" lon="7.07638">
        <ele>58</ele>
        <time>2010-01-01T23:14:31Z</time>
      </trkpt>
      <trkpt lat="51.44268" lon="7.07662">
        <ele>57</ele>
        <time>2010-01-01T23:14:38Z</time>
      </trkpt>
      <trkpt lat="51.44253" lon="7.07996">
        <ele>57</ele>
        <time>2010-01-01T23:16:02Z</time>
      </trkpt>
      <trkpt lat="51.4421" lon="7.08138">
        <ele>56</ele>
        <time>2010-01-01T23:16:41Z</time>
      </trkpt>
      <trkpt lat="51.44057" lon="7.08323">
        <ele>53</ele>
        <time>2010-01-01T23:17:58Z</time>
      </trkpt>
      <trkpt lat="51.43908" lon="7.08376">
        <ele>56</ele>
        <time>2010-01-01T23:18:59Z</time>
      </trkpt>
      <trkpt lat="51.43735" lon="7.08382">
        <ele>58</ele>
        <time>2010-01-01T23:20:08Z</time>
      </trkpt>
      <trkpt lat="51.4346" lon="7.08528">
        <ele>70</ele>
        <time>2010-01-01T23:22:04Z</time>
      </trkpt>
      <trkpt lat="51.43061" lon="7.08791">
        <ele>71</ele>
        <time>2010-01-01T23:24:57Z</time>
      </trkpt>
      <trkpt lat="51.4301" lon="7.08861">
        <ele>63</ele>
        <time>2010-01-01T23:25:24Z</time>
      </trkpt>
      <trkpt lat="51.42938" lon="7.09533">
        <ele>57</ele>
        <time>2010-01-01T23:28:14Z</time>
      </trkpt>
      <trkpt lat="51.42843" lon="7.09988">
        <ele>59</ele>
        <time>2010-01-01T23:30:14Z</time>
      </trkpt>
      <trkpt lat="51.42834" lon="7.10191">
        <ele>59</ele>
        <time>2010-01-01T23:31:04Z</time>
      </trkpt>
      <trkpt lat="51.42871" lon="7.10924">
        <ele>59</ele>
        <time>2010-01-01T23:34:08Z</time>
      </trkpt>
      <trkpt lat="51.42859" lon="7.11298">
        <ele>58</ele>
        <time>2010-01-01T23:35:41Z</time>
      </trkpt>
      <trkpt lat="51.43063" lon="7.12003">
        <ele>62</ele>
        <time>2010-01-01T23:38:55Z</time>
      </trkpt>
      <trkpt lat="51.43043" lon="7.12486">
        <ele>58</ele>
        <time>2010-01-01T23:40:56Z</time>
      </trkpt>
      <trkpt lat="51.42955" lon="7.12831">
        <ele>55</ele>
        <time>2010-01-01T23:42:29Z</time>
      </trkpt>
      <trkpt lat="51.4287" lon="7.13033">
        <ele>59</ele>
        <time>2010-01-01T23:43:30Z</time>
      </trkpt>
      <trkpt lat="51.42525" lon="7.13658">
        <ele>60</ele>
        <time>2010-01-01T23:46:58Z</time>
      </trkpt>
      <trkpt lat="51.4234" lon="7.14185">
        <ele>58</ele>
        <time>2010-01-01T23:49:29Z</time>
      </trkpt>
      <trkpt lat="51.42264" lon="7.14281">
        <ele>58</ele>
        <time>2010-01-01T23:50:08Z</time>
      </trkpt>
      <trkpt lat="51.42208" lon="7.14279">
        <ele>59</ele>
        <time>2010-01-01T23:50:31Z</time>
      </trkpt>
      <trkpt lat="51.42162" lon="7.14399">
        <ele>60</ele>
        <time>2010-01-01T23:51:06Z</time>
      </trkpt>
      <trkpt lat="51.4217" lon="7.14464">
        <ele>59</ele>
        <time>2010-01-01T23:51:22Z</time>
      </trkpt>
      <trkpt lat="51.42009" lon="7.14746">
        <ele>63</ele>
        <time>2010-01-01T23:52:58Z</time>
      </trkpt>
      <trkpt lat="51.41925" lon="7.14828">
        <ele>61</ele>
        <time>2010-01-01T23:53:37Z</time>
      </trkpt>
      <trkpt lat="51.41817" lon="7.14849">
        <ele>60</ele>
        <time>2010-01-01T23:54:21Z</time>
      </trkpt>
      <trkpt lat="51.41403" lon="7.14641">
        <ele>62</ele>
        <time>2010-01-01T23:57:14Z</time>
      </trkpt>
      <trkpt lat="51.4117" lon="7.14595">
        <ele>68</ele>
        <time>2010-01-01T23:58:48Z</time>
      </trkpt>
      <trkpt lat="51.40909" lon="7.14638">
        <ele>64</ele>
        <time>2010-01-02T00:00:33Z</time>
      </trkpt>
      <trkpt lat="51.40638" lon="7.1475">
        <ele>63</ele>
        <time>2010-01-02T00:02:25Z</time>
      </trkpt>
      <trkpt lat="51.40489" lon="7.1477">
        <ele>66</ele>
        <time>2010-01-02T00:03:25Z</time>
      </trkpt>
      <trkpt lat="51.39933" lon="7.14763">
        <ele>67</ele>
        <time>2010-01-02T00:07:08Z</time>
      </trkpt>
      <trkpt lat="51.39462" lon="7.15028">
        <ele>62</ele>
        <time>2010-01-02T00:10:28Z</time>
      </trkpt>
      <trkpt lat="51.39053" lon="7.15359">
        <ele>64</ele>
        <time>2010-01-02T00:13:31Z</time>
      </trkpt>
      <trkpt lat="51.39008" lon="7.15341">
        <ele>68</ele>
        <time>2010-01-02T00:13:49Z</time>
      </trkpt>
      <trkpt lat="51.3894" lon="7.15469">
        <ele>80</ele>
        <time>2010-01-02T00:14:31Z</time>
      </trkpt>
      <trkpt lat="51.38798" lon="7.15594">
        <ele>70</ele>
        <time>2010-01-02T00:15:36Z</time>
      </trkpt>
      <trkpt lat="51.38725" lon="7.1575">
        <ele>73</ele>
        <time>2010-01-02T00:16:25Z</time>
      </trkpt>
      <trkpt lat="51.38726" lon="7.15974">
        <ele>89</ele>
        <time>2010-01-02T00:17:21Z</time>
      </trkpt>
      <trkpt lat="51.38819" lon="7.16198">
        <ele>66</ele>
        <time>2010-01-02T00:18:28Z</time>
      </trkpt>
      <trkpt lat="51.38889" lon="7.16261">
        <ele>64</ele>
        <time>2010-01-02T00:19:00Z</time>
      </trkpt>
      <trkpt lat="51.39145" lon="7.16371">
        <ele>63</ele>
        <time>2010-01-02T00:20:46Z</time>
      </trkpt>
      <trkpt lat="51.3929" lon="7.16372">
        <ele>62</ele>
        <time>2010-01-02T00:21:44Z</time>
      </trkpt>
      <trkpt lat="51.39635" lon="7.16317">
        <ele>63</ele>
        <time>2010-01-02T00:24:03Z</time>
      </trkpt>
      <trkpt lat="51.40221" lon="7.16105">
        <ele>67</ele>
        <time>2010-01-02T00:28:03Z</time>
      </trkpt>
      <trkpt lat="51.40323" lon="7.16141">
        <ele>68</ele>
        <time>2010-01-02T00:28:45Z</time>
      </trkpt>
      <trkpt lat="51.40418" lon="7.16215">
        <ele>67</ele>
        <time>2010-01-02T00:29:28Z</time>
      </trkpt>
      <trkpt lat="51.40484" lon="7.16286">
        <ele>69</ele>
        <time>2010-01-02T00:29:59Z</time>
      </trkpt>
      <trkpt lat="51.40531" lon="7.16429">
        <ele>66</ele>
        <time>2010-01-02T00:30:40Z</time>
      </trkpt>
      <trkpt lat="51.40543" lon="7.16618">
        <ele>64</ele>
        <time>2010-01-02T00:31:27Z</time>
      </trkpt>
      <trkpt lat="51.4047" lon="7.16983">
        <ele>68</ele>
        <time>2010-01-02T00:33:03Z</time>
      </trkpt>
      <trkpt lat="51.40414" lon="7.17024">
        <ele>65</ele>
        <time>2010-01-02T00:33:27Z</time>
      </trkpt>
      <trkpt lat="51.4042" lon="7.16982">
        <ele>66</ele>
        <time>2010-01-02T00:33:38Z</time>
      </trkpt>
      <trkpt lat="51.40382" lon="7.16961">
        <ele>67</ele>
        <time>2010-01-02T00:33:54Z</time>
      </trkpt>
      <trkpt lat="51.40394" lon="7.16937">
        <ele>66</ele>
        <time>2010-01-02T00:34:02Z</time>
      </trkpt>
      <trkpt lat="51.4037" lon="7.16943">
        <ele>67</ele>
        <time>2010-01-02T00:34:11Z</time>
      </trkpt>
      <trkpt lat="51.4045" lon="7.16909">
        <ele>66</ele>
        <time>2010-01-02T00:34:44Z</time>
      </trkpt>
      <trkpt lat="51.40547" lon="7.16921">
        <ele>65</ele>
        <time>2010-01-02T00:35:23Z</time>
      </trkpt>
      <trkpt lat="51.40638" lon="7.16984">
        <ele>66</ele>
        <time>2010-01-02T00:36:03Z</time>
      </trkpt>
      <trkpt lat="51.40737" lon="7.17118">
        <ele>68</ele>
        <time>2010-01-02T00:36:55Z</time>
      </trkpt>
      <trkpt lat="51.40733" lon="7.17146">
        <ele>67</ele>
        <time>2010-01-02T00:37:02Z</time>
      </trkpt>
      <trkpt lat="51.40669" lon="7.17033">
        <ele>66</ele>
        <time>2010-01-02T00:37:40Z</time>
      </trkpt>
      <trkpt lat="51.40614" lon="7.17017">
        <ele>66</ele>
        <time>2010-01-02T00:38:02Z</time>
      </trkpt>
      <trkpt lat="51.40562" lon="7.17142">
        <ele>67</ele>
        <time>2010-01-02T00:38:40Z</time>
      </trkpt>
      <trkpt lat="51.40593" lon="7.17292">
        <ele>60</ele>
        <time>2010-01-02T00:39:19Z</time>
      </trkpt>
      <trkpt lat="51.40761" lon="7.17616">
        <ele>65</ele>
        <time>2010-01-02T00:41:04Z</time>
      </trkpt>
      <trkpt lat="51.41009" lon="7.18002">
        <ele>61</ele>
        <time>2010-01-02T00:43:23Z</time>
      </trkpt>
      <trkpt lat="51.41165" lon="7.18207">
        <ele>67</ele>
        <time>2010-01-02T00:44:43Z</time>
      </trkpt>
      <trkpt lat="51.41281" lon="7.18293">
        <ele>74</ele>
        <time>2010-01-02T00:45:34Z</time>
      </trkpt>
      <trkpt lat="51.41915" lon="7.18435">
        <ele>82</ele>
        <time>2010-01-02T00:49:51Z</time>
      </trkpt>
      <trkpt lat="51.41915" lon="7.18529">
        <ele>81</ele>
        <time>2010-01-02T00:50:14Z</time>
      </trkpt>
      <trkpt lat="51.42125" lon="7.19007">
        <ele>90</ele>
        <time>2010-01-02T00:52:40Z</time>
      </trkpt>
      <trkpt lat="51.42303" lon="7.19496">
        <ele>94</ele>
        <time>2010-01-02T00:55:02Z</time>
      </trkpt>
      <trkpt lat="51.42404" lon="7.1999">
        <ele>94</ele>
        <time>2010-01-02T00:57:11Z</time>
      </trkpt>
      <trkpt lat="51.42392" lon="7.20247">
        <ele>84</ele>
        <time>2010-01-02T00:58:16Z</time>
      </trkpt>
      <trkpt lat="51.42272" lon="7.21048">
        <ele>75</ele>
        <time>2010-01-02T01:01:41Z</time>
      </trkpt>
      <trkpt lat="51.42143" lon="7.21046">
        <ele>74</ele>
        <time>2010-01-02T01:02:33Z</time>
      </trkpt>
      <trkpt lat="51.42139" lon="7.21169">
        <ele>74</ele>
        <time>2010-01-02T01:03:04Z</time>
      </trkpt>
      <trkpt lat="51.4203" lon="7.21563">
        <ele>70</ele>
        <time>2010-01-02T01:04:51Z</time>
      </trkpt>
      <trkpt lat="51.41983" lon="7.21921">
        <ele>71</ele>
        <time>2010-01-02T01:06:23Z</time>
      </trkpt>
      <trkpt lat="51.41874" lon="7.22361">
        <ele>72</ele>
        <time>2010-01-02T01:08:21Z</time>
      </trkpt>
      <trkpt lat="51.41836" lon="7.22377">
        <ele>72</ele>
        <time>2010-01-02T01:08:37Z</time>
      </trkpt>
      <trkpt lat="51.41699" lon="7.22296">
        <ele>70</ele>
        <time>2010-01-02T01:09:35Z</time>
      </trkpt>
      <trkpt lat="51.41687" lon="7.22309">
        <ele>70</ele>
        <time>2010-01-02T01:09:41Z</time>
      </trkpt>
      <trkpt lat="51.41633" lon="7.2264">
        <ele>69</ele>
        <time>2010-01-02T01:11:07Z</time>
      </trkpt>
      <trkpt lat="51.41521" lon="7.23014">
        <ele>73</ele>
        <time>2010-01-02T01:12:50Z</time>
      </trkpt>
      <trkpt lat="51.4148" lon="7.2311">
        <ele>74</ele>
        <time>2010-01-02T01:13:19Z</time>
      </trkpt>
      <trkpt lat="51.41454" lon="7.23119">
        <ele>72</ele>
        <time>2010-01-02T01:13:30Z</time>
      </trkpt>
      <trkpt lat="51.41388" lon="7.23073">
        <ele>69</ele>
        <time>2010-01-02T01:13:59Z</time>
      </trkpt>
      <trkpt lat="51.41361" lon="7.2309">
        <ele>69</ele>
        <time>2010-01-02T01:14:10Z</time>
      </trkpt>
      <trkpt lat="51.41354" lon="7.23296">
        <ele>72</ele>
        <time>2010-01-02T01:15:02Z</time>
      </trkpt>
      <trkpt lat="51.41286" lon="7.23351">
        <ele>72</ele>
        <time>2010-01-02T01:15:32Z</time>
      </trkpt>
      <trkpt lat="51.41248" lon="7.23442">
        <ele>70</ele>
        <time>2010-01-02T01:15:59Z</time>
      </trkpt>
      <trkpt lat="51.41239" lon="7.2409">
        <ele>77</ele>
        <time>2010-01-02T01:18:41Z</time>
      </trkpt>
      <trkpt lat="51.41187" lon="7.24473">
        <ele>72</ele>
        <time>2010-01-02T01:20:19Z</time>
      </trkpt>
      <trkpt lat="51.4118" lon="7.24781">
        <ele>73</ele>
        <time>2010-01-02T01:21:36Z</time>
      </trkpt>
      <trkpt lat="51.4122" lon="7.24978">
        <ele>72</ele>
        <time>2010-01-02T01:22:28Z</time>
      </trkpt>
      <trkpt lat="51.41292" lon="7.25092">
        <ele>73</ele>
        <time>2010-01-02T01:23:08Z</time>
      </trkpt>
      <trkpt lat="51.41354" lon="7.25108">
        <ele>77</ele>
        <time>2010-01-02T01:23:33Z</time>
      </trkpt>
      <trkpt lat="51.41358" lon="7.25108">
        <ele>77</ele>
        <time>2010-01-02T01:23:35Z</time>
      </trkpt>
      <trkpt lat="51.41388" lon="7.25084">
        <ele>82</ele>
        <time>2010-01-02T01:23:48Z</time>
      </trkpt>
      <trkpt lat="51.41431" lon="7.25209">
        <ele>79</ele>
        <time>2010-01-02T01:24:24Z</time>
      </trkpt>
      <trkpt lat="51.41553" lon="7.25327">
        <ele>79</ele>
        <time>2010-01-02T01:25:21Z</time>
      </trkpt>
      <trkpt lat="51.41933" lon="7.25463">
        <ele>83</ele>
        <time>2010-01-02T01:27:57Z</time>
      </trkpt>
      <trkpt lat="51.41996" lon="7.25524">
        <ele>79</ele>
        <time>2010-01-02T01:28:26Z</time>
      </trkpt>
      <trkpt lat="51.42053" lon="7.25517">
        <ele>79</ele>
        <time>2010-01-02T01:28:49Z</time>
      </trkpt>
      <trkpt lat="51.42088" lon="7.2548">
        <ele>80</ele>
        <time>2010-01-02T01:29:06Z</time>
      </trkpt>
      <trkpt lat="51.42291" lon="7.25832">
        <ele>89</ele>
        <time>2010-01-02T01:31:05Z</time>
      </trkpt>
      <trkpt lat="51.42362" lon="7.26111">
        <ele>76</ele>
        <time>2010-01-02T01:32:21Z</time>
      </trkpt>
      <trkpt lat="51.42396" lon="7.26147">
        <ele>74</ele>
        <time>2010-01-02T01:32:37Z</time>
      </trkpt>
      <trkpt lat="51.42546" lon="7.26188">
        <ele>90</ele>
        <time>2010-01-02T01:33:38Z</time>
      </trkpt>
      <trkpt lat="51.42775" lon="7.26539">
        <ele>93</ele>
        <time>2010-01-02T01:35:45Z</time>
      </trkpt>
      <trkpt lat="51.42926" lon="7.26849">
        <ele>83</ele>
        <time>2010-01-02T01:37:23Z</time>
      </trkpt>
      <trkpt lat="51.43071" lon="7.26938">
        <ele>92</ele>
        <time>2010-01-02T01:38:25Z</time>
      </trkpt>
      <trkpt lat="51.43351" lon="7.2742">
        <ele>91</ele>
        <time>2010-01-02T01:41:09Z</time>
      </trkpt>
      <trkpt lat="51.43398" lon="7.27443">
        <ele>91</ele>
        <time>2010-01-02T01:41:29Z</time>
      </trkpt>
      <trkpt lat="51.43466" lon="7.27429">
        <ele>97</ele>
        <time>2010-01-02T01:41:57Z</time>
      </trkpt>
      <trkpt lat="51.43625" lon="7.2754">
        <ele>89</ele>
        <time>2010-01-02T01:43:06Z</time>
      </trkpt>
      <trkpt lat="51.43774" lon="7.27824">
        <ele>79</ele>
        <time>2010-01-02T01:44:39Z</time>
      </trkpt>
      <trkpt lat="51.438" lon="7.27899">
        <ele>78</ele>
        <time>2010-01-02T01:45:00Z</time>
      </trkpt>
      <trkpt lat="51.43775" lon="7.27972">
        <ele>75</ele>
        <time>2010-01-02T01:45:21Z</time>
      </trkpt>
      <trkpt lat="51.43817" lon="7.28106">
        <ele>77</ele>
        <time>2010-01-02T01:45:58Z</time>
      </trkpt>
      <trkpt lat="51.43809" lon="7.28218">
        <ele>77</ele>
        <time>2010-01-02T01:46:26Z</time>
      </trkpt>
      <trkpt lat="51.43721" lon="7.28274">
        <ele>76</ele>
        <time>2010-01-02T01:47:04Z</time>
      </trkpt>
      <trkpt lat="51.43622" lon="7.28199">
        <ele>75</ele>
        <time>2010-01-02T01:47:48Z</time>
      </trkpt>
      <trkpt lat="51.43504" lon="7.27824">
        <ele>80</ele>
        <time>2010-01-02T01:49:33Z</time>
      </trkpt>
      <trkpt lat="51.43405" lon="7.27813">
        <ele>75</ele>
        <time>2010-01-02T01:50:12Z</time>
      </trkpt>
      <trkpt lat="51.43313" lon="7.27757">
        <ele>72</ele>
        <time>2010-01-02T01:50:52Z</time>
      </trkpt>
      <trkpt lat="51.43254" lon="7.27768">
        <ele>73</ele>
        <time>2010-01-02T01:51:16Z</time>
      </trkpt>
      <trkpt lat="51.4323" lon="7.28107">
        <ele>75</ele>
        <time>2010-01-02T01:52:41Z</time>
      </trkpt>
      <trkpt lat="51.4312" lon="7.28542">
        <ele>77</ele>
        <time>2010-01-02T01:54:38Z</time>
      </trkpt>
      <trkpt lat="51.42927" lon="7.28984">
        <ele>76</ele>
        <time>2010-01-02T01:56:53Z</time>
      </trkpt>
      <trkpt lat="51.42831" lon="7.29096">
        <ele>76</ele>
        <time>2010-01-02T01:57:40Z</time>
      </trkpt>
      <trkpt lat="51.42784" lon="7.29009">
        <ele>76</ele>
        <time>2010-01-02T01:58:09Z</time>
      </trkpt>
      <trkpt lat="51.42717" lon="7.29008">
        <ele>77</ele>
        <time>2010-01-02T01:58:36Z</time>
      </trkpt>
      <trkpt lat="51.4253" lon="7.29133">
        <ele>78</ele>
        <time>2010-01-02T01:59:57Z</time>
      </trkpt>
      <trkpt lat="51.42535" lon="7.29205">
        <ele>78</ele>
        <time>2010-01-02T02:00:15Z</time>
      </trkpt>
      <trkpt lat="51.425" lon="7.29225">
        <ele>78</ele>
        <time>2010-01-02T02:00:30Z</time>
      </trkpt>
      <trkpt lat="51.42422" lon="7.29172">
        <ele>75</ele>
        <time>2010-01-02T02:01:04Z</time>
      </trkpt>
      <trkpt lat="51.42195" lon="7.29416">
        <ele>72</ele>
        <time>2010-01-02T02:02:53Z</time>
      </trkpt>
      <trkpt lat="51.4213" lon="7.29607">
        <ele>72</ele>
        <time>2010-01-02T02:03:47Z</time>
      </trkpt>
      <trkpt lat="51.42123" lon="7.29787">
        <ele>73</ele>
        <time>2010-01-02T02:04:32Z</time>
      </trkpt>
      <trkpt lat="51.42242" lon="7.30079">
        <ele>75</ele>
        <time>2010-01-02T02:05:59Z</time>
      </trkpt>
      <trkpt lat="51.42267" lon="7.30132">
        <ele>76</ele>
        <time>2010-01-02T02:06:16Z</time>
      </trkpt>
      <trkpt lat="51.42239" lon="7.30163">
        <ele>77</ele>
        <time>2010-01-02T02:06:30Z</time>
      </trkpt>
      <trkpt lat="51.42243" lon="7.30321">
        <ele>87</ele>
        <time>2010-01-02T02:07:09Z</time>
      </trkpt>
      <trkpt lat="51.42876" lon="7.31095">
        <ele>84</ele>
        <time>2010-01-02T02:12:28Z</time>
      </trkpt>
      <trkpt lat="51.42988" lon="7.31527">
        <ele>86</ele>
        <time>2010-01-02T02:14:25Z</time>
      </trkpt>
      <trkpt lat="51.4301" lon="7.31805">
        <ele>84</ele>
        <time>2010-01-02T02:15:34Z</time>
      </trkpt>
      <trkpt lat="51.42993" lon="7.32164">
        <ele>86</ele>
        <time>2010-01-02T02:17:04Z</time>
      </trkpt>
      <trkpt lat="51.42961" lon="7.32293">
        <ele>84</ele>
        <time>2010-01-02T02:17:39Z</time>
      </trkpt>
      <trkpt lat="51.42733" lon="7.32956">
        <ele>87</ele>
        <time>2010-01-02T02:20:48Z</time>
      </trkpt>
      <trkpt lat="51.42538" lon="7.33648">
        <ele>94</ele>
        <time>2010-01-02T02:23:57Z</time>
      </trkpt>
      <trkpt lat="51.42401" lon="7.3432">
        <ele>93</ele>
        <time>2010-01-02T02:26:54Z</time>
      </trkpt>
      <trkpt lat="51.4227" lon="7.34671">
        <ele>91</ele>
        <time>2010-01-02T02:28:36Z</time>
      </trkpt>
      <trkpt lat="51.4221" lon="7.34776">
        <ele>90</ele>
        <time>2010-01-02T02:29:12Z</time>
      </trkpt>
      <trkpt lat="51.42112" lon="7.34876">
        <ele>89</ele>
        <time>2010-01-02T02:29:58Z</time>
      </trkpt>
      <trkpt lat="51.41935" lon="7.34932">
        <ele>87</ele>
        <time>2010-01-02T02:31:10Z</time>
      </trkpt>
      <trkpt lat="51.4183" lon="7.34901">
        <ele>88</ele>
        <time>2010-01-02T02:31:53Z</time>
      </trkpt>
      <trkpt lat="51.41302" lon="7.3451">
        <ele>97</ele>
        <time>2010-01-02T02:35:46Z</time>
      </trkpt>
      <trkpt lat="51.40973" lon="7.34387">
        <ele>97</ele>
        <time>2010-01-02T02:38:01Z</time>
      </trkpt>
      <trkpt lat="51.409" lon="7.3442">
        <ele>89</ele>
        <time>2010-01-02T02:38:31Z</time>
      </trkpt>
      <trkpt lat="51.40842" lon="7.34319">
        <ele>104</ele>
        <time>2010-01-02T02:39:06Z</time>
      </trkpt>
      <trkpt lat="51.40794" lon="7.34301">
        <ele>108</ele>
        <time>2010-01-02T02:39:25Z</time>
      </trkpt>
      <trkpt lat="51.40745" lon="7.34344">
        <ele>104</ele>
        <time>2010-01-02T02:39:48Z</time>
      </trkpt>
      <trkpt lat="51.40648" lon="7.34369">
        <ele>102</ele>
        <time>2010-01-02T02:40:27Z</time>
      </trkpt>
      <trkpt lat="51.40454" lon="7.3452">
        <ele>98</ele>
        <time>2010-01-02T02:41:54Z</time>
      </trkpt>
      <trkpt lat="51.40243" lon="7.34535">
        <ele>89</ele>
        <time>2010-01-02T02:43:18Z</time>
      </trkpt>
      <trkpt lat="51.40266" lon="7.34773">
        <ele>86</ele>
        <time>2010-01-02T02:44:18Z</time>
      </trkpt>
      <trkpt lat="51.40122" lon="7.34974">
        <ele>89</ele>
        <time>2010-01-02T02:45:35Z</time>
      </trkpt>
      <trkpt lat="51.39943" lon="7.35578">
        <ele>86</ele>
        <time>2010-01-02T02:48:22Z</time>
      </trkpt>
      <trkpt lat="51.39472" lon="7.3626">
        <ele>88</ele>
        <time>2010-01-02T02:52:36Z</time>
      </trkpt>
      <trkpt lat="51.39362" lon="7.36392">
        <ele>87</ele>
        <time>2010-01-02T02:53:31Z</time>
      </trkpt>
      <trkpt lat="51.3929" lon="7.36437">
        <ele>87</ele>
        <time>2010-01-02T02:54:02Z</time>
      </trkpt>
      <trkpt lat="51.39216" lon="7.36636">
        <ele>87</ele>
        <time>2010-01-02T02:55:00Z</time>
      </trkpt>
      <trkpt lat="51.39181" lon="7.36657">
        <ele>88</ele>
        <time>2010-01-02T02:55:14Z</time>
      </trkpt>
      <trkpt lat="51.39061" lon="7.37174">
        <ele>85</ele>
        <time>2010-01-02T02:57:32Z</time>
      </trkpt>
      <trkpt lat="51.39033" lon="7.3741">
        <ele>86</ele>
        <time>2010-01-02T02:58:32Z</time>
      </trkpt>
      <trkpt lat="51.38946" lon="7.37615">
        <ele>85</ele>
        <time>2010-01-02T02:59:34Z</time>
      </trkpt>
      <trkpt lat="51.38799" lon="7.37835">
        <ele>85</ele>
        <time>2010-01-02T03:00:55Z</time>
      </trkpt>
      <trkpt lat="51.38448" lon="7.38214">
        <ele>88</ele>
        <time>2010-01-02T03:03:44Z</time>
      </trkpt>
      <trkpt lat="51.38477" lon="7.38425">
        <ele>91</ele>
        <time>2010-01-02T03:04:38Z</time>
      </trkpt>
      <trkpt lat="51.38265" lon="7.38447">
        <ele>88</ele>
        <time>2010-01-02T03:06:03Z</time>
      </trkpt>
      <trkpt lat="51.38112" lon="7.3841">
        <ele>86</ele>
        <time>2010-01-02T03:07:05Z</time>
      </trkpt>
      <trkpt lat="51.38065" lon="7.3844">
        <ele>85</ele>
        <time>2010-01-02T03:07:25Z</time>
      </trkpt>
      <trkpt lat="51.3801" lon="7.38539">
        <ele>85</ele>
        <time>2010-01-02T03:07:58Z</time>
      </trkpt>
      <trkpt lat="51.38009" lon="7.38694">
        <ele>86</ele>
        <time>2010-01-02T03:08:37Z</time>
      </trkpt>
      <trkpt lat="51.38119" lon="7.38833">
        <ele>89</ele>
        <time>2010-01-02T03:09:33Z</time>
      </trkpt>
      <trkpt lat="51.38069" lon="7.39118">
        <ele>95</ele>
        <time>2010-01-02T03:10:47Z</time>
      </trkpt>
      <trkpt lat="51.38084" lon="7.39173">
        <ele>95</ele>
        <time>2010-01-02T03:11:02Z</time>
      </trkpt>
      <trkpt lat="51.37952" lon="7.39273">
        <ele>93</ele>
        <time>2010-01-02T03:12:01Z</time>
      </trkpt>
      <trkpt lat="51.37943" lon="7.39307">
        <ele>93</ele>
        <time>2010-01-02T03:12:10Z</time>
      </trkpt>
      <trkpt lat="51.38049" lon="7.39726">
        <ele>95</ele>
        <time>2010-01-02T03:14:03Z</time>
      </trkpt>
      <trkpt lat="51.38211" lon="7.39986">
        <ele>95</ele>
        <time>2010-01-02T03:15:35Z</time>
      </trkpt>
      <trkpt lat="51.38318" lon="7.40057">
        <ele>92</ele>
        <time>2010-01-02T03:16:21Z</time>
      </trkpt>
      <trkpt lat="51.38393" lon="7.40025">
        <ele>93</ele>
        <time>2010-01-02T03:16:52Z</time>
      </trkpt>
      <trkpt lat="51.38565" lon="7.40024">
        <ele>96</ele>
        <time>2010-01-02T03:18:01Z</time>
      </trkpt>
      <trkpt lat="51.38825" lon="7.40167">
        <ele>105</ele>
        <time>2010-01-02T03:19:51Z</time>
      </trkpt>
      <trkpt lat="51.39181" lon="7.3996">
        <ele>107</ele>
        <time>2010-01-02T03:22:23Z</time>
      </trkpt>
      <trkpt lat="51.39256" lon="7.39852">
        <ele>126</ele>
        <time>2010-01-02T03:23:03Z</time>
      </trkpt>
      <trkpt lat="51.39324" lon="7.39814">
        <ele>123</ele>
        <time>2010-01-02T03:23:32Z</time>
      </trkpt>
      <trkpt lat="51.39495" lon="7.39801">
        <ele>120</ele>
        <time>2010-01-02T03:24:40Z</time>
      </trkpt>
      <trkpt lat="51.39576" lon="7.39855">
        <ele>108</ele>
        <time>2010-01-02T03:25:16Z</time>
      </trkpt>
      <trkpt lat="51.39664" lon="7.3996">
        <ele>104</ele>
        <time>2010-01-02T03:26:00Z</time>
      </trkpt>
      <trkpt lat="51.40097" lon="7.40649">
        <ele>100</ele>
        <time>2010-01-02T03:30:04Z</time>
      </trkpt>
      <trkpt lat="51.4022" lon="7.41107">
        <ele>95</ele>
        <time>2010-01-02T03:32:08Z</time>
      </trkpt>
      <trkpt lat="51.40216" lon="7.41586">
        <ele>93</ele>
        <time>2010-01-02T03:34:08Z</time>
      </trkpt>
      <trkpt lat="51.40013" lon="7.423">
        <ele>93</ele>
        <time>2010-01-02T03:37:24Z</time>
      </trkpt>
      <trkpt lat="51.39945" lon="7.42246">
        <ele>94</ele>
        <time>2010-01-02T03:37:54Z</time>
      </trkpt>
      <trkpt lat="51.39754" lon="7.42516">
        <ele>90</ele>
        <time>2010-01-02T03:39:36Z</time>
      </trkpt>
      <trkpt lat="51.39678" lon="7.42696">
        <ele>91</ele>
        <time>2010-01-02T03:40:31Z</time>
      </trkpt>
      <trkpt lat="51.39448" lon="7.43645">
        <ele>93</ele>
        <time>2010-01-02T03:44:45Z</time>
      </trkpt>
      <trkpt lat="51.39494" lon="7.43991">
        <ele>92</ele>
        <time>2010-01-02T03:46:13Z</time>
      </trkpt>
      <trkpt lat="51.39965" lon="7.44933">
        <ele>100</ele>
        <time>2010-01-02T03:51:15Z</time>
      </trkpt>
      <trkpt lat="51.40023" lon="7.45247">
        <ele>99</ele>
        <time>2010-01-02T03:52:36Z</time>
      </trkpt>
      <trkpt lat="51.40066" lon="7.45249">
        <ele>100</ele>
        <time>2010-01-02T03:52:54Z</time>
      </trkpt>
      <trkpt lat="51.40285" lon="7.45419">
        <ele>101</ele>
        <time>2010-01-02T03:54:31Z</time>
      </trkpt>
      <trkpt lat="51.40424" lon="7.45426">
        <ele>98</ele>
        <time>2010-01-02T03:55:26Z</time>
      </trkpt>
      <trkpt lat="51.40598" lon="7.45595">
        <ele>99</ele>
        <time>2010-01-02T03:56:48Z</time>
      </trkpt>
      <trkpt lat="51.40874" lon="7.45775">
        <ele>99</ele>
        <time>2010-01-02T03:58:47Z</time>
      </trkpt>
      <trkpt lat="51.41149" lon="7.46153">
        <ele>101</ele>
        <time>2010-01-02T04:01:12Z</time>
      </trkpt>
      <trkpt lat="51.41247" lon="7.46342">
        <ele>99</ele>
        <time>2010-01-02T04:02:14Z</time>
      </trkpt>
      <trkpt lat="51.41462" lon="7.46993">
        <ele>101</ele>
        <time>2010-01-02T04:05:18Z</time>
      </trkpt>
      <trkpt lat="51.41537" lon="7.47795">
        <ele>101</ele>
        <time>2010-01-02T04:08:40Z</time>
      </trkpt>
      <trkpt lat="51.41473" lon="7.48097">
        <ele>102</ele>
        <time>2010-01-02T04:09:59Z</time>
      </trkpt>
      <trkpt lat="51.41455" lon="7.48928">
        <ele>101</ele>
        <time>2010-01-02T04:13:27Z</time>
      </trkpt>
      <trkpt lat="51.41492" lon="7.49063">
        <ele>100</ele>
        <time>2010-01-02T04:14:04Z</time>
      </trkpt>
      <trkpt lat="51.41469" lon="7.49161">
        <ele>100</ele>
        <time>2010-01-02T04:14:30Z</time>
      </trkpt>
      <trkpt lat="51.41395" lon="7.49144">
        <ele>99</ele>
        <time>2010-01-02T04:15:00Z</time>
      </trkpt>
      <trkpt lat="51.4123" lon="7.49217">
        <ele>100</ele>
        <time>2010-01-02T04:16:08Z</time>
      </trkpt>
      <trkpt lat="51.40888" lon="7.49305">
        <ele>104</ele>
        <time>2010-01-02T04:18:27Z</time>
      </trkpt>
      <trkpt lat="51.40414" lon="7.4934">
        <ele>107</ele>
        <time>2010-01-02T04:21:37Z</time>
      </trkpt>
      <trkpt lat="51.40204" lon="7.49463">
        <ele>103</ele>
        <time>2010-01-02T04:23:07Z</time>
      </trkpt>
      <trkpt lat="51.40444" lon="7.49285">
        <ele>106</ele>
        <time>2010-01-02T04:24:53Z</time>
      </trkpt>
      <trkpt lat="51.40486" lon="7.49673">
        <ele>108</ele>
        <time>2010-01-02T04:26:31Z</time>
      </trkpt>
      <trkpt lat="51.4058" lon="7.49692">
        <ele>112</ele>
        <time>2010-01-02T04:27:09Z</time>
      </trkpt>
      <trkpt lat="51.40773" lon="7.4964">
        <ele>112</ele>
        <time>2010-01-02T04:28:27Z</time>
      </trkpt>
      <trkpt lat="51.4097" lon="7.49503">
        <ele>108</ele>
        <time>2010-01-02T04:29:53Z</time>
      </trkpt>
      <trkpt lat="51.41081" lon="7.49535">
        <ele>104</ele>
        <time>2010-01-02T04:30:38Z</time>
      </trkpt>
      <trkpt lat="51.41107" lon="7.49569">
        <ele>105</ele>
        <time>2010-01-02T04:30:52Z</time>
      </trkpt>
      <trkpt lat="51.41174" lon="7.49794">
        <ele>108</ele>
        <time>2010-01-02T04:31:54Z</time>
      </trkpt>
      <trkpt lat="51.41244" lon="7.502">
        <ele>104</ele>
        <time>2010-01-02T04:33:39Z</time>
      </trkpt>
      <trkpt lat="51.41201" lon="7.50976">
        <ele>101</ele>
        <time>2010-01-02T04:36:53Z</time>
      </trkpt>
      <trkpt lat="51.41211" lon="7.51328">
        <ele>102</ele>
        <time>2010-01-02T04:38:22Z</time>
      </trkpt>
      <trkpt lat="51.4118" lon="7.51464">
        <ele>103</ele>
        <time>2010-01-02T04:38:58Z</time>
      </trkpt>
      <trkpt lat="51.41548" lon="7.51781">
        <ele>102</ele>
        <time>2010-01-02T04:41:45Z</time>
      </trkpt>
      <trkpt lat="51.41606" lon="7.5186">
        <ele>103</ele>
        <time>2010-01-02T04:42:15Z</time>
      </trkpt>
      <trkpt lat="51.41679" lon="7.52248">
        <ele>104</ele>
        <time>2010-01-02T04:43:56Z</time>
      </trkpt>
      <trkpt lat="51.41666" lon="7.52459">
        <ele>104</ele>
        <time>2010-01-02T04:44:49Z</time>
      </trkpt>
      <trkpt lat="51.41559" lon="7.52823">
        <ele>105</ele>
        <time>2010-01-02T04:46:30Z</time>
      </trkpt>
      <trkpt lat="51.41464" lon="7.53333">
        <ele>106</ele>
        <time>2010-01-02T04:48:43Z</time>
      </trkpt>
      <trkpt lat="51.41688" lon="7.53538">
        <ele>113</ele>
        <time>2010-01-02T04:50:26Z</time>
      </trkpt>
      <trkpt lat="51.41836" lon="7.53994">
        <ele>116</ele>
        <time>2010-01-02T04:52:34Z</time>
      </trkpt>
      <trkpt lat="51.41891" lon="7.53978">
        <ele>117</ele>
        <time>2010-01-02T04:52:57Z</time>
      </trkpt>
      <trkpt lat="51.41919" lon="7.53996">
        <ele>120</ele>
        <time>2010-01-02T04:53:09Z</time>
      </trkpt>
      <trkpt lat="51.42005" lon="7.54217">
        <ele>123</ele>
        <time>2010-01-02T04:54:13Z</time>
      </trkpt>
      <trkpt lat="51.42036" lon="7.54214">
        <ele>123</ele>
        <time>2010-01-02T04:54:26Z</time>
      </trkpt>
      <trkpt lat="51.42131" lon="7.54377">
        <ele>118</ele>
        <time>2010-01-02T04:55:22Z</time>
      </trkpt>
      <trkpt lat="51.42151" lon="7.54626">
        <ele>112</ele>
        <time>2010-01-02T04:56:24Z</time>
      </trkpt>
      <trkpt lat="51.42166" lon="7.54655">
        <ele>113</ele>
        <time>2010-01-02T04:56:34Z</time>
      </trkpt>
      <trkpt lat="51.42241" lon="7.54647">
        <ele>116</ele>
        <time>2010-01-02T04:57:04Z</time>
      </trkpt>
      <trkpt lat="51.4223" lon="7.54749">
        <ele>114</ele>
        <time>2010-01-02T04:57:29Z</time>
      </trkpt>
      <trkpt lat="51.42119" lon="7.54817">
        <ele>109</ele>
        <time>2010-01-02T04:58:17Z</time>
      </trkpt>
      <trkpt lat="51.42136" lon="7.54967">
        <ele>108</ele>
        <time>2010-01-02T04:58:55Z</time>
      </trkpt>
      <trkpt lat="51.42309" lon="7.55209">
        <ele>110</ele>
        <time>2010-01-02T05:00:27Z</time>
      </trkpt>
      <trkpt lat="51.42371" lon="7.55377">
        <ele>115</ele>
        <time>2010-01-02T05:01:16Z</time>
      </trkpt>
      <trkpt lat="51.42373" lon="7.55505">
        <ele>118</ele>
        <time>2010-01-02T05:01:47Z</time>
      </trkpt>
      <trkpt lat="51.42452" lon="7.55793">
        <ele>107</ele>
        <time>2010-01-02T05:03:06Z</time>
      </trkpt>
      <trkpt lat="51.42517" lon="7.55858">
        <ele>106</ele>
        <time>2010-01-02T05:03:37Z</time>
      </trkpt>
      <trkpt lat="51.42566" lon="7.55796">
        <ele>110</ele>
        <time>2010-01-02T05:04:02Z</time>
      </trkpt>
      <trkpt lat="51.42726" lon="7.55921">
        <ele>110</ele>
        <time>2010-01-02T05:05:13Z</time>
      </trkpt>
      <trkpt lat="51.4273" lon="7.56008">
        <ele>108</ele>
        <time>2010-01-02T05:05:35Z</time>
      </trkpt>
      <trkpt lat="51.42823" lon="7.56101">
        <ele>109</ele>
        <time>2010-01-02T05:06:19Z</time>
      </trkpt>
      <trkpt lat="51.42811" lon="7.56167">
        <ele>109</ele>
        <time>2010-01-02T05:06:36Z</time>
      </trkpt>
      <trkpt lat="51.42923" lon="7.5642">
        <ele>106</ele>
        <time>2010-01-02T05:07:53Z</time>
      </trkpt>
      <trkpt lat="51.42999" lon="7.56529">
        <ele>106</ele>
        <time>2010-01-02T05:08:34Z</time>
      </trkpt>
      <trkpt lat="51.4322" lon="7.56694">
        <ele>108</ele>
        <time>2010-01-02T05:10:12Z</time>
      </trkpt>
      <trkpt lat="51.4341" lon="7.56758">
        <ele>107</ele>
        <time>2010-01-02T05:11:29Z</time>
      </trkpt>
      <trkpt lat="51.43539" lon="7.56852">
        <ele>108</ele>
        <time>2010-01-02T05:12:26Z</time>
      </trkpt>
      <trkpt lat="51.43819" lon="7.56886">
        <ele>114</ele>
        <time>2010-01-02T05:14:18Z</time>
      </trkpt>
      <trkpt lat="51.43857" lon="7.56924">
        <ele>114</ele>
        <time>2010-01-02T05:14:36Z</time>
      </trkpt>
      <trkpt lat="51.43939" lon="7.56752">
        <ele>118</ele>
        <time>2010-01-02T05:15:30Z</time>
      </trkpt>
      <trkpt lat="51.43993" lon="7.56737">
        <ele>119</ele>
        <time>2010-01-02T05:15:52Z</time>
      </trkpt>
      <trkpt lat="51.44095" lon="7.56914">
        <ele>119</ele>
        <time>2010-01-02T05:16:52Z</time>
      </trkpt>
      <trkpt lat="51.44064" lon="7.56968">
        <ele>118</ele>
        <time>2010-01-02T05:17:11Z</time>
      </trkpt>
      <trkpt lat="51.44062" lon="7.57185">
        <ele>110</ele>
        <time>2010-01-02T05:18:05Z</time>
      </trkpt>
      <trkpt lat="51.44155" lon="7.57245">
        <ele>111</ele>
        <time>2010-01-02T05:18:45Z</time>
      </trkpt>
      <trkpt lat="51.44191" lon="7.5723">
        <ele>111</ele>
        <time>2010-01-02T05:19:00Z</time>
      </trkpt>
      <trkpt lat="51.443" lon="7.57341">
        <ele>111</ele>
        <time>2010-01-02T05:19:52Z</time>
      </trkpt>
      <trkpt lat="51.44095" lon="7.57751">
        <ele>108</ele>
        <time>2010-01-02T05:22:03Z</time>
      </trkpt>
      <trkpt lat="51.44246" lon="7.58306">
        <ele>103</ele>
        <time>2010-01-02T05:24:34Z</time>
      </trkpt>
      <trkpt lat="51.4429" lon="7.58698">
        <ele>108</ele>
        <time>2010-01-02T05:26:14Z</time>
      </trkpt>
      <trkpt lat="51.4434" lon="7.58688">
        <ele>108</ele>
        <time>2010-01-02T05:26:34Z</time>
      </trkpt>
      <trkpt lat="51.4435" lon="7.58707">
        <ele>108</ele>
        <time>2010-01-02T05:26:40Z</time>
      </trkpt>
      <trkpt lat="51.44363" lon="7.59161">
        <ele>107</ele>
        <time>2010-01-02T05:28:33Z</time>
      </trkpt>
      <trkpt lat="51.45113" lon="7.62077">
        <ele>109</ele>
        <time>2010-01-02T05:41:40Z</time>
      </trkpt>
      <trkpt lat="51.45133" lon="7.62256">
        <ele>108</ele>
        <time>2010-01-02T05:42:26Z</time>
      </trkpt>
      <trkpt lat="51.45115" lon="7.62641">
        <ele>109</ele>
        <time>2010-01-02T05:44:02Z</time>
      </trkpt>
      <trkpt lat="51.45155" lon="7.62787">
        <ele>112</ele>
        <time>2010-01-02T05:44:42Z</time>
      </trkpt>
      <trkpt lat="51.45702" lon="7.62622">
        <ele>119</ele>
        <time>2010-01-02T05:48:24Z</time>
      </trkpt>
      <trkpt lat="51.45791" lon="7.62562">
        <ele>121</ele>
        <time>2010-01-02T05:49:03Z</time>
      </trkpt>
      <trkpt lat="51.45945" lon="7.62342">
        <ele>124</ele>
        <time>2010-01-02T05:50:26Z</time>
      </trkpt>
      <trkpt lat="51.45996" lon="7.62349">
        <ele>125</ele>
        <time>2010-01-02T05:50:46Z</time>
      </trkpt>
      <trkpt lat="51.46037" lon="7.62324">
        <ele>124</ele>
        <time>2010-01-02T05:51:04Z</time>
      </trkpt>
      <trkpt lat="51.46132" lon="7.62211">
        <ele>125</ele>
        <time>2010-01-02T05:51:51Z</time>
      </trkpt>
      <trkpt lat="51.46381" lon="7.62522">
        <ele>128</ele>
        <time>2010-01-02T05:53:58Z</time>
      </trkpt>
      <trkpt lat="51.46467" lon="7.62367">
        <ele>128</ele>
        <time>2010-01-02T05:54:49Z</time>
      </trkpt>
      <trkpt lat="51.46461" lon="7.62294">
        <ele>128</ele>
        <time>2010-01-02T05:55:08Z</time>
      </trkpt>
      <trkpt lat="51.4651" lon="7.62344">
        <ele>128</ele>
        <time>2010-01-02T05:55:31Z</time>
      </trkpt>
      <trkpt lat="51.46568" lon="7.6249">
        <ele>128</ele>
        <time>2010-01-02T05:56:14Z</time>
      </trkpt>
      <trkpt lat="51.46594" lon="7.6249">
        <ele>128</ele>
        <time>2010-01-02T05:56:24Z</time>
      </trkpt>
      <trkpt lat="51.46591" lon="7.62355">
        <ele>128</ele>
        <time>2010-01-02T05:56:58Z</time>
      </trkpt>
      <trkpt lat="51.4669" lon="7.62013">
        <ele>133</ele>
        <time>2010-01-02T05:58:32Z</time>
      </trkpt>
      <trkpt lat="51.46775" lon="7.61948">
        <ele>132</ele>
        <time>2010-01-02T05:59:10Z</time>
      </trkpt>
      <trkpt lat="51.46902" lon="7.61965">
        <ele>137</ele>
        <time>2010-01-02T06:00:01Z</time>
      </trkpt>
      <trkpt lat="51.47007" lon="7.61896">
        <ele>139</ele>
        <time>2010-01-02T06:00:46Z</time>
      </trkpt>
      <trkpt lat="51.47238" lon="7.62201">
        <ele>154</ele>
        <time>2010-01-02T06:02:46Z</time>
      </trkpt>
      <trkpt lat="51.47503" lon="7.62646">
        <ele>164</ele>
        <time>2010-01-02T06:05:20Z</time>
      </trkpt>
      <trkpt lat="51.47702" lon="7.62559">
        <ele>166</ele>
        <time>2010-01-02T06:06:42Z</time>
      </trkpt>
      <trkpt lat="51.47888" lon="7.62517">
        <ele>177</ele>
        <time>2010-01-02T06:07:57Z</time>
      </trkpt>
      <trkpt lat="51.48025" lon="7.63026">
        <ele>179</ele>
        <time>2010-01-02T06:10:16Z</time>
      </trkpt>
      <trkpt lat="51.48191" lon="7.62941">
        <ele>188</ele>
        <time>2010-01-02T06:11:25Z</time>
      </trkpt>
      <trkpt lat="51.48399" lon="7.6288">
        <ele>195</ele>
        <time>2010-01-02T06:12:50Z</time>
      </trkpt>
      <trkpt lat="51.48403" lon="7.6291">
        <ele>195</ele>
        <time>2010-01-02T06:12:58Z</time>
      </trkpt>
      <trkpt lat="51.48423" lon="7.62901">
        <ele>195</ele>
        <time>2010-01-02T06:13:07Z</time>
      </trkpt>
      <trkpt lat="51.48601" lon="7.63752">
        <ele>186</ele>
        <time>2010-01-02T06:16:50Z</time>
      </trkpt>
      <trkpt lat="51.48745" lon="7.64164">
        <ele>186</ele>
        <time>2010-01-02T06:18:48Z</time>
      </trkpt>
      <trkpt lat="51.48716" lon="7.64355">
        <ele>182</ele>
        <time>2010-01-02T06:19:37Z</time>
      </trkpt>
      <trkpt lat="51.48745" lon="7.64466">
        <ele>185</ele>
        <time>2010-01-02T06:20:07Z</time>
      </trkpt>
      <trkpt lat="51.49038" lon="7.64232">
        <ele>183</ele>
        <time>2010-01-02T06:22:18Z</time>
      </trkpt>
      <trkpt lat="51.49223" lon="7.64462">
        <ele>178</ele>
        <time>2010-01-02T06:23:51Z</time>
      </trkpt>
      <trkpt lat="51.49386" lon="7.6473">
        <ele>167</ele>
        <time>2010-01-02T06:25:25Z</time>
      </trkpt>
      <trkpt lat="51.49461" lon="7.64921">
        <ele>163</ele>
        <time>2010-01-02T06:26:21Z</time>
      </trkpt>
      <trkpt lat="51.49471" lon="7.65141">
        <ele>168</ele>
        <time>2010-01-02T06:27:16Z</time>
      </trkpt>
      <trkpt lat="51.49489" lon="7.65179">
        <ele>169</ele>
        <time>2010-01-02T06:27:28Z</time>
      </trkpt>
      <trkpt lat="51.49539" lon="7.65192">
        <ele>165</ele>
        <time>2010-01-02T06:27:48Z</time>
      </trkpt>
      <trkpt lat="51.49541" lon="7.65286">
        <ele>172</ele>
        <time>2010-01-02T06:28:11Z</time>
      </trkpt>
      <trkpt lat="51.49735" lon="7.65544">
        <ele>165</ele>
        <time>2010-01-02T06:29:53Z</time>
      </trkpt>
      <trkpt lat="51.49903" lon="7.65863">
        <ele>157</ele>
        <time>2010-01-02T06:31:37Z</time>
      </trkpt>
      <trkpt lat="51.50001" lon="7.66131">
        <ele>154</ele>
        <time>2010-01-02T06:32:54Z</time>
      </trkpt>
      <trkpt lat="51.50043" lon="7.66279">
        <ele>149</ele>
        <time>2010-01-02T06:33:35Z</time>
      </trkpt>
      <trkpt lat="51.50077" lon="7.66711">
        <ele>143</ele>
        <time>2010-01-02T06:35:23Z</time>
      </trkpt>
      <trkpt lat="51.50096" lon="7.66748">
        <ele>142</ele>
        <time>2010-01-02T06:35:35Z</time>
      </trkpt>
      <trkpt lat="51.50191" lon="7.66797">
        <ele>139</ele>
        <time>2010-01-02T06:36:15Z</time>
      </trkpt>
      <trkpt lat="51.503" lon="7.67107">
        <ele>141</ele>
        <time>2010-01-02T06:37:44Z</time>
      </trkpt>
      <trkpt lat="51.50384" lon="7.67216">
        <ele>144</ele>
        <time>2010-01-02T06:38:27Z</time>
      </trkpt>
      <trkpt lat="51.50429" lon="7.67493">
        <ele>144</ele>
        <time>2010-01-02T06:39:38Z</time>
      </trkpt>
      <trkpt lat="51.50663" lon="7.67976">
        <ele>150</ele>
        <time>2010-01-02T06:42:11Z</time>
      </trkpt>
      <trkpt lat="51.50666" lon="7.68169">
        <ele>150</ele>
        <time>2010-01-02T06:42:59Z</time>
      </trkpt>
      <trkpt lat="51.50773" lon="7.688">
        <ele>153</ele>
        <time>2010-01-02T06:45:42Z</time>
      </trkpt>
      <trkpt lat="51.50891" lon="7.68844">
        <ele>150</ele>
        <time>2010-01-02T06:46:30Z</time>
      </trkpt>
      <trkpt lat="51.51094" lon="7.68764">
        <ele>145</ele>
        <time>2010-01-02T06:47:54Z</time>
      </trkpt>
      <trkpt lat="51.51213" lon="7.68809">
        <ele>146</ele>
        <time>2010-01-02T06:48:43Z</time>
      </trkpt>
      <trkpt lat="51.5142" lon="7.68773">
        <ele>145</ele>
        <time>2010-01-02T06:50:06Z</time>
      </trkpt>
      <trkpt lat="51.51614" lon="7.68809">
        <ele>139</ele>
        <time>2010-01-02T06:51:25Z</time>
      </trkpt>
      <trkpt lat="51.51679" lon="7.68794">
        <ele>134</ele>
        <time>2010-01-02T06:51:51Z</time>
      </trkpt>
      <trkpt lat="51.51699" lon="7.68693">
        <ele>135</ele>
        <time>2010-01-02T06:52:17Z</time>
      </trkpt>
      <trkpt lat="51.51736" lon="7.6867">
        <ele>134</ele>
        <time>2010-01-02T06:52:33Z</time>
      </trkpt>
      <trkpt lat="51.5188" lon="7.68683">
        <ele>130</ele>
        <time>2010-01-02T06:53:31Z</time>
      </trkpt>
      <trkpt lat="51.52005" lon="7.68597">
        <ele>130</ele>
        <time>2010-01-02T06:54:25Z</time>
      </trkpt>
      <trkpt lat="51.52043" lon="7.68595">
        <ele>129</ele>
        <time>2010-01-02T06:54:41Z</time>
      </trkpt>
      <trkpt lat="51.52235" lon="7.68715">
        <ele>125</ele>
        <time>2010-01-02T06:56:03Z</time>
      </trkpt>
      <trkpt lat="51.52326" lon="7.68715">
        <ele>128</ele>
        <time>2010-01-02T06:56:39Z</time>
      </trkpt>
      <trkpt lat="51.52396" lon="7.68618">
        <ele>127</ele>
        <time>2010-01-02T06:57:16Z</time>
      </trkpt>
      <trkpt lat="51.52586" lon="7.68705">
        <ele>122</ele>
        <time>2010-01-02T06:58:35Z</time>
      </trkpt>
      <trkpt lat="51.52701" lon="7.68823">
        <ele>121</ele>
        <time>2010-01-02T06:59:30Z</time>
      </trkpt>
      <trkpt lat="51.5274" lon="7.68834">
        <ele>120</ele>
        <time>2010-01-02T06:59:46Z</time>
      </trkpt>
      <trkpt lat="51.52786" lon="7.68812">
        <ele>120</ele>
        <time>2010-01-02T07:00:05Z</time>
      </trkpt>
      <trkpt lat="51.52941" lon="7.68851">
        <ele>117</ele>
        <time>2010-01-02T07:01:08Z</time>
      </trkpt>
      <trkpt lat="51.53205" lon="7.68964">
        <ele>113</ele>
        <time>2010-01-02T07:02:57Z</time>
      </trkpt>
      <trkpt lat="51.53279" lon="7.69096">
        <ele>110</ele>
        <time>2010-01-02T07:03:41Z</time>
      </trkpt>
      <trkpt lat="51.53429" lon="7.69227">
        <ele>106</ele>
        <time>2010-01-02T07:04:50Z</time>
      </trkpt>
      <trkpt lat="51.53535" lon="7.69294">
        <ele>104</ele>
        <time>2010-01-02T07:05:36Z</time>
      </trkpt>
      <trkpt lat="51.53745" lon="7.69352">
        <ele>101</ele>
        <time>2010-01-02T07:07:01Z</time>
      </trkpt>
      <trkpt lat="51.53819" lon="7.69258">
        <ele>102</ele>
        <time>2010-01-02T07:07:38Z</time>
      </trkpt>
      <trkpt lat="51.53843" lon="7.68798">
        <ele>102</ele>
        <time>2010-01-02T07:09:33Z</time>
      </trkpt>
      <trkpt lat="51.53886" lon="7.68735">
        <ele>99</ele>
        <time>2010-01-02T07:09:56Z</time>
      </trkpt>
      <trkpt lat="51.53941" lon="7.6873">
        <ele>96</ele>
        <time>2010-01-02T07:10:19Z</time>
      </trkpt>
      <trkpt lat="51.54077" lon="7.68781">
        <ele>92</ele>
        <time>2010-01-02T07:11:14Z</time>
      </trkpt>
      <trkpt lat="51.54093" lon="7.69054">
        <ele>91</ele>
        <time>2010-01-02T07:12:23Z</time>
      </trkpt>
    </trkseg>
  </trk>
</gpx>